[[{"header":{"parameterUnit":"m.s-1","parameterCategory":1,"la1":31.0,"la2":29.5877,"lo1":-88.7671,"lo2":-86.6584,"dy":0.0162,"dx":0.0185,"nx":115,"ny":88,"refTime":"2024-06-28T06:00:00:Z","depth":0,"parameterNumber":2,"parameterNumberName":"U-component_of_WINDS"},"data":[0.0,0.0,0.0,0.0,0.0,0.0,0.0,0.0,0.0,0.0,0.0,0.0,0.0,0.0,0.0,0.0,0.0,0.0,0.0,0.0,0.0,0.0,0.0,0.0,0.0,0.0,0.0,0.0,0.0,0.0,0.0,0.0,0.0,0.0,0.0,0.0,0.0,0.0,0.0,0.0,0.0,0.0,0.0,0.0,0.0,0.0,0.0,0.0,0.0,0.0,0.0,0.0,0.0,0.0,0.0,0.0,0.0,0.0,0.0,0.0,0.0,0.0,0.0,0.0,0.0,0.0,0.0,0.0,0.0,0.0,0.0,0.0,0.0,0.0,0.0,0.0,0.0,0.0,0.0,0.0,0.0,0.0,0.0,0.0,0.0,0.0,0.0,0.0,0.0,0.0,0.0,0.0,0.0,0.0,0.0,0.0,0.0,0.0,0.0,0.0,0.0,0.0,0.0,0.0,0.0,0.0,0.0,0.0,0.0,0.0,0.0,0.0,0.0,0.0,0.0,0.0,0.0,0.0,0.0,0.0,0.0,0.0,0.0,0.0,0.0,0.0,0.0,0.0,0.0,0.0,0.0,0.0,0.0,0.0,0.0,0.0,0.0,0.0,0.0,0.0,0.0,0.0,0.0,0.0,0.0,0.0,0.0,0.0,0.0,0.0,0.0,0.0,0.0,0.0,0.0,0.0,0.0,0.0,0.0,0.0,0.0,0.0,0.0,0.0,0.0,0.0,0.0,0.0,0.0,0.0,0.0,0.0,0.0,0.0,0.0,0.0,0.0,0.0,0.0,0.0,0.0,0.0,0.0,0.0,0.0,0.0,0.0,0.0,0.0,0.0,0.0,0.0,0.0,0.0,0.0,0.0,0.0,0.0,0.0,0.0,0.0,0.0,0.0,0.0,0.0,0.0,0.0,0.0,0.0,0.0,0.0,0.0,0.0,0.0,0.0,0.0,0.0,0.0,0.0,0.0,0.0,0.0,0.0,0.0,0.0,0.0,0.0,0.0,0.0,0.0,0.0,0.0,0.0,0.0,0.0,0.0,0.0,0.0,0.0,0.0,0.0,0.0,0.0,0.0,0.0,0.0,0.0,0.0,0.0,0.0,0.0,0.0,0.0,0.0,0.0,0.0,0.0,0.0,0.0,0.0,0.0,0.0,0.0,0.0,0.0,0.0,0.0,0.0,0.0,0.0,0.0,0.0,0.0,0.0,0.0,0.0,0.0,0.0,0.0,0.0,0.0,0.0,0.0,0.0,0.0,0.0,0.0,0.0,0.0,0.0,0.0,0.0,0.0,0.0,0.0,0.0,0.0,0.0,0.0,0.0,0.0,0.0,0.0,0.0,0.0,0.0,0.0,0.0,0.0,0.0,0.0,0.0,0.0,0.0,0.0,0.0,0.0,0.0,0.0,0.0,0.0,0.0,0.0,0.0,0.0,0.0,0.0,0.0,0.0,0.0,0.0,0.0,0.0,0.0,0.0,0.0,0.0,0.0,0.0,0.0,0.0,0.0,0.0,0.0,0.0,0.0,0.0,0.0,0.0,0.0,0.0,0.0,0.0,0.0,0.0,0.0,0.0,0.0,0.0,0.0,0.0,0.0,0.0,0.0,0.0,0.0,0.0,0.0,0.0,0.0,0.0,0.0,0.0,0.0,0.0,0.0,0.0,0.0,0.0,0.0,0.0,0.0,0.0,0.0,0.0,0.0,0.0,0.0,0.0,0.0,0.0,0.0,0.0,0.0,0.0,0.0,0.0,0.0,0.0,0.0,0.0,0.0,0.0,0.0,0.0,0.0,0.0,0.0,0.0,0.0,0.0,0.0,0.0,0.0,0.0,0.0,0.0,0.0,0.0,0.0,0.0,0.0,0.0,0.0,0.0,0.0,0.0,0.0,0.0,0.0,0.0,0.0,0.0,0.0,0.0,0.0,0.0,0.0,0.0,0.0,0.0,0.0,0.0,0.0,0.0,0.0,0.0,0.0,0.0,0.0,0.0,0.0,0.0,0.0,0.0,0.0,0.0,0.0,0.0,0.0,0.0,0.0,0.0,0.0,0.0,0.0,0.0,0.0,0.0,0.0,0.0,0.0,0.0,0.0,0.0,0.0,0.0,0.0,0.0,0.0,0.0,0.0,0.0,0.0,0.0,0.0,0.0,0.0,0.0,0.0,0.0,0.0,0.0,0.0,0.0,0.0,0.0,0.0,0.0,0.0,0.0,0.0,0.0,0.0,0.0,0.0,0.0,0.0,0.0,0.0,0.0,0.0,0.0,0.0,0.0,0.0,0.0,0.0,0.0,0.0,0.0,0.0,0.0,0.0,0.0,0.0,0.0,0.0,0.0,0.0,0.0,0.0,0.0,0.0,0.0,0.0,0.0,0.0,0.0,0.0,0.0,0.0,0.0,0.0,0.0,0.0,0.0,0.0,0.0,0.0,0.0,0.0,0.0,0.0,0.0,0.0,0.0,0.0,0.0,0.0,0.0,0.0,0.0,0.0,0.0,0.0,0.0,0.0,0.0,0.0,0.0,0.0,0.0,0.0,0.0,0.0,0.0,0.0,0.0,0.0,0.0,0.0,0.0,0.0,0.0,0.0,0.0,0.0,0.0,0.0,0.0,0.0,0.0,0.0,0.0,0.0,0.0,0.0,0.0,0.0,0.0,0.0,0.0,0.0,0.0,0.0,0.0,0.0,0.0,0.0,0.0,0.0,0.0,0.0,0.0,0.0,0.0,0.0,0.0,0.0,0.0,0.0,0.0,0.0,0.0,0.0,0.0,0.0,0.0,0.0,0.0,0.0,0.0,0.0,0.0,0.0,0.0,0.0,0.0,0.0,0.0,0.0,0.0,0.0,0.0,0.0,0.0,0.0,0.0,0.0,0.0,0.0,0.0,0.0,0.0,0.0,0.0,0.0,0.0,0.0,0.0,0.0,0.0,0.0,0.0,0.0,0.0,0.0,0.0,0.0,0.0,0.0,0.0,0.0,0.0,0.0,0.0,0.0,0.0,0.0,0.0,0.0,0.0,0.0,0.0,0.0,0.0,0.0,0.0,0.0,0.0,0.0,0.0,0.0,0.0,0.0,0.0,0.0,0.0,0.0,0.0,0.0,0.0,0.0,0.0,0.0,0.0,0.0,0.0,0.0,0.0,0.0,0.0,0.0,0.0,0.0,0.0,0.0,0.0,0.0,0.0,0.0,0.0,0.0,0.0,0.0,0.0,0.0,0.0,0.0,0.0,0.0,0.0,0.0,0.0,0.0,0.0,0.0,0.0,0.0,0.0,0.0,0.0,0.0,0.0,0.0,0.0,0.0,0.0,0.0,0.0,0.0,0.0,0.0,0.0,0.0,0.0,0.0,0.0,0.0,0.0,0.0,0.0,0.0,0.0,0.0,0.0,0.0,0.0,0.0,0.0,0.0,0.0,0.0,0.0,0.0,0.0,0.0,0.0,0.0,0.0,0.0,0.0,0.0,0.0,0.0,0.0,0.0,0.0,0.0,0.0,0.0,0.0,0.0,0.0,0.0,0.0,0.0,0.0,0.0,0.0,0.0,0.0,0.0,0.0,0.0,0.0,0.0,0.0,0.0,0.0,0.0,0.0,0.0,0.0,0.0,0.0,0.0,0.0,0.0,0.0,0.0,0.0,0.0,0.0,0.0,0.0,0.0,0.0,0.0,0.0,0.0,0.0,0.0,0.0,0.0,0.0,0.0,0.0,0.0,0.0,0.0,0.0,0.0,0.0,0.0,0.0,0.0,0.0,0.0,0.0,0.0,0.0,0.0,0.0,0.0,0.0,0.0,0.0,0.0,0.0,0.0,0.0,0.0,0.0,0.0,0.0,0.0,0.0,0.0,0.0,0.0,0.0,0.0,0.0,0.0,0.0,0.0,0.0,0.0,0.0,0.0,0.0,0.0,0.0,0.0,0.0,0.0,0.0,0.0,0.0,0.0,0.0,0.0,0.0,0.0,0.0,0.0,0.0,0.0,0.0,0.0,0.0,0.0,0.0,0.0,0.0,0.0,0.0,0.0,0.0,0.0,0.0,0.0,0.0,0.0,0.0,0.0,0.0,0.0,0.0,0.0,0.0,0.0,0.0,0.0,0.0,0.0,0.0,0.0,0.0,0.0,0.0,0.0,0.0,0.0,0.0,0.0,0.0,0.0,0.0,0.0,0.0,0.0,0.0,0.0,0.0,0.0,0.0,0.0,0.0,0.0,0.0,0.0,0.0,0.0,0.0,0.0,0.0,0.0,0.0,0.0,0.0,0.0,0.0,0.0,-3.692,0.0,0.0,0.0,0.0,0.0,0.0,0.0,0.0,0.0,0.0,0.0,0.0,0.0,0.0,0.0,0.0,0.0,0.0,0.0,0.0,0.0,0.0,0.0,0.0,0.0,0.0,0.0,0.0,0.0,0.0,0.0,0.0,0.0,0.0,0.0,0.0,0.0,0.0,0.0,0.0,0.0,0.0,0.0,0.0,0.0,0.0,0.0,0.0,0.0,0.0,0.0,0.0,0.0,0.0,0.0,0.0,0.0,0.0,0.0,0.0,0.0,0.0,0.0,0.0,0.0,0.0,0.0,0.0,0.0,0.0,0.0,0.0,0.0,0.0,0.0,0.0,0.0,0.0,0.0,0.0,0.0,0.0,0.0,0.0,0.0,0.0,0.0,0.0,0.0,0.0,0.0,0.0,0.0,0.0,0.0,0.0,0.0,0.0,0.0,0.0,0.0,0.0,0.0,0.0,0.0,0.0,0.0,0.0,0.0,0.0,-4.2441,-4.2539,-4.1546,-4.0194,-3.8439,0.0,0.0,0.0,0.0,0.0,0.0,0.0,0.0,0.0,0.0,0.0,0.0,0.0,0.0,0.0,0.0,0.0,0.0,0.0,0.0,0.0,0.0,0.0,0.0,0.0,0.0,0.0,0.0,0.0,0.0,0.0,0.0,0.0,0.0,0.0,0.0,0.0,0.0,0.0,0.0,0.0,0.0,0.0,0.0,0.0,0.0,0.0,0.0,0.0,0.0,0.0,0.0,0.0,0.0,0.0,0.0,0.0,0.0,0.0,0.0,0.0,0.0,0.0,0.0,0.0,0.0,0.0,0.0,0.0,0.0,0.0,0.0,0.0,0.0,0.0,0.0,0.0,0.0,0.0,0.0,0.0,0.0,0.0,0.0,0.0,0.0,0.0,0.0,0.0,0.0,0.0,0.0,0.0,0.0,0.0,0.0,0.0,0.0,0.0,0.0,0.0,0.0,0.0,0.0,0.0,0.0,0.0,0.0,0.0,0.0,0.0,0.0,-4.2523,-4.1067,-3.9283,0.0,0.0,0.0,0.0,0.0,0.0,0.0,0.0,0.0,0.0,0.0,0.0,0.0,0.0,0.0,0.0,0.0,0.0,0.0,0.0,0.0,0.0,0.0,0.0,0.0,0.0,0.0,0.0,0.0,0.0,0.0,0.0,0.0,0.0,0.0,0.0,0.0,0.0,0.0,0.0,0.0,0.0,0.0,0.0,0.0,0.0,0.0,0.0,0.0,0.0,0.0,0.0,0.0,0.0,0.0,0.0,0.0,0.0,0.0,0.0,0.0,0.0,0.0,0.0,0.0,0.0,0.0,0.0,0.0,0.0,0.0,0.0,0.0,0.0,0.0,0.0,0.0,0.0,0.0,0.0,0.0,0.0,0.0,0.0,0.0,0.0,0.0,0.0,0.0,0.0,0.0,0.0,0.0,0.0,0.0,0.0,0.0,0.0,0.0,0.0,0.0,0.0,0.0,0.0,0.0,0.0,0.0,0.0,0.0,0.0,-4.3633,-4.3691,-4.4223,0.0,-3.8632,0.0,0.0,0.0,0.0,0.0,0.0,0.0,0.0,0.0,0.0,0.0,0.0,0.0,0.0,0.0,0.0,0.0,0.0,0.0,0.0,0.0,0.0,0.0,0.0,0.0,0.0,0.0,0.0,0.0,0.0,0.0,0.0,0.0,0.0,0.0,0.0,0.0,0.0,0.0,0.0,0.0,0.0,0.0,0.0,0.0,0.0,0.0,0.0,0.0,0.0,0.0,0.0,0.0,0.0,0.0,0.0,0.0,0.0,0.0,0.0,0.0,0.0,0.0,0.0,0.0,0.0,0.0,0.0,0.0,0.0,0.0,0.0,0.0,0.0,0.0,0.0,0.0,0.0,0.0,0.0,0.0,0.0,0.0,0.0,0.0,0.0,0.0,0.0,0.0,0.0,0.0,0.0,0.0,0.0,0.0,0.0,0.0,0.0,0.0,0.0,0.0,0.0,0.0,0.0,0.0,0.0,0.0,0.0,0.0,0.0,-4.4199,-4.5215,-4.3484,-4.1361,0.0,0.0,0.0,0.0,0.0,0.0,0.0,0.0,0.0,0.0,0.0,0.0,0.0,0.0,0.0,0.0,0.0,0.0,0.0,0.0,0.0,0.0,0.0,0.0,0.0,0.0,0.0,0.0,0.0,0.0,0.0,0.0,0.0,0.0,0.0,0.0,0.0,0.0,0.0,0.0,0.0,0.0,0.0,0.0,0.0,0.0,0.0,0.0,0.0,0.0,0.0,0.0,0.0,0.0,0.0,0.0,0.0,0.0,0.0,0.0,0.0,0.0,0.0,0.0,0.0,0.0,0.0,0.0,0.0,0.0,0.0,0.0,0.0,0.0,0.0,0.0,0.0,0.0,0.0,0.0,0.0,0.0,0.0,0.0,0.0,0.0,0.0,0.0,0.0,0.0,0.0,0.0,0.0,0.0,0.0,0.0,0.0,0.0,0.0,0.0,0.0,0.0,0.0,0.0,0.0,0.0,0.0,0.0,0.0,0.0,-4.3711,-4.4394,-4.5719,-4.3529,-4.1359,-3.9385,0.0,0.0,0.0,0.0,0.0,0.0,0.0,0.0,0.0,0.0,0.0,0.0,0.0,0.0,0.0,0.0,0.0,0.0,0.0,0.0,0.0,0.0,0.0,0.0,0.0,0.0,0.0,0.0,0.0,0.0,0.0,0.0,0.0,0.0,0.0,0.0,0.0,0.0,0.0,0.0,0.0,0.0,0.0,0.0,0.0,0.0,0.0,0.0,0.0,0.0,0.0,0.0,0.0,0.0,0.0,0.0,0.0,0.0,0.0,0.0,0.0,0.0,0.0,0.0,0.0,0.0,0.0,0.0,0.0,0.0,0.0,0.0,0.0,0.0,0.0,0.0,0.0,0.0,0.0,0.0,0.0,0.0,0.0,0.0,0.0,0.0,0.0,0.0,0.0,0.0,0.0,0.0,0.0,0.0,0.0,0.0,0.0,0.0,0.0,0.0,0.0,0.0,0.0,0.0,0.0,0.0,0.0,0.0,0.0,-4.3711,-4.4117,-4.4987,-4.5352,-4.3627,0.0,0.0,0.0,0.0,0.0,0.0,0.0,0.0,0.0,0.0,0.0,0.0,0.0,0.0,0.0,0.0,0.0,0.0,0.0,0.0,0.0,0.0,0.0,0.0,0.0,0.0,0.0,0.0,0.0,0.0,0.0,0.0,0.0,0.0,0.0,0.0,0.0,0.0,0.0,0.0,0.0,0.0,0.0,0.0,0.0,0.0,0.0,0.0,0.0,0.0,0.0,0.0,0.0,0.0,0.0,0.0,0.0,0.0,0.0,0.0,0.0,0.0,0.0,0.0,0.0,0.0,0.0,0.0,0.0,0.0,0.0,0.0,0.0,0.0,0.0,0.0,0.0,0.0,0.0,0.0,0.0,0.0,0.0,0.0,0.0,0.0,0.0,0.0,0.0,0.0,0.0,0.0,0.0,0.0,0.0,0.0,0.0,0.0,0.0,0.0,0.0,0.0,0.0,0.0,0.0,0.0,0.0,0.0,0.0,-4.3652,-4.468,-4.5332,-4.5475,-4.3597,-4.1531,0.0,0.0,0.0,0.0,0.0,0.0,0.0,0.0,0.0,0.0,0.0,0.0,0.0,0.0,0.0,0.0,0.0,0.0,0.0,0.0,0.0,0.0,0.0,0.0,0.0,0.0,0.0,0.0,0.0,0.0,0.0,0.0,0.0,0.0,0.0,0.0,0.0,0.0,0.0,0.0,0.0,0.0,0.0,0.0,0.0,0.0,0.0,0.0,0.0,0.0,0.0,0.0,0.0,0.0,0.0,0.0,0.0,0.0,0.0,0.0,0.0,0.0,0.0,0.0,0.0,0.0,0.0,0.0,0.0,0.0,0.0,0.0,0.0,0.0,0.0,0.0,0.0,0.0,0.0,0.0,0.0,0.0,0.0,0.0,0.0,0.0,0.0,0.0,0.0,0.0,0.0,0.0,0.0,0.0,0.0,0.0,0.0,0.0,0.0,0.0,0.0,0.0,0.0,0.0,0.0,0.0,0.0,0.0,0.0,-4.3647,0.0,-4.5841,0.0,-4.3148,-4.1047,0.0,0.0,0.0,0.0,0.0,0.0,0.0,0.0,0.0,0.0,0.0,0.0,0.0,0.0,0.0,0.0,0.0,0.0,0.0,0.0,0.0,0.0,0.0,0.0,0.0,0.0,0.0,0.0,0.0,0.0,0.0,0.0,0.0,0.0,0.0,0.0,0.0,0.0,0.0,0.0,0.0,0.0,0.0,0.0,0.0,0.0,0.0,0.0,0.0,0.0,0.0,0.0,0.0,0.0,0.0,0.0,0.0,0.0,0.0,0.0,0.0,0.0,0.0,0.0,0.0,0.0,0.0,0.0,0.0,0.0,0.0,0.0,0.0,0.0,0.0,0.0,0.0,0.0,0.0,0.0,0.0,0.0,0.0,0.0,0.0,0.0,0.0,0.0,0.0,0.0,0.0,0.0,0.0,0.0,0.0,0.0,0.0,0.0,0.0,0.0,0.0,0.0,0.0,0.0,0.0,0.0,0.0,0.0,-4.2026,-4.3589,-4.5117,-4.5502,-4.455,-4.4253,-4.2632,0.0,0.0,0.0,0.0,0.0,0.0,0.0,0.0,0.0,0.0,0.0,0.0,0.0,0.0,0.0,0.0,0.0,0.0,0.0,0.0,0.0,0.0,0.0,0.0,0.0,0.0,0.0,0.0,0.0,0.0,0.0,0.0,0.0,0.0,0.0,0.0,0.0,0.0,0.0,0.0,0.0,0.0,0.0,0.0,0.0,0.0,0.0,0.0,0.0,0.0,0.0,0.0,0.0,0.0,0.0,0.0,0.0,0.0,0.0,0.0,0.0,0.0,0.0,0.0,0.0,0.0,0.0,0.0,0.0,0.0,0.0,0.0,0.0,0.0,0.0,0.0,0.0,0.0,0.0,0.0,0.0,0.0,0.0,0.0,0.0,0.0,0.0,0.0,0.0,0.0,0.0,0.0,0.0,0.0,0.0,0.0,0.0,0.0,0.0,0.0,0.0,0.0,0.0,0.0,0.0,0.0,0.0,0.0,0.0,-4.4428,-4.5386,-4.5726,-4.5338,-4.3543,-4.1546,0.0,0.0,0.0,0.0,0.0,0.0,0.0,0.0,0.0,0.0,0.0,0.0,0.0,0.0,0.0,0.0,0.0,0.0,0.0,0.0,0.0,0.0,0.0,0.0,0.0,0.0,0.0,0.0,0.0,0.0,0.0,0.0,0.0,0.0,0.0,0.0,0.0,0.0,0.0,0.0,0.0,0.0,0.0,0.0,0.0,0.0,0.0,0.0,0.0,0.0,0.0,0.0,0.0,0.0,0.0,0.0,0.0,0.0,0.0,0.0,0.0,0.0,0.0,0.0,0.0,0.0,0.0,0.0,0.0,0.0,0.0,0.0,0.0,0.0,0.0,0.0,0.0,0.0,0.0,0.0,0.0,0.0,0.0,0.0,0.0,0.0,0.0,0.0,0.0,0.0,0.0,0.0,0.0,0.0,0.0,0.0,0.0,0.0,0.0,0.0,0.0,0.0,0.0,0.0,0.0,0.0,0.0,0.0,0.0,-4.566,-4.5835,-4.6005,-4.6201,-4.3659,-4.1643,-4.0258,0.0,0.0,0.0,0.0,0.0,0.0,0.0,0.0,0.0,0.0,0.0,0.0,0.0,0.0,0.0,0.0,0.0,0.0,0.0,0.0,0.0,0.0,0.0,0.0,0.0,0.0,0.0,0.0,0.0,0.0,0.0,0.0,0.0,0.0,0.0,0.0,0.0,0.0,0.0,0.0,0.0,0.0,0.0,0.0,0.0,0.0,0.0,0.0,0.0,0.0,0.0,0.0,0.0,0.0,0.0,0.0,0.0,0.0,0.0,0.0,0.0,0.0,0.0,0.0,0.0,0.0,0.0,0.0,0.0,0.0,0.0,0.0,0.0,0.0,0.0,0.0,0.0,0.0,0.0,0.0,0.0,0.0,0.0,0.0,0.0,0.0,0.0,0.0,0.0,0.0,0.0,0.0,0.0,0.0,0.0,0.0,0.0,0.0,0.0,0.0,0.0,0.0,0.0,0.0,0.0,0.0,0.0,0.0,-4.7276,-4.6415,-4.6259,-4.6854,-4.4528,-4.2777,0.0,0.0,0.0,0.0,0.0,0.0,0.0,0.0,0.0,0.0,0.0,0.0,0.0,0.0,0.0,0.0,0.0,0.0,0.0,0.0,0.0,0.0,0.0,0.0,0.0,0.0,0.0,0.0,0.0,0.0,0.0,0.0,0.0,0.0,0.0,0.0,0.0,0.0,0.0,0.0,0.0,0.0,0.0,0.0,0.0,0.0,0.0,0.0,0.0,0.0,0.0,0.0,0.0,0.0,0.0,0.0,0.0,0.0,0.0,0.0,0.0,0.0,0.0,0.0,0.0,0.0,0.0,0.0,0.0,0.0,0.0,0.0,0.0,0.0,0.0,0.0,0.0,0.0,0.0,0.0,0.0,0.0,0.0,0.0,0.0,0.0,0.0,0.0,0.0,0.0,0.0,0.0,0.0,0.0,0.0,0.0,0.0,0.0,0.0,0.0,0.0,0.0,0.0,0.0,0.0,0.0,0.0,0.0,0.0,-4.8044,-4.7206,-4.6774,-4.6864,-4.5624,-4.3951,0.0,0.0,0.0,0.0,0.0,0.0,0.0,0.0,0.0,0.0,0.0,0.0,0.0,0.0,0.0,0.0,0.0,0.0,0.0,0.0,0.0,0.0,0.0,0.0,0.0,0.0,0.0,0.0,0.0,0.0,0.0,0.0,0.0,0.0,0.0,0.0,0.0,0.0,0.0,0.0,0.0,0.0,0.0,0.0,0.0,0.0,0.0,0.0,0.0,0.0,0.0,0.0,0.0,0.0,0.0,0.0,0.0,0.0,0.0,0.0,0.0,0.0,0.0,0.0,0.0,0.0,0.0,0.0,0.0,0.0,0.0,0.0,0.0,0.0,0.0,0.0,0.0,0.0,0.0,0.0,0.0,0.0,0.0,0.0,0.0,0.0,0.0,0.0,0.0,0.0,0.0,0.0,0.0,0.0,0.0,0.0,0.0,0.0,0.0,0.0,0.0,0.0,0.0,0.0,0.0,0.0,0.0,0.0,-4.7623,-4.8463,-4.8237,-4.7863,-4.7413,-4.5855,-4.4201,0.0,0.0,0.0,0.0,0.0,0.0,0.0,0.0,0.0,0.0,0.0,0.0,0.0,0.0,0.0,0.0,0.0,0.0,0.0,0.0,0.0,0.0,0.0,0.0,0.0,0.0,0.0,0.0,0.0,0.0,0.0,0.0,0.0,0.0,0.0,0.0,0.0,0.0,0.0,0.0,0.0,0.0,0.0,0.0,0.0,0.0,0.0,0.0,0.0,0.0,0.0,0.0,0.0,0.0,0.0,0.0,0.0,0.0,0.0,0.0,0.0,0.0,0.0,0.0,0.0,0.0,0.0,0.0,0.0,0.0,0.0,0.0,0.0,0.0,0.0,0.0,0.0,0.0,0.0,0.0,0.0,0.0,0.0,0.0,0.0,0.0,0.0,0.0,0.0,0.0,0.0,0.0,0.0,0.0,0.0,0.0,0.0,0.0,0.0,0.0,0.0,0.0,0.0,0.0,0.0,0.0,0.0,0.0,-4.8509,-4.8389,-4.9,-4.891,-4.7958,-4.5768,-4.4105,0.0,0.0,0.0,0.0,0.0,0.0,0.0,0.0,0.0,0.0,0.0,0.0,0.0,0.0,0.0,0.0,0.0,0.0,0.0,0.0,0.0,0.0,0.0,0.0,0.0,0.0,0.0,0.0,0.0,0.0,0.0,0.0,0.0,0.0,0.0,0.0,0.0,0.0,0.0,0.0,0.0,0.0,0.0,0.0,0.0,0.0,0.0,0.0,0.0,0.0,0.0,0.0,0.0,0.0,0.0,0.0,0.0,0.0,0.0,0.0,0.0,0.0,0.0,0.0,0.0,0.0,0.0,0.0,0.0,0.0,0.0,0.0,0.0,0.0,0.0,0.0,0.0,0.0,0.0,0.0,0.0,0.0,0.0,0.0,0.0,0.0,0.0,0.0,0.0,0.0,0.0,0.0,0.0,0.0,0.0,0.0,0.0,0.0,0.0,0.0,0.0,0.0,0.0,0.0,0.0,0.0,0.0,0.0,-4.7657,-4.7638,-4.7578,-4.7453,-4.7228,-4.6653,-4.5316,0.0,0.0,0.0,0.0,0.0,0.0,0.0,0.0,0.0,0.0,0.0,0.0,0.0,0.0,0.0,0.0,0.0,0.0,0.0,0.0,0.0,0.0,0.0,0.0,0.0,0.0,0.0,0.0,0.0,0.0,0.0,0.0,0.0,0.0,0.0,0.0,0.0,0.0,0.0,0.0,0.0,0.0,0.0,0.0,0.0,0.0,0.0,0.0,-4.3417,0.0,0.0,0.0,0.0,0.0,0.0,0.0,0.0,0.0,0.0,0.0,0.0,0.0,0.0,0.0,0.0,0.0,0.0,0.0,0.0,0.0,0.0,0.0,0.0,0.0,0.0,0.0,0.0,0.0,0.0,0.0,0.0,0.0,0.0,0.0,0.0,0.0,0.0,0.0,0.0,0.0,0.0,0.0,0.0,0.0,0.0,0.0,0.0,0.0,0.0,0.0,0.0,0.0,0.0,0.0,0.0,0.0,0.0,0.0,-4.7392,-4.7387,-4.7129,-4.7002,-4.6976,-4.6524,-4.5278,0.0,0.0,0.0,0.0,0.0,0.0,0.0,0.0,0.0,0.0,0.0,0.0,0.0,0.0,0.0,0.0,0.0,0.0,0.0,0.0,0.0,0.0,0.0,0.0,0.0,0.0,0.0,0.0,0.0,0.0,0.0,0.0,0.0,0.0,0.0,0.0,0.0,0.0,0.0,0.0,0.0,0.0,0.0,0.0,0.0,0.0,0.0,0.0,0.0,0.0,0.0,0.0,0.0,0.0,0.0,0.0,0.0,0.0,0.0,0.0,0.0,0.0,0.0,0.0,0.0,0.0,0.0,0.0,0.0,0.0,0.0,0.0,0.0,0.0,0.0,0.0,0.0,0.0,0.0,0.0,0.0,0.0,0.0,0.0,0.0,0.0,0.0,0.0,0.0,0.0,0.0,0.0,0.0,0.0,0.0,0.0,0.0,0.0,0.0,0.0,0.0,0.0,0.0,0.0,0.0,0.0,0.0,-4.5961,-4.7092,-4.7205,-4.697,-4.6829,-4.6829,-4.6028,-4.4806,-4.3162,0.0,0.0,0.0,0.0,0.0,0.0,0.0,0.0,0.0,0.0,0.0,0.0,0.0,0.0,0.0,0.0,0.0,0.0,0.0,0.0,0.0,0.0,0.0,0.0,0.0,0.0,0.0,0.0,0.0,0.0,0.0,0.0,0.0,0.0,0.0,0.0,0.0,0.0,-4.0566,-4.2461,0.0,0.0,0.0,0.0,0.0,0.0,0.0,0.0,-4.5339,0.0,0.0,0.0,0.0,0.0,0.0,0.0,0.0,0.0,0.0,0.0,0.0,0.0,0.0,0.0,0.0,0.0,0.0,0.0,0.0,0.0,0.0,0.0,0.0,0.0,0.0,0.0,0.0,0.0,0.0,0.0,0.0,0.0,0.0,0.0,0.0,0.0,0.0,0.0,0.0,0.0,0.0,0.0,0.0,0.0,0.0,0.0,0.0,0.0,0.0,0.0,0.0,0.0,0.0,0.0,0.0,-4.4766,-4.5195,-4.576,-4.6463,-4.6213,-4.6081,-4.6076,-4.5776,-4.4825,-4.3181,0.0,0.0,0.0,0.0,0.0,0.0,0.0,0.0,0.0,0.0,0.0,0.0,0.0,0.0,0.0,0.0,0.0,0.0,0.0,0.0,0.0,0.0,0.0,0.0,0.0,0.0,0.0,0.0,0.0,0.0,0.0,0.0,0.0,0.0,0.0,0.0,0.0,0.0,0.0,-4.4082,-4.5156,0.0,0.0,0.0,0.0,0.0,0.0,0.0,0.0,-4.4658,0.0,0.0,0.0,0.0,0.0,0.0,0.0,0.0,0.0,0.0,0.0,0.0,0.0,0.0,0.0,0.0,0.0,0.0,0.0,0.0,0.0,0.0,0.0,0.0,0.0,0.0,0.0,0.0,0.0,0.0,0.0,0.0,0.0,0.0,0.0,0.0,0.0,0.0,0.0,0.0,0.0,0.0,0.0,0.0,0.0,0.0,0.0,0.0,0.0,0.0,0.0,0.0,0.0,0.0,0.0,-4.4297,-4.5215,-4.5879,-4.6269,-4.6093,-4.5955,-4.5879,-4.5325,-4.4419,0.0,0.0,0.0,0.0,0.0,0.0,0.0,0.0,0.0,0.0,0.0,0.0,0.0,0.0,0.0,0.0,0.0,0.0,0.0,0.0,0.0,0.0,0.0,0.0,0.0,0.0,0.0,0.0,0.0,0.0,0.0,0.0,0.0,0.0,0.0,0.0,0.0,0.0,0.0,0.0,-4.5137,-4.582,-4.623,0.0,0.0,0.0,0.0,0.0,0.0,-4.5399,-4.4837,0.0,0.0,0.0,0.0,0.0,0.0,0.0,0.0,0.0,0.0,0.0,0.0,0.0,0.0,0.0,0.0,0.0,0.0,0.0,0.0,0.0,0.0,0.0,0.0,0.0,0.0,0.0,0.0,0.0,0.0,0.0,0.0,0.0,0.0,0.0,0.0,0.0,0.0,0.0,0.0,0.0,0.0,0.0,0.0,0.0,0.0,0.0,0.0,0.0,0.0,0.0,0.0,0.0,0.0,0.0,-4.3711,-4.5234,-4.6113,-4.6289,-4.6145,-4.6001,-4.5884,-4.5142,-4.4131,0.0,0.0,0.0,0.0,0.0,0.0,0.0,0.0,0.0,0.0,0.0,0.0,0.0,0.0,0.0,0.0,0.0,0.0,0.0,0.0,0.0,0.0,0.0,0.0,0.0,0.0,0.0,0.0,0.0,0.0,0.0,0.0,0.0,0.0,0.0,0.0,0.0,0.0,0.0,0.0,0.0,-4.6289,-4.6308,-4.6894,0.0,0.0,0.0,0.0,-4.6289,-4.5564,0.0,0.0,0.0,0.0,0.0,0.0,0.0,0.0,0.0,0.0,0.0,0.0,0.0,0.0,0.0,0.0,0.0,0.0,0.0,0.0,0.0,0.0,0.0,0.0,0.0,0.0,0.0,0.0,0.0,0.0,0.0,0.0,0.0,0.0,0.0,0.0,0.0,0.0,0.0,0.0,0.0,0.0,0.0,0.0,0.0,0.0,0.0,0.0,0.0,0.0,0.0,0.0,0.0,0.0,0.0,0.0,-4.3672,-4.4648,-4.5527,-4.625,-4.6047,-4.5912,-4.5899,-4.5619,-4.4369,0.0,0.0,0.0,0.0,0.0,0.0,0.0,0.0,0.0,0.0,0.0,0.0,0.0,0.0,0.0,0.0,0.0,0.0,0.0,0.0,0.0,0.0,0.0,0.0,0.0,0.0,0.0,0.0,0.0,0.0,0.0,0.0,0.0,0.0,0.0,0.0,0.0,0.0,0.0,0.0,0.0,-4.6289,-4.6289,-4.6387,-4.6406,0.0,0.0,-4.6289,-4.6289,-4.6096,0.0,0.0,0.0,0.0,0.0,0.0,0.0,0.0,0.0,0.0,0.0,0.0,0.0,0.0,0.0,0.0,0.0,0.0,0.0,0.0,0.0,0.0,0.0,0.0,0.0,0.0,0.0,0.0,0.0,0.0,0.0,0.0,0.0,0.0,0.0,0.0,0.0,0.0,0.0,0.0,0.0,0.0,0.0,0.0,0.0,0.0,0.0,0.0,0.0,0.0,0.0,0.0,0.0,0.0,0.0,-4.248,-4.3711,-4.5039,-4.5937,-4.6269,-4.6198,-4.6047,-4.5903,-4.4902,-4.3537,0.0,0.0,0.0,0.0,0.0,0.0,0.0,0.0,0.0,0.0,0.0,0.0,0.0,0.0,0.0,0.0,0.0,0.0,0.0,0.0,0.0,0.0,0.0,0.0,0.0,0.0,0.0,0.0,0.0,0.0,0.0,0.0,0.0,0.0,0.0,0.0,0.0,0.0,0.0,0.0,0.0,0.0,-4.6367,-4.6719,0.0,0.0,0.0,-4.6289,-4.6289,0.0,0.0,0.0,0.0,0.0,0.0,0.0,0.0,0.0,0.0,0.0,0.0,0.0,0.0,0.0,0.0,0.0,0.0,0.0,0.0,0.0,0.0,0.0,0.0,0.0,0.0,0.0,0.0,0.0,0.0,0.0,0.0,0.0,0.0,0.0,0.0,0.0,0.0,0.0,0.0,0.0,0.0,0.0,0.0,0.0,0.0,0.0,0.0,0.0,0.0,0.0,0.0,0.0,0.0,0.0,0.0,0.0,-4.3398,-4.5312,-4.6289,-4.6289,-4.6268,-4.6149,-4.5928,-4.4503,0.0,0.0,0.0,0.0,0.0,0.0,0.0,0.0,0.0,0.0,0.0,0.0,0.0,0.0,0.0,0.0,0.0,0.0,0.0,0.0,0.0,0.0,0.0,0.0,0.0,0.0,0.0,-3.2395,0.0,0.0,0.0,0.0,0.0,0.0,0.0,0.0,0.0,0.0,0.0,0.0,0.0,0.0,-4.7031,-4.6387,-4.6855,-4.7031,0.0,0.0,-4.6289,-4.6289,-4.6222,-4.6144,0.0,0.0,0.0,0.0,0.0,0.0,0.0,0.0,0.0,0.0,0.0,0.0,0.0,0.0,0.0,0.0,0.0,0.0,0.0,0.0,0.0,0.0,0.0,0.0,0.0,0.0,0.0,0.0,0.0,0.0,0.0,0.0,0.0,0.0,0.0,0.0,0.0,0.0,0.0,0.0,0.0,0.0,0.0,0.0,0.0,0.0,0.0,0.0,0.0,0.0,0.0,0.0,0.0,0.0,0.0,-4.25,-4.5,-4.6289,-4.6289,-4.6175,-4.611,-4.6062,-4.5133,-4.3394,0.0,0.0,0.0,0.0,0.0,0.0,0.0,0.0,0.0,0.0,0.0,0.0,0.0,0.0,0.0,0.0,0.0,0.0,0.0,0.0,0.0,0.0,0.0,0.0,0.0,0.0,0.0,0.0,0.0,0.0,0.0,0.0,0.0,0.0,0.0,0.0,0.0,0.0,0.0,0.0,0.0,-4.6367,-4.6308,-4.6348,-4.6367,0.0,0.0,-4.6289,-4.6289,-4.6289,-4.6227,-4.6138,0.0,0.0,0.0,0.0,0.0,0.0,0.0,0.0,0.0,0.0,0.0,0.0,0.0,0.0,0.0,0.0,0.0,0.0,0.0,0.0,0.0,0.0,0.0,0.0,0.0,0.0,0.0,0.0,0.0,0.0,0.0,0.0,0.0,0.0,0.0,0.0,0.0,0.0,0.0,0.0,0.0,0.0,0.0,0.0,0.0,0.0,0.0,0.0,0.0,0.0,0.0,0.0,0.0,-4.0723,-4.2383,-4.4453,-4.5762,-4.6269,-4.6247,-4.5923,-4.5308,-4.4465,-4.2757,0.0,0.0,0.0,0.0,0.0,0.0,0.0,0.0,0.0,0.0,0.0,0.0,0.0,0.0,0.0,0.0,0.0,0.0,0.0,0.0,0.0,0.0,0.0,0.0,0.0,0.0,0.0,0.0,-3.5293,-3.5918,-3.6973,0.0,0.0,0.0,0.0,0.0,0.0,0.0,0.0,0.0,0.0,-4.6289,-4.6289,-4.6289,0.0,0.0,-4.6289,-4.6289,-4.6289,-4.6289,-4.6269,-4.6225,-4.5971,0.0,0.0,0.0,0.0,0.0,0.0,0.0,0.0,0.0,0.0,0.0,0.0,0.0,0.0,0.0,0.0,0.0,0.0,0.0,0.0,0.0,0.0,0.0,0.0,0.0,0.0,0.0,0.0,0.0,0.0,0.0,0.0,0.0,0.0,0.0,0.0,0.0,0.0,0.0,0.0,0.0,0.0,0.0,0.0,0.0,0.0,0.0,0.0,0.0,0.0,0.0,0.0,-4.0195,-4.1641,-4.3613,-4.4902,-4.5508,-4.5527,-4.5173,-4.4471,-4.3671,-4.2227,0.0,0.0,0.0,0.0,0.0,0.0,0.0,0.0,0.0,0.0,0.0,0.0,0.0,0.0,0.0,0.0,0.0,0.0,0.0,0.0,0.0,0.0,0.0,0.0,0.0,0.0,0.0,0.0,-3.6406,-3.6953,-3.8437,0.0,0.0,0.0,0.0,0.0,0.0,0.0,0.0,0.0,0.0,-4.6289,-4.6289,-4.6289,-4.6289,-4.6289,-4.6289,-4.6289,-4.6289,-4.6289,-4.6289,-4.6289,0.0,0.0,0.0,0.0,0.0,0.0,0.0,0.0,0.0,0.0,0.0,0.0,0.0,0.0,0.0,0.0,0.0,0.0,0.0,0.0,0.0,0.0,0.0,0.0,0.0,0.0,0.0,0.0,0.0,0.0,0.0,0.0,0.0,0.0,0.0,0.0,0.0,0.0,0.0,0.0,0.0,0.0,0.0,0.0,0.0,0.0,0.0,0.0,0.0,0.0,0.0,0.0,0.0,-3.9082,-3.998,-4.2461,-4.373,-4.3789,-4.3769,-4.3789,-4.3691,-4.2891,-4.1949,-4.0904,0.0,0.0,0.0,0.0,0.0,0.0,0.0,0.0,0.0,0.0,0.0,0.0,0.0,0.0,0.0,0.0,0.0,0.0,0.0,0.0,0.0,0.0,0.0,0.0,0.0,0.0,-3.7246,-3.7266,-3.7598,0.0,0.0,0.0,0.0,0.0,0.0,0.0,0.0,0.0,0.0,-4.5762,-4.6289,-4.6289,-4.6289,-4.6289,-4.6289,-4.6289,-4.6289,-4.6289,-4.6289,-4.6289,0.0,0.0,0.0,0.0,0.0,0.0,0.0,0.0,0.0,0.0,0.0,0.0,0.0,0.0,0.0,0.0,0.0,0.0,0.0,0.0,0.0,0.0,0.0,0.0,0.0,0.0,0.0,-3.9961,-3.8633,0.0,0.0,0.0,0.0,0.0,0.0,0.0,0.0,0.0,0.0,0.0,-4.1992,-4.2305,0.0,0.0,0.0,0.0,0.0,0.0,0.0,0.0,0.0,0.0,0.0,0.0,-3.9023,-3.9941,-4.1836,-4.3125,-4.3672,-4.3711,-4.3418,-4.2851,-4.2558,-4.115,-3.8549,0.0,0.0,0.0,0.0,0.0,0.0,0.0,0.0,0.0,0.0,0.0,0.0,0.0,0.0,0.0,0.0,0.0,0.0,0.0,0.0,0.0,0.0,0.0,0.0,0.0,-3.7285,0.0,0.0,0.0,0.0,0.0,0.0,0.0,0.0,0.0,0.0,0.0,-4.4883,-4.5762,-4.6113,-4.6289,-4.6289,-4.6289,-4.6289,0.0,0.0,0.0,0.0,0.0,0.0,0.0,0.0,0.0,0.0,0.0,0.0,0.0,0.0,-4.4825,-4.3229,-4.2862,-4.2692,-4.2351,0.0,0.0,0.0,0.0,0.0,0.0,0.0,0.0,0.0,0.0,0.0,0.0,0.0,0.0,-4.0566,0.0,-3.8867,0.0,0.0,0.0,0.0,0.0,0.0,0.0,0.0,-4.3242,-4.3769,-4.3769,-4.4023,-4.3594,0.0,-4.2207,-4.1328,0.0,0.0,0.0,0.0,0.0,0.0,0.0,0.0,-3.8887,-3.9492,-4.1133,-4.2246,-4.2793,-4.2832,-4.2558,-4.2012,-4.1973,-4.0761,-3.8213,-3.7265,-3.572,0.0,0.0,0.0,0.0,0.0,0.0,0.0,0.0,0.0,0.0,0.0,0.0,0.0,0.0,0.0,0.0,0.0,0.0,0.0,0.0,0.0,0.0,0.0,-3.7285,0.0,0.0,0.0,0.0,0.0,0.0,0.0,0.0,0.0,-4.4082,-4.4648,-4.5332,-4.6191,-4.6289,-4.6289,-4.6289,0.0,0.0,0.0,0.0,0.0,0.0,0.0,-4.6289,-4.6289,-4.6289,-4.6289,-4.6289,-4.6289,-4.6289,-4.6289,0.0,0.0,-4.451,-4.421,-4.4114,-4.4045,-4.4415,-4.4586,-4.4066,-4.4382,-4.4509,0.0,0.0,0.0,0.0,0.0,0.0,0.0,0.0,-4.1308,-4.125,0.0,-3.9434,0.0,0.0,0.0,0.0,0.0,0.0,0.0,0.0,-4.5273,-4.6191,-4.6133,-4.5351,-4.5,-4.4941,-4.4101,-4.3242,-4.2305,-4.0762,0.0,0.0,0.0,0.0,0.0,0.0,-3.8652,-3.873,-4.0351,-4.123,-4.123,-4.123,-4.123,-4.1211,-4.1211,-4.0781,-3.9863,-3.8913,-3.768,-3.6055,-3.5103,0.0,0.0,0.0,0.0,0.0,0.0,0.0,0.0,0.0,0.0,0.0,0.0,0.0,0.0,0.0,0.0,0.0,0.0,0.0,0.0,-3.7285,0.0,0.0,0.0,0.0,0.0,0.0,0.0,0.0,0.0,0.0,-4.5039,-4.5058,-4.5332,-4.6191,0.0,0.0,0.0,0.0,-4.6289,-4.6289,-4.6289,-4.6289,-4.6289,-4.6289,-4.6289,-4.6289,0.0,0.0,-4.6289,-4.6289,-4.6289,-4.6289,-4.6289,-4.6223,-4.5928,-4.5814,-4.5774,-4.5592,-4.5541,-4.5584,-4.5575,-4.546,-4.5267,-4.3559,0.0,0.0,0.0,0.0,-4.3125,-4.3121,-4.2928,-4.2947,-4.2305,-4.1172,-4.0684,0.0,0.0,0.0,0.0,0.0,0.0,-4.1992,-4.2773,-4.3301,-4.416,-4.5351,-4.5137,-4.5019,-4.5,-4.4746,-4.3848,-4.2422,-4.1933,-4.0508,-3.8262,0.0,0.0,0.0,0.0,-3.9531,-3.959,-4.0625,-4.1191,-4.1191,-4.1191,-4.1191,-4.1191,-4.1191,-4.0488,-3.9023,-3.9296,-3.8397,-3.6133,-3.5761,0.0,0.0,0.0,0.0,0.0,0.0,0.0,0.0,0.0,0.0,0.0,0.0,0.0,0.0,0.0,0.0,0.0,0.0,0.0,-3.7226,-3.7285,-3.7812,0.0,0.0,0.0,0.0,0.0,0.0,0.0,0.0,0.0,-4.584,-4.5937,-4.6035,0.0,0.0,-4.6289,-4.6289,-4.6289,-4.6289,-4.6289,0.0,0.0,0.0,-4.6289,-4.6289,-4.6289,-4.6289,-4.6289,-4.6289,-4.6289,-4.6289,-4.6289,-4.6289,-4.6247,-4.6084,-4.6042,-4.5981,-4.5846,-4.5777,-4.5715,-4.5618,-4.5594,-4.5344,-4.469,-4.4232,-4.3622,-4.3391,-4.3454,-4.3854,-4.3875,-4.3626,-4.395,-4.3367,-4.2168,-4.1813,-4.0895,-3.9609,-3.9277,0.0,0.0,0.0,-4.1953,-4.2422,-4.2773,-4.3476,-4.4453,-4.4492,-4.4492,-4.4453,-4.4141,-4.3418,-4.2383,-4.207,-4.0976,-3.918,0.0,0.0,-3.7871,-3.9199,-3.9883,-3.9941,-4.0762,-4.1191,-4.1191,-4.1191,-4.1191,-4.1191,-4.0859,-4.0176,-3.916,-3.9277,-3.8672,-3.709,-3.6699,-3.5879,0.0,0.0,0.0,0.0,0.0,0.0,0.0,0.0,0.0,0.0,0.0,-3.6562,-3.4844,0.0,0.0,0.0,-3.6523,-3.7402,-3.8242,-3.8652,0.0,0.0,0.0,0.0,0.0,0.0,0.0,-4.5605,-4.5625,-4.5703,-4.623,-4.6289,-4.6289,-4.6289,-4.6289,-4.6289,-4.6289,0.0,-4.6289,-4.6289,-4.6289,-4.6289,-4.6289,-4.6289,-4.6289,-4.6289,-4.6289,-4.6289,-4.6289,-4.6289,-4.6289,-4.6289,-4.6289,-4.6171,-4.575,-4.5668,-4.5581,-4.5409,-4.56,-4.5548,-4.4809,-4.4844,-4.4844,-4.5594,-4.5475,-4.4128,-4.3573,-4.3656,-4.4452,-4.4417,-4.3841,-4.4433,-4.4317,-4.3611,-4.2708,-4.1876,-4.1152,-4.0371,0.0,0.0,-4.1601,-4.2285,-4.2324,-4.3144,-4.3555,-4.3594,-4.3594,-4.3594,-4.3594,-4.2793,-4.2363,-4.2266,-4.1562,-4.0781,-4.0019,-4.0,-3.957,-3.8809,-3.957,-4.0,-4.0,-4.0781,-4.1191,-4.1191,-4.1191,-4.1172,-4.1094,-4.0312,-3.9824,-3.9687,-3.8984,-3.8574,-3.8476,-3.7734,-3.6894,-3.6016,0.0,0.0,0.0,0.0,0.0,0.0,0.0,0.0,0.0,0.0,0.0,0.0,0.0,0.0,0.0,-3.8242,0.0,-4.0019,-4.082,0.0,0.0,0.0,-4.2637,-4.2715,-4.4121,-4.5098,-4.5098,0.0,0.0,0.0,0.0,-4.6289,-4.6289,-4.6289,-4.6289,-4.6289,-4.6289,-4.6289,-4.6289,-4.6289,-4.6289,-4.6289,-4.6289,-4.6289,-4.6289,-4.6289,-4.6289,-4.6269,-4.6172,-4.6191,-4.6152,-4.6133,-4.584,-4.5039,-4.4883,-4.4771,-4.4365,-4.4981,-4.5073,-4.3644,-4.3761,-4.3965,-4.5594,-4.5565,-4.5232,-4.5079,-4.5113,-4.5415,-4.5431,-4.5257,-4.486,-4.4238,-4.3422,-4.2641,-4.1898,-4.1191,-4.0976,-4.0898,-4.0918,-4.1308,-4.1484,-4.1504,-4.1699,-4.2109,-4.2695,-4.2695,-4.2715,-4.2695,-4.25,-4.207,-4.1504,-4.1289,-4.1094,-4.0898,-4.0898,-4.0449,-3.9648,-4.0449,-4.0879,-4.0879,-4.1094,-4.1191,-4.1191,-4.1191,-4.0879,-4.0215,-4.0,-3.9277,-3.8008,-3.8359,-3.8301,-3.7656,-3.7422,-3.6894,-3.6035,-3.4336,0.0,0.0,0.0,0.0,0.0,0.0,0.0,0.0,0.0,-3.7969,-3.4922,0.0,-3.9004,0.0,-3.9687,-4.0918,-4.1719,-4.1992,0.0,0.0,-4.4258,-4.4648,-4.5293,-4.5742,-4.5996,-4.5996,-4.6172,-4.6289,-4.6289,-4.6289,-4.6289,-4.6289,-4.6289,-4.6289,-4.6289,-4.6289,-4.6289,-4.6289,-4.6289,-4.6289,-4.6289,-4.6289,-4.6269,-4.6289,-4.6289,-4.6289,-4.6289,-4.5742,-4.5312,-4.5273,-4.4746,-4.4277,-4.4043,-4.4023,-4.3711,-4.3063,-4.35,-4.3973,-4.3311,-4.3343,-4.3185,-4.5594,-4.5594,-4.5594,-4.5594,-4.5603,-4.568,-4.5747,-4.5745,-4.4892,-4.4101,-4.3315,-4.2163,-4.1406,-4.1023,-4.1023,-4.1073,-4.1105,-4.1125,-4.1149,-4.1191,-4.1191,-4.1445,-4.1855,-4.1875,-4.1855,-4.1875,-4.1875,-4.1641,-4.1211,-4.1191,-4.1191,-4.1191,-4.1191,-4.0957,-4.0527,-4.0957,-4.1191,-4.1191,-4.1191,-4.1191,-4.1191,-4.1191,-4.0801,-3.9941,-3.9512,-3.8691,-3.7344,-3.7754,-3.7793,-3.7324,-3.7285,-3.709,-3.6582,-3.4941,-3.3789,0.0,0.0,0.0,0.0,0.0,0.0,0.0,0.0,0.0,0.0,0.0,-4.043,0.0,-4.1523,0.0,-4.3476,-4.3906,-4.4531,-4.5488,-4.5566,-4.5781,-4.625,-4.6289,-4.6289,-4.6289,-4.6289,-4.6289,-4.6289,-4.6289,-4.6289,-4.6289,-4.6289,-4.6289,-4.6289,-4.6289,-4.6289,-4.6289,-4.6289,-4.6289,-4.6289,-4.5976,-4.5723,-4.5683,-4.5391,-4.5137,-4.5137,-4.4766,-4.4433,-4.4375,-4.4004,-4.3555,-4.3203,-4.3125,-4.2832,-4.2161,-4.2194,-4.2392,-4.2204,-4.2404,-4.2402,-4.5594,-4.5594,-4.5594,-4.5594,-4.5594,-4.5594,-4.5684,-4.5698,-4.4619,-4.3722,-4.2959,-4.1438,-4.0805,-4.0797,-4.0797,-4.0864,-4.0964,-4.0986,-4.1051,-4.119,-4.1171,-4.1191,-4.1191,-4.1191,-4.1191,-4.1191,-4.1191,-4.1191,-4.1191,-4.1191,-4.1191,-4.1191,-4.1191,-4.1191,-4.1191,-4.1094,-4.1094,-4.1191,-4.1191,-4.1191,-4.1191,-4.1191,-4.0723,-3.9766,-3.9004,-3.8125,-3.7187,-3.7129,-3.7187,-3.7285,-3.7187,-3.7187,-3.7246,-3.5644,-3.4766,0.0,-3.4766,0.0,0.0,0.0,0.0,0.0,0.0,0.0,0.0,-4.0547,-4.1992,-4.2676,-4.3516,-4.4336,-4.5098,-4.5859,-4.6289,-4.6289,-4.6289,-4.6289,-4.6289,-4.6289,-4.6289,-4.6289,-4.6289,-4.6289,-4.6289,-4.6289,-4.6289,-4.6289,-4.6289,-4.623,-4.6133,-4.6211,-4.6289,-4.6289,-4.6191,-4.5976,-4.5801,-4.5273,-4.4844,-4.4746,-4.4316,-4.3711,-4.3808,-4.3652,-4.3535,-4.3516,-4.3379,-4.3066,-4.2363,-4.2246,-4.2012,-4.1387,-4.1191,-4.1074,-4.0994,-4.1276,-4.1443,-4.5594,-4.5594,-4.5594,-4.5594,-4.5594,-4.5594,-4.562,-4.5539,-4.3987,-4.2524,-4.1208,-4.0859,-4.0747,-4.0797,-4.0797,-4.0809,-4.0847,-4.0847,-4.0914,-4.1048,-4.1028,-4.1102,-4.1191,-4.1191,-4.1191,-4.1191,-4.1191,-4.1191,-4.1191,-4.1191,-4.1191,-4.1191,-4.1191,-4.1191,0.0,0.0,0.0,0.0,-4.1191,-4.1191,-4.1191,-4.1191,-4.0449,-3.8906,-3.8691,0.0,-3.6348,-3.625,-3.6582,-3.7226,-3.6641,0.0,0.0,0.0,0.0,0.0,0.0,0.0,0.0,0.0,0.0,0.0,-3.9648,-3.9668,-3.9746,-4.248,-4.4336,-4.4531,-4.5293,-4.5879,-4.6035,-4.6172,-4.6289,-4.6289,-4.6289,-4.6289,-4.6289,-4.6289,-4.6289,-4.6289,-4.6289,-4.6289,-4.6289,-4.6289,-4.6289,-4.625,-4.6289,-4.6016,-4.5312,-4.582,-4.6269,-4.625,-4.5664,-4.5,-4.4297,-4.4082,-4.3945,-4.3906,-4.3848,-4.3672,-4.3574,-4.3047,-4.2656,-4.2637,-4.2129,-4.1699,-4.1445,-4.1426,-4.1367,-4.1211,-4.0625,-4.031,-4.0816,-4.0455,-4.0187,-4.5594,0.0,-4.5594,-4.5594,0.0,-4.5143,-4.4951,-4.4855,-4.3643,-4.216,-4.0615,-4.0596,-4.063,-4.067,-4.0651,-4.069,-4.0747,-4.0747,-4.0816,-4.0886,-4.0908,-4.0928,-4.0996,-4.0996,-4.0996,-4.0998,-4.0648,-4.0693,-4.1046,-4.0292,-4.0137,-4.0547,-4.0566,-4.0332,-3.9902,-3.9492,-3.9687,-4.0547,-4.0547,-4.0547,-4.0566,-4.0976,-4.0156,-3.8066,0.0,0.0,0.0,0.0,0.0,0.0,0.0,0.0,0.0,0.0,0.0,-3.6582,-3.6621,-3.7207,-3.8476,-3.8965,-3.9609,-4.0469,-4.0918,-4.1328,-4.1738,-4.3379,-4.4726,-4.5566,-4.6055,-4.6289,-4.6289,-4.6289,-4.6289,-4.6289,-4.6289,-4.6289,-4.6289,-4.6289,-4.6289,-4.6289,-4.6289,-4.6289,-4.6289,-4.5898,-4.5664,-4.5625,-4.5273,-4.4883,-4.4551,-4.5098,-4.5527,-4.5098,-4.4707,-4.4219,-4.3789,-4.3281,-4.3047,-4.3027,-4.2715,-4.25,-4.2461,-4.2109,-4.1816,-4.1777,-4.1465,-4.1094,-4.0644,-4.0566,-4.043,-4.0,-3.957,-3.9355,-3.9717,-3.9373,-3.9091,-4.5594,-4.5594,-4.5594,-4.5518,-4.5306,-4.4586,-4.4124,-4.3816,0.0,0.0,0.0,-4.0496,-4.0496,-4.0496,-4.0496,-4.0559,-4.0655,-4.0681,-4.0704,-4.0788,-4.0768,-4.0781,-4.0797,-4.0797,-4.0723,-4.0552,-3.9978,-3.9967,-4.0459,-3.919,-3.8925,-3.9589,-3.9668,-3.9219,-3.8418,-3.8379,-3.873,-3.9414,-3.9609,-3.9668,-3.9687,-4.0351,-3.9648,-3.7363,-3.7988,-3.7617,-3.6055,-3.6152,-3.6309,-3.6445,-3.6309,-3.6289,-3.6445,-3.6309,-3.6621,-3.748,-3.834,-3.9199,-4.0078,-4.0781,-4.1191,-4.1191,-4.1796,-4.2577,-4.3592,-4.3827,-4.4549,-4.6088,-4.6247,-4.625,-4.6249,-4.6269,-4.6268,-4.6268,-4.6247,-4.6191,-4.6035,-4.603,-4.5898,-4.5835,-4.5723,-4.582,-4.5723,-4.5176,-4.4766,-4.4687,-4.4258,-4.3594,-4.3613,-4.4219,-4.4473,-4.373,-4.3496,-4.3418,-4.3164,-4.2676,-4.2226,-4.2168,-4.166,-4.1172,-4.1016,-4.1094,-4.1074,-4.0684,-4.082,-4.0566,-3.9883,-3.9668,-3.9414,-3.875,-3.8457,-3.8359,-3.834,-3.8156,-3.8044,-4.5594,-4.5594,-4.5594,-4.5163,-4.447,-4.4355,-4.3489,-4.2154,-4.2038,-4.1412,-4.0516,-4.0496,-4.0496,-4.0496,-4.0496,-4.0512,-4.0534,-4.0534,-4.0596,0.0,-4.0713,-4.0738,-4.0797,-4.0797,-4.0431,-3.9813,-3.9652,-3.9292,-3.8705,-3.8508,-3.8491,-3.8612,-3.8708,-3.834,-3.7559,-3.748,-3.7539,-3.7676,-3.8418,-3.8789,-3.8789,-3.8887,-3.8437,-3.7383,-3.7422,-3.7031,-3.6074,-3.6699,-3.748,-3.8164,-3.7519,-3.7441,-3.8144,-3.75,-3.7519,-3.8359,-3.9219,-4.0098,-4.0937,-4.1133,-4.1191,-4.1191,-4.12,-4.1883,-4.3462,-4.4263,-4.5004,-4.5864,-4.6033,-4.612,-4.614,-4.612,-4.6081,-4.6097,-4.6011,-4.5694,-4.5027,-4.4972,-4.4718,-4.4046,-4.3892,-4.4036,-4.4115,-4.3959,-4.3867,-4.3867,-4.3594,-4.3379,-4.2851,-4.334,-4.3457,-4.2812,-4.2578,-4.2285,-4.1875,-4.1504,-4.1367,-4.1367,-4.1211,-4.0762,-4.0195,-4.0566,-4.0508,-3.9277,-3.9648,-3.9687,-3.8965,-3.8789,-3.8652,-3.8398,-3.791,-3.75,-3.7461,-3.6973,-3.6855,-4.5594,-4.5537,-4.5094,-4.4662,-4.422,-4.3335,-4.2239,-4.1143,-4.1104,-4.0873,-4.0516,-4.0496,-4.0496,-4.0496,-4.0496,-4.0496,-4.0496,-4.0496,-4.0523,-4.0582,-4.0589,-4.0591,-4.0602,-4.0202,-3.9795,-3.9414,-3.8544,-3.817,-3.8173,-3.7384,-3.7188,-3.7561,-3.7236,-3.7051,-3.7092,-3.668,-3.6477,-3.6571,-3.7421,-3.7891,-3.791,-3.8359,-3.7969,-3.6641,-3.7031,-3.6894,-3.6035,-3.6387,-3.6777,-3.7168,-3.6816,-3.6757,-3.71,-3.7245,-3.7633,-3.8401,-3.9276,-4.0156,-4.0931,-4.0968,-4.0988,-4.0968,-4.0922,-4.1406,-4.2633,-4.3097,-4.387,-4.5114,-4.5289,-4.5527,-4.5914,-4.5602,-4.5352,-4.5332,-4.529,-4.4895,-4.4238,-4.4452,-4.4355,-4.3584,-4.3442,-4.3487,-4.3484,-4.3102,-4.2879,-4.2895,-4.2653,-4.2146,-4.1628,-4.1913,-4.2142,-4.1836,-4.1758,-4.1621,-4.123,-4.0762,-4.0547,-4.0488,-4.0098,-3.9687,-3.9258,-3.9609,-3.9394,-3.8809,-3.8945,-3.8809,-3.8066,-3.791,-3.7715,-3.7207,-3.6934,-3.6621,-3.6523,-3.625,-3.6309,-4.5594,-4.5518,-4.4662,-4.4085,-4.3624,-4.2143,-4.1123,-4.0535,-4.0516,-4.0496,-4.0496,-4.0496,-4.0496,-4.0496,-4.0496,-4.0496,-4.0496,-4.0496,-4.0496,-4.0496,-4.0496,-4.04,-4.0189,-3.9573,-3.9104,-3.8638,-3.7437,-3.711,-3.739,-3.6278,-3.602,-3.6586,-3.6018,-3.6057,-3.6683,-3.6038,-3.5758,-3.5886,-3.659,-3.6972,-3.7031,-3.7676,-3.7363,-3.6172,-3.6641,-3.668,-3.6055,-3.6191,-3.6289,-3.6268,-3.6268,-3.624,-3.6165,-3.6817,-3.7471,-3.8027,-3.9057,-4.0015,-4.0711,-4.0607,-4.0607,-4.0797,-4.0796,-4.1029,-4.1592,-4.1726,-4.2461,-4.4001,-4.4331,-4.4622,-4.5026,-4.472,-4.437,-4.437,-4.4341,-4.3966,-4.3277,-4.3632,-4.3709,-4.2937,-4.2766,-4.276,-4.2687,-4.2213,-4.1893,-4.1854,-4.1462,-4.1002,-4.0646,-4.0749,-4.0916,-4.0631,-4.0696,-4.0801,-4.0794,-4.0117,-3.9629,-3.9569,-3.9082,-3.8672,-3.8476,-3.8437,-3.8301,-3.8125,-3.8144,-3.793,-3.7246,-3.7012,-3.6758,-3.6289,-3.6152,-3.6074,-3.6074,-3.5586,-3.5625,-4.5594,-4.546,-4.4624,-4.3412,-4.2008,-4.1046,-4.0593,-4.0496,-4.0496,-4.0496,-4.0496,-4.0496,-4.0496,-4.0496,-4.0496,-4.0496,-4.0496,-4.0496,-4.0496,-4.0496,-4.0496,-4.0131,-3.9469,-3.9304,-3.8469,-3.7142,-3.6778,-3.6375,-3.59,-3.5698,-3.5706,-3.5813,-3.5723,-3.5735,-3.5817,-3.5739,-3.5707,-3.5717,-3.5923,-3.6061,-3.6113,-3.6191,-3.6152,-3.6035,-3.6074,-3.6094,-3.5996,-3.6777,-3.7145,-3.7105,-3.7042,-3.7002,-3.6884,-3.6982,-3.7056,-3.7193,-3.8675,-3.9956,-4.0642,-4.0128,-4.0042,-4.0715,-4.0752,-4.0754,-4.084,-4.0731,-4.1378,-4.2811,-4.3285,-4.3406,-4.3451,-4.3393,-4.3354,-4.3348,-4.3303,-4.2892,-4.2179,-4.2006,-4.1724,-4.0865,-4.1081,-4.0959,-4.1125,-4.1,-4.091,-4.0817,-4.0666,-4.0354,-3.9836,-4.0159,-4.0112,-3.9182,-3.9205,-3.9672,-3.9649,-3.9065,-3.8624,-3.8551,-3.8549,-3.8144,-3.7734,-3.791,-3.8184,-3.7012,-3.6992,-3.707,-3.6543,-3.6133,-3.6172,-3.6055,-3.5957,-3.5937,-3.5801,-3.4844,-3.4414,-4.5287,-4.4739,-4.3932,-4.2604,-4.1085,-4.065,-4.0496,-4.0496,-4.0496,-4.0496,-4.0496,-4.0496,-4.0496,-4.0496,-4.0496,-4.0496,-4.0496,-4.0496,-4.0496,-4.0458,-4.0015,-3.9631,-3.9246,-3.82,-3.7346,-3.6699,-3.6231,-3.5808,-3.5552,-3.5522,-3.557,-3.5582,-3.5588,-3.5588,-3.5588,-3.5588,-3.5611,-3.5648,-3.5694,-3.5762,-3.5832,-3.5932,-3.6016,-3.5996,-3.5952,-3.5945,-3.5962,-3.6238,-3.6328,-3.6323,-3.632,-3.6265,-3.6185,-3.6693,-3.6942,-3.6917,-3.7959,-3.9023,-3.9849,-3.9603,-3.9758,-4.0565,-4.0597,-4.0588,-4.0588,-4.0542,-4.0862,-4.1447,-4.2036,-4.2563,-4.2995,-4.2678,-4.2389,-4.2355,-4.2345,-4.1989,-4.1143,-4.1489,-4.147,-4.065,-4.0545,-4.0595,-4.0519,-4.0219,-3.9765,-3.9351,-3.9248,-3.917,-3.8769,-3.9023,-3.8903,-3.8316,-3.8042,-3.8185,-3.8583,-3.8134,-3.7703,-3.7597,-3.7283,-3.6787,-3.6797,-3.6758,-3.6738,-3.6074,-3.6367,-3.6465,-3.6133,-3.6016,-3.6016,-3.5859,-3.5391,-3.5098,-3.459,-3.3906,-3.3867,-4.5094,-4.4201,-4.3201,-4.1893,-4.0535,-4.0496,-4.0496,-4.0496,-4.0496,-4.0496,-4.0496,-4.0496,-4.0496,-4.0496,-4.0496,-4.0496,-4.0496,-4.0496,-4.0496,-4.04,-3.9669,-3.9188,-3.8815,-3.743,-3.6577,-3.6288,-3.5788,-3.55,-3.55,-3.55,-3.55,-3.55,-3.55,-3.55,-3.55,-3.55,-3.5522,-3.5579,-3.5585,-3.5621,-3.5698,-3.5834,-3.5908,-3.5907,-3.5862,-3.5843,-3.5841,-3.5738,-3.5693,-3.5687,-3.5663,-3.5633,-3.5607,-3.6217,-3.6609,-3.6715,-3.7065,-3.7815,-3.8834,-3.8719,-3.9053,-4.0015,-4.0169,-4.0285,-4.0458,-4.0496,-4.0496,-4.0593,-4.1066,-4.1747,-4.2162,-4.1816,-4.147,-4.145,-4.145,-4.1143,-4.0669,-4.1104,-4.1181,-4.0612,-4.0504,-4.04,-4.0134,-3.9495,-3.8788,-3.8272,-3.8197,-3.8016,-3.7809,-3.7919,-3.8028,-3.7432,-3.6918,-3.7083,-3.7642,-3.7175,-3.6774,-3.6621,-3.6253,-3.6036,-3.5951,-3.5976,-3.6016,-3.6016,-3.6016,-3.5801,-3.5527,-3.5547,-3.5449,-3.5176,-3.4629,-3.4023,-3.373,-3.3144,-3.2988,-4.5094,-4.4085,-4.2547,-4.1335,-4.0496,-4.0496,-4.0496,-4.0496,-4.0496,-4.0496,-4.0496,-4.0496,-4.0496,-4.0496,-4.0496,-4.0496,-4.0496,-4.0496,-4.0496,-4.0419,-3.9631,-3.8842,-3.8027,-3.7123,-3.6288,-3.5692,-3.5577,-3.55,-3.55,-3.55,-3.55,-3.55,-3.55,-3.55,-3.55,-3.55,-3.5488,-3.5509,-3.5568,-3.5605,-3.5611,-3.5663,-3.5717,-3.5717,-3.5713,-3.571,-3.571,-3.5707,-3.5659,-3.5621,-3.5601,-3.5571,-3.5521,-3.5572,-3.5938,-3.6481,-3.6038,-3.6392,-3.77,-3.7392,-3.7642,-3.9065,-3.9457,-3.9708,-4.0419,-4.0496,-4.0496,-4.0496,-4.0593,-4.0727,-4.0785,-4.0804,-4.0681,-4.065,-4.0612,-4.0573,-4.0516,-4.0593,-4.0573,-4.0496,-4.0419,-4.0015,-3.9381,-3.8611,-3.8075,-3.7841,-3.7928,-3.7658,-3.7035,-3.7425,-3.7175,-3.6379,-3.625,-3.6706,-3.6709,-3.6352,-3.5906,-3.5842,-3.5926,-3.5758,-3.5841,-3.5898,-3.5925,-3.5915,-3.582,-3.5527,-3.5,-3.459,-3.4316,-3.3906,-3.3242,-3.2754,-3.2773,-3.1836,-3.1738,-4.3951,-4.2624,-4.145,-4.0777,-4.0516,-4.0496,-4.0496,-4.0496,-4.0496,-4.0496,-4.0496,-4.0496,-4.0496,-4.0496,-4.0496,-4.0496,-4.0496,-4.0496,-4.0496,-4.0342,-3.9104,-3.8315,-3.7892,-3.6603,-3.5808,-3.5538,-3.55,-3.55,-3.55,-3.55,-3.55,-3.55,-3.55,-3.55,-3.55,-3.55,-3.55,-3.5488,-3.5534,-3.5534,-3.5547,-3.5575,-3.5566,-3.5571,-3.5621,-3.5639,-3.5639,-3.56,-3.5556,-3.554,-3.554,-3.5528,-3.5488,-3.55,-3.5615,-3.5846,-3.5654,-3.5981,-3.6942,-3.6885,-3.745,-3.9046,-3.9304,-3.9592,-4.0304,-4.0496,-4.0496,-4.0496,-4.0496,-4.0496,-4.0496,-4.0496,-4.0496,-4.0496,-4.0496,-4.0496,-4.0496,-4.0496,-4.0496,-4.0419,-4.0073,-3.9207,-3.8065,-3.7353,-3.6981,-3.6519,-3.6404,-3.6288,-3.6096,-3.6231,-3.6199,-3.575,-3.5731,-3.5923,-3.5942,-3.5778,-3.5565,-3.5604,-3.5635,-3.5659,-3.5717,-3.5666,-3.5675,-3.5464,-3.5416,-3.5,-3.4355,-3.3809,-3.3457,-3.2851,-3.2148,-3.1953,-3.1816,-3.1289,-3.1289,-4.2835,-4.1758,-4.0854,-4.0496,-4.0496,-4.0496,-4.0496,-4.0496,-4.0496,-4.0496,-4.0496,-4.0496,-4.0496,-4.0496,-4.0496,-4.0496,-4.0496,-4.0496,-4.0362,-3.9996,-3.8642,-3.7873,-3.7392,-3.6154,-3.55,-3.55,-3.55,-3.55,-3.55,-3.55,-3.55,-3.55,-3.55,-3.55,-3.55,-3.55,-3.55,-3.55,-3.55,-3.55,-3.55,-3.55,-3.55,-3.5501,-3.554,-3.5574,-3.5574,-3.5528,-3.55,-3.55,-3.55,-3.55,-3.55,-3.55,-3.55,-3.55,-3.55,-3.5731,-3.6212,-3.6308,-3.6923,-3.8277,-3.8469,-3.8873,-3.9919,-4.0112,-4.0208,-4.04,-4.0496,-4.0496,-4.0496,-4.0496,-4.0496,-4.0496,-4.0496,-4.0496,-4.0477,-4.0246,-3.9958,-3.9554,-3.8873,-3.7911,-3.6962,-3.6519,-3.6115,-3.5558,-3.55,-3.55,-3.55,-3.55,-3.55,-3.55,-3.5519,-3.5558,-3.5615,-3.5566,-3.5521,-3.5552,-3.556,-3.5568,-3.5342,-3.5337,-3.5191,-3.5003,-3.4674,-3.4224,-3.3711,-3.3105,-3.2539,-3.1934,-3.166,-3.1445,-3.1269,-3.1055,-3.1113,-4.1788,-4.1623,-4.0835,-4.0496,-4.0496,-4.0496,-4.0496,-4.0496,-4.0496,-4.0496,-4.0496,-4.0496,-4.0496,-4.0496,-4.0496,-4.0496,-4.0496,-4.0419,-4.0035,-3.9361,-3.8354,-3.7488,-3.6769,-3.5923,-3.55,-3.55,-3.55,-3.55,-3.55,-3.55,-3.55,-3.55,-3.55,-3.55,-3.55,-3.55,-3.55,-3.55,-3.55,-3.55,-3.55,-3.55,-3.55,-3.55,-3.5501,-3.5508,-3.5494,-3.5488,-3.55,-3.55,-3.55,-3.55,-3.55,-3.55,-3.55,-3.55,-3.55,-3.5519,-3.5538,-3.5596,-3.6,-3.6834,-3.6846,-3.7642,-3.8977,-3.9284,-3.9573,-4.0189,-4.0381,-4.0419,-4.0477,-4.0419,-4.0419,-4.0496,-4.0496,-4.0496,-4.0362,-3.9785,-3.895,-3.82,-3.745,-3.6788,-3.6538,-3.6077,-3.5615,-3.5538,-3.55,-3.55,-3.55,-3.55,-3.55,-3.55,-3.55,-3.55,-3.55,-3.5481,-3.5488,-3.5501,-3.5483,-3.545,-3.4867,-3.4647,-3.4363,-3.4133,-3.3667,-3.3204,-3.2512,-3.1973,-3.168,-3.1211,-3.1074,-3.1094,-3.0996,-3.0918,-3.0918,-4.0912,-4.0881,-4.0631,-4.0496,-4.0496,-4.0496,-4.0496,-4.0496,-4.0496,-4.0496,-4.0496,-4.0496,-4.0496,-4.0496,-4.0496,-4.0496,-4.0458,-3.9958,-3.9534,-3.9053,-3.7796,-3.6981,-3.6577,-3.5865,-3.55,-3.55,-3.55,-3.55,-3.55,-3.55,-3.55,-3.55,-3.55,-3.55,-3.55,-3.55,-3.55,-3.55,-3.55,-3.55,-3.55,-3.55,-3.55,-3.55,-3.55,-3.55,-3.55,-3.55,-3.55,-3.55,-3.55,-3.55,-3.55,-3.55,-3.55,-3.55,-3.55,-3.55,-3.55,-3.5519,-3.5846,-3.65,-3.6692,-3.7231,-3.82,-3.8411,-3.8796,-3.9515,-3.9688,-3.9861,-4.0285,-3.9977,-3.99,-4.0419,-4.0496,-4.0381,-4.0189,-3.9688,-3.8661,-3.7411,-3.6865,-3.6481,-3.6,-3.5558,-3.5519,-3.55,-3.55,-3.55,-3.55,-3.55,-3.55,-3.55,-3.55,-3.55,-3.55,-3.55,-3.55,-3.55,-3.5488,-3.5007,-3.4416,-3.4,-3.3683,-3.3106,-3.2647,-3.2176,-3.147,-3.1113,-3.0937,-3.0918,-3.0976,-3.0957,-3.0937,-3.0918,-3.0918,-4.0496,-4.0496,-4.0496,-4.0496,-4.0496,-4.0496,-4.0496,-4.0496,-4.0496,-4.0496,-4.0496,-4.0496,-4.0496,-4.0496,-4.0496,-4.0323,-3.9996,-3.9188,-3.8623,-3.8257,-3.7334,-3.6577,-3.6269,-3.5769,-3.55,-3.55,-3.55,-3.55,-3.55,-3.55,-3.55,-3.55,-3.55,-3.55,-3.55,-3.55,-3.55,-3.55,-3.55,-3.55,-3.55,-3.55,-3.55,-3.55,-3.55,-3.55,-3.55,-3.55,-3.55,-3.55,-3.55,-3.55,-3.55,-3.55,-3.55,-3.55,-3.55,-3.55,-3.55,-3.55,-3.5692,-3.6154,-3.625,-3.6635,-3.7315,-3.7507,-3.7911,-3.8642,-3.8815,-3.9015,-3.9361,-3.9161,-3.9092,-3.9477,-3.9508,-3.9419,-3.9123,-3.8642,-3.7777,-3.6615,-3.6212,-3.5981,-3.5654,-3.55,-3.55,-3.55,-3.55,-3.55,-3.55,-3.55,-3.55,-3.55,-3.55,-3.55,-3.55,-3.55,-3.55,-3.55,-3.5481,-3.468,-3.3904,-3.3589,-3.3271,-3.2179,-3.1514,-3.1471,-3.0897,-3.0901,-3.0801,-3.084,-3.0898,-3.0918,-3.0918,-3.0918,-3.0918,-4.0496,-4.0496,-4.0496,-4.0496,-4.0496,-4.0496,-4.0496,-4.0496,-4.0496,-4.0496,-4.0496,-4.0496,-4.0496,-4.0496,-4.0381,-3.9977,-3.9238,-3.8315,-3.7584,-3.7065,-3.6584,-3.6212,-3.5673,-3.5538,-3.55,-3.55,-3.55,-3.55,-3.55,-3.55,-3.55,-3.55,-3.55,-3.55,-3.55,-3.55,-3.55,-3.55,-3.55,-3.55,-3.55,-3.55,-3.55,-3.55,-3.55,-3.55,-3.55,-3.55,-3.55,-3.55,-3.55,-3.55,-3.55,-3.55,-3.55,-3.55,-3.55,-3.55,-3.55,-3.55,-3.5538,-3.5596,-3.5654,-3.5788,-3.65,-3.6673,-3.7,-3.7815,-3.793,-3.7988,-3.8123,-3.7988,-3.7969,-3.7873,-3.8142,-3.7911,-3.6969,-3.6865,-3.6558,-3.5865,-3.5519,-3.55,-3.55,-3.55,-3.55,-3.55,-3.55,-3.55,-3.55,-3.55,-3.55,-3.5481,-3.5481,-3.55,-3.5481,-3.5064,-3.5026,-3.493,-3.4872,-3.4122,-3.3276,-3.291,-3.2455,-3.139,-3.0819,-3.0701,-3.0662,-3.0698,-3.0744,-3.082,-3.0859,-3.0898,-3.0918,-3.0898,-3.0898,-4.0496,-4.0496,-4.0496,-4.0496,-4.0496,-4.0496,-4.0496,-4.0496,-4.0496,-4.0496,-4.0496,-4.0496,-4.0496,-4.0439,-3.9881,-3.9496,-3.895,-3.7738,-3.6988,-3.6635,-3.6038,-3.575,-3.5538,-3.55,-3.55,-3.55,-3.55,-3.55,-3.55,-3.55,-3.55,-3.55,-3.55,-3.55,-3.55,-3.55,-3.55,-3.55,-3.55,-3.55,-3.55,-3.55,-3.55,-3.55,-3.55,-3.55,-3.55,-3.55,-3.55,-3.55,-3.55,-3.55,-3.55,-3.55,-3.55,-3.55,-3.55,-3.55,-3.55,-3.55,-3.55,-3.55,-3.55,-3.5577,-3.575,-3.5827,-3.6212,-3.6846,-3.7058,-3.7288,-3.77,-3.7411,-3.6885,-3.6404,-3.718,-3.7526,-3.6865,-3.6673,-3.6385,-3.5673,-3.55,-3.55,-3.55,-3.55,-3.55,-3.55,-3.55,-3.55,-3.55,-3.5327,-3.5269,-3.5423,-3.5462,-3.5481,-3.5327,-3.4814,-3.4487,-3.4321,-3.3987,-3.3372,-3.2564,-3.1948,-3.1358,-3.0538,-3.0617,-3.0568,-3.0578,-3.0608,-3.0695,-3.0761,-3.082,-3.084,-3.0879,-3.0898,-3.0898,-4.0496,-4.0496,-4.0496,-4.0496,-4.0496,-4.0496,-4.0496,-4.0496,-4.0496,-4.0496,-4.0496,-4.0496,-4.0496,-4.0419,-3.9688,-3.9084,-3.8604,-3.7334,-3.6558,-3.6135,-3.5731,-3.5519,-3.55,-3.55,-3.55,-3.55,-3.55,-3.55,-3.55,-3.55,-3.55,-3.55,-3.55,-3.55,-3.55,-3.55,-3.55,-3.55,-3.55,-3.55,-3.55,-3.55,-3.55,-3.55,-3.55,-3.55,-3.55,-3.55,-3.55,-3.55,-3.55,-3.55,-3.55,-3.55,-3.55,-3.55,-3.55,-3.55,-3.55,-3.55,-3.55,-3.55,-3.55,-3.55,-3.5519,-3.55,-3.5788,-3.6115,-3.6192,-3.6442,-3.6712,-3.6481,-3.6019,-3.5769,-3.6385,-3.6738,-3.625,-3.6154,-3.5981,-3.5635,-3.55,-3.55,-3.55,-3.55,-3.55,-3.55,-3.55,-3.55,-3.5462,-3.5218,-3.4949,-3.4949,-3.4692,-3.4449,-3.4334,-3.393,-3.3603,-3.3449,-3.3006,-3.2429,-3.2,-3.1269,-3.0833,-3.0433,-3.0441,-3.0467,-3.0517,-3.0561,-3.0606,-3.0672,-3.0747,-3.0785,-3.0811,-3.0834,-3.0836,-4.0496,-4.0496,-4.0496,-4.0496,-4.0496,-4.0496,-4.0496,-4.0496,-4.0496,-4.0496,-4.0496,-4.0496,-4.0496,-4.0439,-3.9457,-3.8726,-3.7988,-3.6942,-3.6192,-3.575,-3.55,-3.55,-3.55,-3.55,-3.55,-3.55,-3.55,-3.55,-3.55,-3.55,-3.55,-3.55,-3.55,-3.55,-3.55,-3.55,-3.55,-3.55,-3.55,-3.55,-3.55,-3.55,-3.55,-3.55,-3.55,-3.55,-3.55,-3.55,-3.55,-3.55,-3.55,-3.55,-3.55,-3.55,-3.55,-3.55,-3.55,-3.55,-3.55,-3.55,-3.55,-3.55,-3.55,-3.55,-3.55,-3.55,-3.5538,-3.5635,-3.55,-3.5654,-3.5692,-3.5558,-3.5577,-3.5519,-3.5596,-3.5538,-3.55,-3.55,-3.55,-3.55,-3.55,-3.55,-3.55,-3.5481,-3.55,-3.55,-3.5442,-3.5327,-3.5115,-3.4757,-3.4372,-3.4064,-3.366,-3.3103,-3.3026,-3.2929,-3.2679,-3.2449,-3.1968,-3.1525,-3.1442,-3.0942,-3.0635,-3.0408,-3.0428,-3.0446,-3.0467,-3.0511,-3.0545,-3.0575,-3.0633,-3.0659,-3.0677,-3.0703,-3.0728,-4.0496,-4.0496,-4.0496,-4.0496,-4.0496,-4.0496,-4.0496,-4.0496,-4.0496,-4.0496,-4.0496,-4.0496,-4.0496,-4.04,-3.9111,-3.8142,-3.7815,-3.6577,-3.5635,-3.5558,-3.55,-3.55,-3.55,-3.55,-3.55,-3.55,-3.55,-3.55,-3.55,-3.55,-3.55,-3.55,-3.55,-3.55,-3.55,-3.55,-3.55,-3.55,-3.55,-3.55,-3.55,-3.55,-3.55,-3.55,-3.55,-3.55,-3.55,-3.55,-3.55,-3.55,-3.55,-3.55,-3.55,-3.55,-3.55,-3.55,-3.55,-3.55,-3.55,-3.55,-3.55,-3.55,-3.55,-3.55,-3.55,-3.55,-3.55,-3.55,-3.55,-3.55,-3.55,-3.55,-3.55,-3.55,-3.55,-3.55,-3.55,-3.55,-3.55,-3.55,-3.55,-3.55,-3.5481,-3.5423,-3.5423,-3.5481,-3.5327,-3.5154,-3.4718,-3.4237,-3.3795,-3.3314,-3.2756,-3.2275,-3.2218,-3.2102,-3.1814,-3.166,-3.1218,-3.0923,-3.0846,-3.075,-3.0481,-3.0404,-3.039,-3.0417,-3.0446,-3.0482,-3.0527,-3.0533,-3.0547,-3.0584,-3.0611,-3.0623,-3.0472,-4.0496,-4.0496,-4.0496,-4.0496,-4.0496,-4.0496,-4.0496,-4.0496,-4.0496,-4.0496,-4.0496,-4.0496,-4.0496,-4.04,-3.9207,-3.843,-3.7661,-3.6288,-3.55,-3.55,-3.55,-3.55,-3.55,-3.55,-3.55,-3.55,-3.55,-3.55,-3.55,-3.55,-3.55,-3.55,-3.55,-3.55,-3.55,-3.55,-3.55,-3.55,-3.55,-3.55,-3.55,-3.55,-3.55,-3.55,-3.55,-3.55,-3.55,-3.55,-3.55,-3.55,-3.55,-3.55,-3.55,-3.55,-3.55,-3.55,-3.55,-3.55,-3.55,-3.55,-3.55,-3.55,-3.55,-3.55,-3.55,-3.55,-3.55,-3.55,-3.55,-3.55,-3.55,-3.55,-3.55,-3.55,-3.55,-3.55,-3.55,-3.55,-3.55,-3.55,-3.55,-3.55,-3.5462,-3.5161,-3.4891,-3.4737,-3.4718,-3.4507,-3.3872,-3.3391,-3.3006,-3.2526,-3.1942,-3.1558,-3.1481,-3.1288,-3.0981,-3.0865,-3.0731,-3.0596,-3.0558,-3.05,-3.0423,-3.0404,-3.0404,-3.0404,-3.0411,-3.0451,-3.0477,-3.0462,-3.0482,-3.052,-3.0502,-3.0423,-3.0179,-4.0496,-4.0496,-4.0496,-4.0496,-4.0496,-4.0496,-4.0496,-4.0496,-4.0496,-4.0496,-4.0439,-4.04,-4.0208,-4.0054,-3.915,-3.8373,-3.7392,-3.6365,-3.55,-3.55,-3.55,-3.55,-3.55,-3.55,-3.55,-3.55,-3.55,-3.55,-3.55,-3.55,-3.55,-3.55,-3.55,-3.55,-3.55,-3.55,-3.55,-3.55,-3.55,-3.55,-3.55,-3.55,-3.55,-3.55,-3.55,-3.55,-3.55,-3.55,-3.55,-3.55,-3.55,-3.55,-3.55,-3.55,-3.55,-3.55,-3.55,-3.55,-3.55,-3.55,-3.55,-3.55,-3.5288,-3.5385,-3.5423,-3.5334,-3.5295,-3.5442,-3.55,-3.55,-3.55,-3.55,-3.55,-3.55,-3.55,-3.55,-3.55,-3.55,-3.55,-3.5462,-3.5218,-3.5026,-3.4814,-3.4526,-3.4237,-3.3987,-3.3994,-3.3757,-3.3083,-3.2622,-3.2275,-3.1814,-3.125,-3.1038,-3.0962,-3.0962,-3.0596,-3.0519,-3.0404,-3.0404,-3.0404,-3.0404,-3.0404,-3.0404,-3.0404,-3.0385,-3.0385,-3.0419,-3.0425,-3.0404,-3.0188,-2.9989,-3.0027,-3.0162,-2.9749,-4.0496,-4.0496,-4.0496,-4.0496,-4.0496,-4.0496,-4.0496,-4.0496,-4.0496,-4.0496,-4.0419,-3.9823,-3.9573,-3.9188,-3.7796,-3.675,-3.6288,-3.5692,-3.55,-3.55,-3.55,-3.55,-3.55,-3.55,-3.55,-3.55,-3.55,-3.55,-3.55,-3.55,-3.55,-3.55,-3.55,-3.55,-3.55,-3.55,-3.55,-3.55,-3.55,-3.55,-3.55,-3.55,-3.55,-3.55,-3.55,-3.55,-3.55,-3.55,-3.55,-3.55,-3.55,-3.55,-3.55,-3.55,-3.55,-3.5481,-3.5385,-3.5346,-3.5481,-3.5385,-3.5462,-3.5346,-3.4834,-3.4814,-3.5026,-3.493,-3.493,-3.5327,-3.55,-3.55,-3.55,-3.55,-3.55,-3.55,-3.55,-3.5442,-3.5423,-3.5385,-3.5275,-3.5069,-3.4736,-3.4468,-3.4295,-3.391,-3.3353,-3.3141,-3.3122,-3.2756,-3.2102,-3.1814,-3.1641,-3.1141,-3.0577,-3.0519,-3.05,-3.0538,-3.0442,-3.0462,-3.0404,-3.0404,-3.0404,-3.0404,-3.0385,-3.0173,-3.0231,-3.0346,-3.0346,-3.0269,-3.0365,-3.0327,-2.9896,-2.9344,-2.9431,-2.9438,-2.8729,-4.0304,-4.0313,-4.0449,-4.0496,-4.0496,-4.0496,-4.0496,-4.0496,-4.0496,-4.0496,-4.0265,-3.9688,-3.9304,-3.8977,-3.8007,-3.693,-3.6192,-3.5635,-3.5519,-3.55,-3.55,-3.55,-3.55,-3.55,-3.55,-3.55,-3.55,-3.55,-3.55,-3.55,-3.55,-3.55,-3.55,-3.55,-3.55,-3.55,-3.55,-3.55,-3.55,-3.55,-3.55,-3.55,-3.55,-3.55,-3.55,-3.55,-3.55,-3.55,-3.55,-3.55,-3.55,-3.55,-3.55,-3.55,-3.55,-3.5423,-3.5115,-3.5064,-3.5135,-3.4853,-3.4276,-3.4661,-3.4026,-3.3757,-3.4083,-3.418,-3.4564,-3.5192,-3.5481,-3.55,-3.55,-3.5435,-3.55,-3.55,-3.5462,-3.5224,-3.4962,-3.4865,-3.4587,-3.4326,-3.4176,-3.4012,-3.4032,-3.3449,-3.2564,-3.2275,-3.2269,-3.1814,-3.1192,-3.1218,-3.1218,-3.0827,-3.0404,-3.0404,-3.0404,-3.0404,-3.0404,-3.0404,-3.0365,-3.0365,-3.0288,-3.0231,-2.9942,-2.966,-2.9833,-2.9981,-2.9794,-2.9563,-2.9904,-3.0058,-2.9256,-2.8665,-2.878,-2.859,-2.7836,-4.0002,-4.0022,-4.0294,-4.0433,-4.0433,-4.0481,-4.0465,-4.0441,-4.0425,-4.0282,-4.0041,-3.9292,-3.8808,-3.8538,-3.7853,-3.7026,-3.6385,-3.5712,-3.5519,-3.55,-3.55,-3.55,-3.55,-3.55,-3.55,-3.55,-3.55,-3.55,-3.55,-3.55,-3.55,-3.55,-3.55,-3.55,-3.55,-3.55,-3.55,-3.55,-3.55,-3.55,-3.55,-3.55,-3.55,-3.55,-3.55,-3.55,-3.55,-3.55,-3.55,-3.55,-3.55,-3.55,-3.55,-3.55,-3.55,-3.5365,-3.468,-3.4661,-3.4391,-3.391,-3.341,-3.3853,-3.3122,-3.2949,-3.3372,-3.4026,-3.4455,-3.503,-3.4868,-3.4726,-3.4642,-3.5002,-3.5107,-3.5166,-3.5069,-3.4887,-3.4309,-3.3909,-3.3429,-3.3314,-3.3446,-3.3247,-3.2931,-3.2494,-3.1501,-3.1328,-3.1303,-3.1308,-3.0827,-3.1019,-3.0981,-3.0654,-3.0404,-3.0404,-3.0404,-3.0404,-3.0404,-3.0404,-3.0327,-3.0269,-3.0135,-2.9987,-2.9506,-2.8871,-2.914,-2.9217,-2.9006,-2.8857,-2.9025,-2.889,-2.8236,-2.7895,-2.7857,-2.7486,-2.6814,-3.9656,-3.9679,-4.0003,-4.0139,-4.0177,-4.0372,-4.0347,-4.0158,-4.0091,-3.9681,-3.9051,-3.8116,-3.7455,-3.6995,-3.6308,-3.5808,-3.5654,-3.5596,-3.55,-3.55,-3.55,-3.55,-3.55,-3.55,-3.55,-3.55,-3.55,-3.55,-3.55,-3.55,-3.55,-3.55,-3.55,-3.55,-3.55,-3.55,-3.55,-3.55,-3.55,-3.55,-3.55,-3.55,-3.55,-3.55,-3.55,-3.55,-3.55,-3.55,-3.55,-3.55,-3.55,-3.55,-3.55,-3.55,-3.55,-3.525,-3.4699,-3.3917,-3.3526,-3.291,-3.2718,-3.2852,-3.2282,-3.2731,-3.3191,-3.36,-3.3827,-3.3888,-3.3471,-3.3203,-3.3375,-3.367,-3.4021,-3.4151,-3.4094,-3.3953,-3.3597,-3.2882,-3.2395,-3.1929,-3.1931,-3.1646,-3.1321,-3.0901,-3.0477,-3.0407,-3.0381,-3.042,-3.0476,-3.0669,-3.074,-3.0414,-3.0373,-3.0404,-3.0404,-3.0404,-3.0385,-3.0385,-3.0135,-3.0038,-2.9775,-2.9371,-2.839,-2.7986,-2.8255,-2.8236,-2.7852,-2.7794,-2.803,-2.7895,-2.7467,-2.7101,-2.6813,-2.6327,-2.5923,-3.9189,-3.9339,-3.9687,-3.9808,-3.9829,-3.9954,-3.9934,-3.9735,-3.9326,-3.8928,-3.8359,-3.7145,-3.6301,-3.5848,-3.552,-3.5519,-3.55,-3.55,-3.55,-3.55,-3.55,-3.55,-3.55,-3.55,-3.55,-3.55,-3.55,-3.55,-3.55,-3.5474,-3.55,-3.55,-3.55,-3.55,-3.55,-3.55,-3.55,-3.55,-3.55,-3.55,-3.55,-3.55,-3.55,-3.55,-3.55,-3.55,-3.55,-3.55,-3.55,-3.55,-3.55,-3.55,-3.55,-3.5404,-3.5173,-3.3955,-3.3566,-3.34,-3.3493,-3.2282,-3.1949,-3.1892,-3.1449,-3.1231,-3.2134,-3.2473,-3.2686,-3.2864,-3.26,-3.2364,-3.2307,-3.2676,-3.287,-3.2999,-3.298,-3.2653,-3.2412,-3.1953,-3.1362,-3.0875,-3.0453,-3.033,-3.0245,-3.0127,-3.003,-3.0116,-3.0072,-3.0075,-3.014,-3.0251,-3.027,-3.02,-3.0267,-3.0404,-3.0404,-3.0404,-3.0359,-3.0225,-2.9602,-2.9448,-2.9198,-2.8646,-2.7698,-2.714,-2.7236,-2.7063,-2.6673,-2.6871,-2.7217,-2.7044,-2.6794,-2.6524,-2.625,-2.5923,-2.5577,-3.8704,-3.8725,-3.9039,-3.9173,-3.9166,-3.9048,-3.8916,-3.8778,-3.8244,-3.7849,-3.7363,-3.6241,-3.541,-3.5221,-3.5324,-3.5417,-3.55,-3.55,-3.55,-3.55,-3.55,-3.55,-3.55,-3.55,-3.55,-3.55,-3.55,-3.5446,-3.5403,-3.541,-3.5398,-3.55,-3.55,-3.55,-3.55,-3.55,-3.55,-3.55,-3.55,-3.55,-3.55,-3.55,-3.55,-3.55,-3.55,-3.55,-3.55,-3.55,-3.55,-3.5376,-3.5376,-3.5231,-3.4917,-3.4714,-3.4167,-3.3112,-3.2492,-3.2454,-3.232,-3.1585,-3.086,-3.0762,-3.0916,-3.0747,-3.1027,-3.1023,-3.1091,-3.1779,-3.144,-3.1422,-3.1535,-3.1591,-3.1873,-3.1882,-3.1845,-3.1403,-3.0989,-3.0715,-3.0439,-3.0039,-2.9696,-2.9524,-2.9479,-2.9509,-2.9579,-2.9771,-2.9804,-2.978,-2.9829,-2.9908,-2.9996,-3.0003,-3.0018,-3.0196,-3.0322,-3.0328,-3.0309,-2.9957,-2.9316,-2.8846,-2.8558,-2.7981,-2.714,-2.6731,-2.6423,-2.6154,-2.5942,-2.6192,-2.6409,-2.6231,-2.6058,-2.5981,-2.575,-2.5481,-2.5346,-3.8264,-3.764,-3.7907,-3.7996,-3.7984,-3.7551,-3.7231,-3.7131,-3.6895,-3.6391,-3.5793,-3.5104,-3.4936,-3.5035,-3.5077,-3.5266,-3.5486,-3.55,-3.5474,-3.5474,-3.55,-3.55,-3.55,-3.55,-3.55,-3.55,-3.5446,-3.5312,-3.519,-3.5138,-3.5281,-3.5453,-3.5361,-3.5446,-3.542,-3.5342,-3.5369,-3.5376,-3.5376,-3.5417,-3.5417,-3.5424,-3.5432,-3.5439,-3.546,-3.55,-3.5474,-3.5453,-3.5335,-3.5157,-3.5163,-3.4668,-3.4135,-3.3929,-3.3321,-3.2355,-3.1622,-3.1472,-3.1101,-3.0633,-3.0017,-3.0048,-3.0333,-3.059,-3.0631,-3.0865,-3.0932,-3.0671,-3.0331,-2.9956,-3.0012,-3.0211,-3.0721,-3.0826,-3.0786,-3.0613,-3.0195,-2.9749,-2.9455,-2.914,-2.9055,-2.9082,-2.9093,-2.9206,-2.9365,-2.9561,-2.9652,-2.9634,-2.9616,-2.9687,-2.9804,-2.9845,-2.9799,-2.9924,-3.0177,-3.0056,-2.9601,-2.9194,-2.8663,-2.8219,-2.7882,-2.7196,-2.6423,-2.6096,-2.5731,-2.5481,-2.5341,-2.5654,-2.5788,-2.5519,-2.5399,-2.5538,-2.5558,-2.5404,-2.5327,-3.7786,-3.7434,-3.6528,-3.6436,-3.6911,-3.6727,-3.6584,-3.637,-3.59,-3.5217,-3.4485,-3.4421,-3.4456,-3.4584,-3.4784,-3.4999,-3.5242,-3.5266,-3.5335,-3.546,-3.55,-3.55,-3.55,-3.546,-3.55,-3.5446,-3.5335,-3.5223,-3.5113,-3.4916,-3.4908,-3.4981,-3.5008,-3.4999,-3.4999,-3.5051,-3.5053,-3.5044,-3.5016,-3.5027,-3.5027,-3.5018,-3.5008,-3.5027,-3.5008,-3.5008,-3.5016,-3.5182,-3.507,-3.4963,-3.498,-3.4272,-3.3459,-3.3279,-3.2572,-3.1591,-3.0932,-3.0536,-3.0161,-2.9795,-2.9662,-2.9551,-2.9822,-2.9989,-2.9963,-2.9816,-2.9744,-2.9514,-2.9392,-2.92,-2.927,-2.9448,-2.9647,-2.9712,-2.9749,-2.9743,-2.9573,-2.9191,-2.9065,-2.9028,-2.8998,-2.9021,-2.901,-2.9021,-2.9192,-2.9363,-2.9454,-2.9484,-2.9455,-2.9455,-2.9589,-2.967,-2.9616,-2.9696,-2.9916,-2.9433,-2.8803,-2.8441,-2.8052,-2.7484,-2.7004,-2.6331,-2.5649,-2.5341,-2.5284,-2.5298,-2.5298,-2.5303,-2.5308,-2.5308,-2.5308,-2.5346,-2.5327,-2.5308,-2.5308,-3.6997,-3.6633,-3.55,-3.5334,-3.5862,-3.5661,-3.555,-3.544,-3.4908,-3.4362,-3.3834,-3.3993,-3.4135,-3.4265,-3.4423,-3.4705,-3.4954,-3.5079,-3.5147,-3.5231,-3.5297,-3.5312,-3.5289,-3.5231,-3.5171,-3.5215,-3.5105,-3.4935,-3.4765,-3.4634,-3.4518,-3.4442,-3.4431,-3.4497,-3.4724,-3.4684,-3.4684,-3.4694,-3.4694,-3.4694,-3.4714,-3.4714,-3.4743,-3.4753,-3.4744,-3.4744,-3.4803,-3.4898,-3.4803,-3.4582,-3.4326,-3.3797,-3.3132,-3.2439,-3.1708,-3.0869,-3.0199,-2.9858,-2.9518,-2.9365,-2.9416,-2.931,-2.9296,-2.9244,-2.9055,-2.8987,-2.9166,-2.9106,-2.9028,-2.8987,-2.8987,-2.9125,-2.9154,-2.9318,-2.9307,-2.928,-2.9251,-2.9035,-2.9017,-2.8987,-2.8987,-2.8987,-2.8987,-2.8987,-2.9067,-2.9181,-2.9214,-2.9246,-2.9214,-2.9246,-2.9332,-2.9405,-2.9425,-2.9551,-2.965,-2.8738,-2.7974,-2.8097,-2.7571,-2.6616,-2.6003,-2.5438,-2.5217,-2.5163,-2.5168,-2.5248,-2.5288,-2.5303,-2.5308,-2.5308,-2.5308,-2.5308,-2.5308,-2.5308,-2.5308,-3.5862,-3.5078,-3.5004,-3.4986,-3.4968,-3.4197,-3.3972,-3.4119,-3.399,-3.3899,-3.3807,-3.3855,-3.3961,-3.4135,-3.4206,-3.4401,-3.4675,-3.4898,-3.4972,-3.4898,-3.5035,-3.4954,-3.487,-3.4813,-3.4889,-3.4744,-3.4694,-3.4542,-3.4323,-3.4265,-3.4105,-3.3992,-3.4018,-3.4148,-3.4632,-3.4674,-3.4674,-3.4674,-3.4632,-3.4601,-3.458,-3.4569,-3.4559,-3.4548,-3.4548,-3.4526,-3.4548,-3.4436,-3.4296,-3.4024,-3.3429,-3.268,-3.1712,-3.1025,-3.0282,-2.9425,-2.9225,-2.9106,-2.9021,-2.9051,-2.9067,-2.9078,-2.91,-2.9044,-2.8998,-2.8987,-2.8987,-2.8987,-2.8987,-2.8987,-2.8987,-2.8987,-2.8987,-2.8987,-2.8987,-2.8987,-2.8987,-2.8987,-2.8987,-2.8987,-2.8987,-2.8987,-2.8987,-2.8987,-2.8987,-2.9021,-2.8998,-2.9005,-2.9017,-2.9074,-2.9178,-2.9222,-2.9249,-2.9091,-2.8913,-2.7802,-2.7186,-2.7397,-2.7031,-2.5955,-2.5456,-2.5212,-2.5057,-2.5005,-2.5041,-2.5072,-2.5201,-2.5303,-2.5308,-2.5308,-2.5308,-2.5308,-2.5308,-2.5308,-2.5308,-3.5261,-3.4949,-3.4435,-3.4211,-3.4174,-3.3935,-3.3807,-3.3807,-3.3807,-3.3807,-3.3807,-3.3807,-3.3829,-3.3928,-3.3974,-3.4105,-3.4357,-3.4423,-3.4456,-3.4704,-3.4793,-3.4774,-3.4684,-3.4632,-3.4653,-3.4632,-3.4518,-3.4334,-3.4242,-3.4068,-3.3941,-3.382,-3.382,-3.3908,-3.4037,-3.4099,-3.4105,-3.4087,-3.4087,-3.4105,-3.4099,-3.4123,-3.4136,-3.4148,-3.4148,-3.4179,-3.4147,-3.3959,-3.3659,-3.3346,-3.2727,-3.1862,-3.095,-3.0301,-2.9843,-2.9207,-2.8987,-2.8987,-2.8987,-2.8998,-2.8998,-2.8987,-2.8987,-2.8987,-2.8987,-2.8987,-2.8987,-2.8987,-2.8987,-2.8987,-2.8987,-2.8987,-2.8987,-2.8987,-2.8987,-2.8987,-2.8987,-2.8987,-2.8987,-2.8987,-2.8987,-2.8987,-2.8987,-2.8987,-2.8987,-2.8987,-2.8987,-2.8987,-2.9005,-2.9005,-2.9055,-2.9074,-2.9045,-2.8739,-2.8236,-2.7362,-2.6503,-2.6386,-2.5952,-2.5105,-2.4781,-2.4839,-2.4869,-2.4843,-2.4871,-2.4923,-2.5066,-2.5198,-2.5274,-2.5308,-2.5274,-2.5279,-2.5308,-2.5308,-2.5308,-3.4582,-3.4527,-3.4027,-3.3807,-3.3807,-3.3807,-3.3807,-3.3807,-3.3807,-3.3807,-3.3807,-3.3807,-3.382,-3.382,-3.3834,-3.3837,-3.4068,-3.4195,-3.4135,-3.442,-3.4497,-3.4431,-3.4386,-3.4398,-3.4314,-3.4318,-3.4225,-3.4056,-3.4031,-3.3876,-3.3802,-3.382,-3.3807,-3.3834,-3.3842,-3.3855,-3.386,-3.3868,-3.3881,-3.3887,-3.3873,-3.386,-3.3847,-3.386,-3.3847,-3.3847,-3.3708,-3.3454,-3.3167,-3.2852,-3.2324,-3.1589,-3.0876,-3.0283,-2.9861,-2.9262,-2.8987,-2.8987,-2.8987,-2.8987,-2.8987,-2.8987,-2.8987,-2.8987,-2.8987,-2.8987,-2.8987,-2.8987,-2.8987,-2.8987,-2.8987,-2.8987,-2.8987,-2.8987,-2.8987,-2.8987,-2.8987,-2.8987,-2.8987,-2.8987,-2.8987,-2.8987,-2.8987,-2.8987,-2.8987,-2.8987,-2.8987,-2.8987,-2.8987,-2.8987,-2.8987,-2.9005,-2.8925,-2.864,-2.8073,-2.7227,-2.6371,-2.5531,-2.4967,-2.4465,-2.4419,-2.4518,-2.4586,-2.4666,-2.4689,-2.4771,-2.4956,-2.5071,-2.5143,-2.5182,-2.5208,-2.5243,-2.5279,-2.5308,-2.5308,-3.3825,-3.3807,-3.3807,-3.3807,-3.3807,-3.3807,-3.3807,-3.3807,-3.3807,-3.3807,-3.3807,-3.3807,-3.3807,-3.3807,-3.3807,-3.3834,-3.3868,-3.4068,-3.4037,-3.3986,-3.4129,-3.4037,-3.3967,-3.3921,-3.3998,-3.3908,-3.3842,-3.3889,-3.3815,-3.382,-3.3807,-3.3807,-3.3807,-3.3807,-3.3807,-3.3807,-3.3807,-3.3807,-3.3807,-3.3807,-3.3807,-3.3807,-3.3807,-3.3807,-3.3807,-3.3807,-3.3723,-3.3566,-3.3529,-3.3269,-3.2823,-3.2125,-3.1403,-3.0668,-2.9898,-2.9317,-2.9115,-2.8987,-2.8987,-2.8987,-2.8987,-2.8987,-2.8987,-2.8987,-2.8987,-2.8987,-2.8987,-2.8987,-2.8987,-2.8987,-2.8987,-2.8987,-2.8987,-2.8987,-2.8987,-2.8987,-2.8987,-2.8987,-2.8987,-2.8987,-2.8987,-2.8987,-2.8987,-2.8987,-2.8987,-2.8987,-2.8987,-2.8987,-2.8987,-2.8987,-2.8987,-2.8987,-2.8858,-2.8583,-2.7923,-2.7126,-2.6329,-2.5521,-2.4768,-2.4275,-2.4238,-2.4257,-2.4375,-2.4469,-2.4503,-2.4615,-2.4773,-2.4884,-2.4962,-2.5012,-2.5061,-2.5187,-2.5243,-2.5279,-2.5308,-3.3807,-3.3807,-3.3807,-3.3807,-3.3807,-3.3807,-3.3807,-3.3807,-3.3807,-3.3807,-3.3807,-3.3807,-3.3807,-3.3807,-3.3807,-3.3807,-3.3847,-3.3868,-3.385,-3.3863,-3.3902,-3.3868,-3.3847,-3.3807,-3.3807,-3.3807,-3.3807,-3.3807,-3.382,-3.3807,-3.3807,-3.3807,-3.3807,-3.3807,-3.3807,-3.3807,-3.3807,-3.3807,-3.3807,-3.3807,-3.3807,-3.3807,-3.3807,-3.3807,-3.3807,-3.3807,-3.3752,-3.333,-3.3183,-3.2913,-3.2228,-3.1586,-3.1439,-3.114,-3.0687,-2.9916,-2.9427,-2.8987,-2.8987,-2.8987,-2.8987,-2.8987,-2.8987,-2.8987,-2.8987,-2.8987,-2.8987,-2.8987,-2.8987,-2.8987,-2.8987,-2.8987,-2.8987,-2.8987,-2.8987,-2.8987,-2.8987,-2.8987,-2.8987,-2.8987,-2.8987,-2.8987,-2.8987,-2.8987,-2.8987,-2.8987,-2.8987,-2.8987,-2.8987,-2.8987,-2.8987,-2.8987,-2.8895,-2.8656,-2.7934,-2.7126,-2.6329,-2.554,-2.4787,-2.4236,-2.4209,-2.4237,-2.4247,-2.4312,-2.4393,-2.4469,-2.4591,-2.4693,-2.4749,-2.4828,-2.4889,-2.5049,-2.5182,-2.5208,-2.5274,-3.3807,-3.3807,-3.3807,-3.3807,-3.3807,-3.3807,-3.3807,-3.3807,-3.3807,-3.3807,-3.3807,-3.3807,-3.3807,-3.3807,-3.3807,-3.3807,-3.3807,-3.3834,-3.382,-3.382,-3.3807,-3.382,-3.3807,-3.3807,-3.3807,-3.3807,-3.3807,-3.3807,-3.3807,-3.3807,-3.3807,-3.3807,-3.3807,-3.3807,-3.3807,-3.3807,-3.3807,-3.3807,-3.3807,-3.3807,-3.3807,-3.3807,-3.3807,-3.3807,-3.3807,-3.3807,-3.377,-3.3201,-3.3109,-3.306,-3.2485,-3.2173,-3.1825,-3.1347,-3.054,-2.9721,-2.9299,-2.9023,-2.8987,-2.8987,-2.8987,-2.8987,-2.8987,-2.8987,-2.8987,-2.8987,-2.8987,-2.8987,-2.8987,-2.8987,-2.8987,-2.8987,-2.8987,-2.8987,-2.8987,-2.8987,-2.8987,-2.8987,-2.8987,-2.8987,-2.8987,-2.8987,-2.8987,-2.8987,-2.8987,-2.8987,-2.8987,-2.8987,-2.8987,-2.8987,-2.8987,-2.8987,-2.8913,-2.873,-2.797,-2.7236,-2.6439,-2.5613,-2.474,-2.4318,-2.4254,-2.4199,-2.4218,-2.4256,-2.4294,-2.4393,-2.4495,-2.4486,-2.4526,-2.4631,-2.4723,-2.4821,-2.4975,-2.5071,-2.5152,-3.3807,-3.3807,-3.3807,-3.3807,-3.3807,-3.3807,-3.3807,-3.3807,-3.3807,-3.3807,-3.3807,-3.3807,-3.3807,-3.3807,-3.3807,-3.3807,-3.3807,-3.3807,-3.3807,-3.3807,-3.3807,-3.3807,-3.3807,-3.3807,-3.3807,-3.3807,-3.3807,-3.3807,-3.3807,-3.3807,-3.3807,-3.3807,-3.3807,-3.3807,-3.3807,-3.3807,-3.3807,-3.3807,-3.3807,-3.3807,-3.3807,-3.3807,-3.3807,-3.3807,-3.3807,-3.3807,-3.3807,-3.3788,-3.3807,-3.3788,-3.366,-3.3256,-3.2339,-3.1311,-3.0216,-2.9464,-2.9189,-2.9023,-2.8987,-2.8987,-2.8987,-2.8987,-2.8987,-2.8987,-2.8987,-2.8987,-2.8987,-2.8987,-2.8987,-2.8987,-2.8987,-2.8987,-2.8987,-2.8987,-2.8987,-2.8987,-2.8987,-2.8987,-2.8987,-2.8987,-2.8987,-2.8987,-2.8987,-2.8987,-2.8987,-2.8987,-2.8987,-2.8987,-2.8987,-2.8987,-2.8987,-2.8987,-2.8932,-2.8785,-2.829,-2.753,-2.6612,-2.575,-2.4924,-2.4355,-2.4245,-2.4218,-2.4199,-2.4228,-2.4266,-2.4321,-2.4384,-2.4375,-2.441,-2.452,-2.4594,-2.4599,-2.4719,-2.4858,-2.4981,-3.3807,-3.3807,-3.3807,-3.3807,-3.3807,-3.3807,-3.3807,-3.3807,-3.3807,-3.3807,-3.3807,-3.3807,-3.3807,-3.3807,-3.3807,-3.3807,-3.3807,-3.3807,-3.3807,-3.3807,-3.3807,-3.3807,-3.3807,-3.3807,-3.3807,-3.3807,-3.3807,-3.3807,-3.3807,-3.3807,-3.3807,-3.3807,-3.3807,-3.3807,-3.3807,-3.3807,-3.3807,-3.3807,-3.3807,-3.3807,-3.3807,-3.3807,-3.3807,-3.3807,-3.3807,-3.3807,-3.3807,-3.3807,-3.3807,-3.3807,-3.3807,-3.3366,-3.2601,-3.1604,-3.0742,-3.0008,-2.928,-2.906,-2.8987,-2.8987,-2.8987,-2.8987,-2.8987,-2.8987,-2.8987,-2.8987,-2.8987,-2.8987,-2.8987,-2.8987,-2.8987,-2.8987,-2.8987,-2.8987,-2.8987,-2.8987,-2.8987,-2.8987,-2.8987,-2.8987,-2.8987,-2.8987,-2.8987,-2.8987,-2.8987,-2.8987,-2.8987,-2.8987,-2.8987,-2.8987,-2.8987,-2.8987,-2.8987,-2.8785,-2.84,-2.786,-2.6979,-2.6245,-2.5493,-2.4905,-2.4318,-2.4236,-2.4199,-2.4199,-2.4228,-2.4275,-2.4284,-2.4247,-2.4312,-2.441,-2.4436,-2.4445,-2.4486,-2.4601,-2.4741,-3.3807,-3.3807,-3.3807,-3.3807,-3.3807,-3.3807,-3.3807,-3.3807,-3.3807,-3.3807,-3.3807,-3.3807,-3.3807,-3.3807,-3.3807,-3.3807,-3.3807,-3.3807,-3.3807,-3.3807,-3.3807,-3.3807,-3.3807,-3.3807,-3.3807,-3.3807,-3.3807,-3.3807,-3.3807,-3.3807,-3.3807,-3.3807,-3.3807,-3.3807,-3.3807,-3.3807,-3.3807,-3.3807,-3.3807,-3.3807,-3.3807,-3.3807,-3.3807,-3.3807,-3.3807,-3.3807,-3.3807,-3.3807,-3.3807,-3.3642,-3.3458,-3.2816,-3.2045,-3.1164,-3.043,-2.9757,-2.9244,-2.8987,-2.8987,-2.8987,-2.8987,-2.8987,-2.8987,-2.8987,-2.8987,-2.8987,-2.8987,-2.8987,-2.8987,-2.8987,-2.8987,-2.8987,-2.8987,-2.8987,-2.8987,-2.8987,-2.8987,-2.8987,-2.8987,-2.8987,-2.8987,-2.8987,-2.8987,-2.8987,-2.8987,-2.8987,-2.8987,-2.8987,-2.8987,-2.8987,-2.8987,-2.8987,-2.8987,-2.8987,-2.8767,-2.8161,-2.7383,-2.6667,-2.5944,-2.5136,-2.442,-2.4273,-2.4199,-2.4199,-2.4199,-2.4209,-2.4209,-2.4199,-2.4199,-2.4275,-2.4275,-2.4266,-2.4312,-2.4374,-2.4478,-3.3807,-3.3807,-3.3807,-3.3807,-3.3807,-3.3807,-3.3807,-3.3807,-3.3807,-3.3807,-3.3807,-3.3807,-3.3807,-3.3807,-3.3807,-3.3807,-3.3807,-3.3807,-3.3807,-3.3807,-3.3807,-3.3807,-3.3807,-3.3807,-3.3807,-3.3807,-3.3807,-3.3807,-3.3807,-3.3807,-3.3807,-3.3807,-3.3807,-3.3807,-3.3807,-3.3807,-3.3807,-3.3807,-3.3807,-3.3807,-3.3807,-3.3807,-3.3807,-3.3807,-3.3807,-3.3807,-3.3807,-3.3807,-3.3807,-3.3311,-3.2821,-3.2063,-3.1421,-3.0668,-2.9977,-2.9354,-2.9115,-2.8987,-2.8987,-2.8987,-2.8987,-2.8987,-2.8987,-2.8987,-2.8975,-2.8975,-2.8975,-2.8975,-2.8975,-2.8987,-2.8987,-2.8987,-2.8987,-2.8987,-2.8987,-2.8987,-2.8987,-2.8987,-2.8987,-2.8987,-2.8987,-2.8987,-2.8987,-2.8987,-2.8987,-2.8987,-2.8987,-2.8987,-2.8987,-2.8987,-2.8987,-2.8987,-2.8987,-2.8987,-2.8968,-2.8143,-2.7291,-2.6722,-2.5933,-2.5136,-2.4511,-2.4328,-2.4199,-2.4199,-2.4199,-2.4199,-2.4199,-2.4199,-2.4199,-2.4199,-2.4199,-2.4218,-2.4237,-2.4275,-2.4238,-3.3807,-3.3807,-3.3807,-3.3807,-3.3807,-3.3807,-3.3807,-3.3807,-3.3807,-3.3807,-3.3807,-3.3807,-3.3807,-3.3807,-3.3807,-3.3752,-3.3605,-3.366,-3.377,-3.3807,-3.3788,-3.3788,-3.3807,-3.3807,-3.3807,-3.3807,-3.3807,-3.3807,-3.3807,-3.3807,-3.3807,-3.3807,-3.3807,-3.3807,-3.3807,-3.3807,-3.3807,-3.3807,-3.3807,-3.3807,-3.3807,-3.3807,-3.3807,-3.3807,-3.3807,-3.3807,-3.3807,-3.3807,-3.3403,-3.2797,-3.21,-3.1311,-3.0797,-3.0301,-2.9666,-2.9225,-2.8987,-2.8987,-2.8987,-2.8987,-2.8987,-2.8987,-2.8975,-2.8982,-2.897,-2.8929,-2.8929,-2.8929,-2.8929,-2.8964,-2.8964,-2.8987,-2.8987,-2.8987,-2.8987,-2.8987,-2.8987,-2.8987,-2.8987,-2.8987,-2.8987,-2.8987,-2.8987,-2.8987,-2.8987,-2.8987,-2.8987,-2.8987,-2.8987,-2.8987,-2.8987,-2.8968,-2.895,-2.8987,-2.895,-2.7813,-2.6961,-2.6465,-2.5878,-2.5026,-2.4456,-2.4291,-2.4199,-2.4199,-2.4199,-2.4199,-2.4199,-2.4199,-2.4199,-2.4199,-2.4199,-2.4199,-2.4199,-2.4199,-2.4199]},{"header":{"parameterUnit":"m.s-1","parameterCategory":1,"la1":31.0,"la2":29.5877,"lo1":-88.7671,"lo2":-86.6584,"dy":0.0162,"dx":0.0185,"nx":115,"ny":88,"refTime":"2024-06-28T06:00:00:Z","depth":0,"parameterNumber":3,"parameterNumberName":"V-component_of_WINDS"},"data":[0.0,0.0,0.0,0.0,0.0,0.0,0.0,0.0,0.0,0.0,0.0,0.0,0.0,0.0,0.0,0.0,0.0,0.0,0.0,0.0,0.0,0.0,0.0,0.0,0.0,0.0,0.0,0.0,0.0,0.0,0.0,0.0,0.0,0.0,0.0,0.0,0.0,0.0,0.0,0.0,0.0,0.0,0.0,0.0,0.0,0.0,0.0,0.0,0.0,0.0,0.0,0.0,0.0,0.0,0.0,0.0,0.0,0.0,0.0,0.0,0.0,0.0,0.0,0.0,0.0,0.0,0.0,0.0,0.0,0.0,0.0,0.0,0.0,0.0,0.0,0.0,0.0,0.0,0.0,0.0,0.0,0.0,0.0,0.0,0.0,0.0,0.0,0.0,0.0,0.0,0.0,0.0,0.0,0.0,0.0,0.0,0.0,0.0,0.0,0.0,0.0,0.0,0.0,0.0,0.0,0.0,0.0,0.0,0.0,0.0,0.0,0.0,0.0,0.0,0.0,0.0,0.0,0.0,0.0,0.0,0.0,0.0,0.0,0.0,0.0,0.0,0.0,0.0,0.0,0.0,0.0,0.0,0.0,0.0,0.0,0.0,0.0,0.0,0.0,0.0,0.0,0.0,0.0,0.0,0.0,0.0,0.0,0.0,0.0,0.0,0.0,0.0,0.0,0.0,0.0,0.0,0.0,0.0,0.0,0.0,0.0,0.0,0.0,0.0,0.0,0.0,0.0,0.0,0.0,0.0,0.0,0.0,0.0,0.0,0.0,0.0,0.0,0.0,0.0,0.0,0.0,0.0,0.0,0.0,0.0,0.0,0.0,0.0,0.0,0.0,0.0,0.0,0.0,0.0,0.0,0.0,0.0,0.0,0.0,0.0,0.0,0.0,0.0,0.0,0.0,0.0,0.0,0.0,0.0,0.0,0.0,0.0,0.0,0.0,0.0,0.0,0.0,0.0,0.0,0.0,0.0,0.0,0.0,0.0,0.0,0.0,0.0,0.0,0.0,0.0,0.0,0.0,0.0,0.0,0.0,0.0,0.0,0.0,0.0,0.0,0.0,0.0,0.0,0.0,0.0,0.0,0.0,0.0,0.0,0.0,0.0,0.0,0.0,0.0,0.0,0.0,0.0,0.0,0.0,0.0,0.0,0.0,0.0,0.0,0.0,0.0,0.0,0.0,0.0,0.0,0.0,0.0,0.0,0.0,0.0,0.0,0.0,0.0,0.0,0.0,0.0,0.0,0.0,0.0,0.0,0.0,0.0,0.0,0.0,0.0,0.0,0.0,0.0,0.0,0.0,0.0,0.0,0.0,0.0,0.0,0.0,0.0,0.0,0.0,0.0,0.0,0.0,0.0,0.0,0.0,0.0,0.0,0.0,0.0,0.0,0.0,0.0,0.0,0.0,0.0,0.0,0.0,0.0,0.0,0.0,0.0,0.0,0.0,0.0,0.0,0.0,0.0,0.0,0.0,0.0,0.0,0.0,0.0,0.0,0.0,0.0,0.0,0.0,0.0,0.0,0.0,0.0,0.0,0.0,0.0,0.0,0.0,0.0,0.0,0.0,0.0,0.0,0.0,0.0,0.0,0.0,0.0,0.0,0.0,0.0,0.0,0.0,0.0,0.0,0.0,0.0,0.0,0.0,0.0,0.0,0.0,0.0,0.0,0.0,0.0,0.0,0.0,0.0,0.0,0.0,0.0,0.0,0.0,0.0,0.0,0.0,0.0,0.0,0.0,0.0,0.0,0.0,0.0,0.0,0.0,0.0,0.0,0.0,0.0,0.0,0.0,0.0,0.0,0.0,0.0,0.0,0.0,0.0,0.0,0.0,0.0,0.0,0.0,0.0,0.0,0.0,0.0,0.0,0.0,0.0,0.0,0.0,0.0,0.0,0.0,0.0,0.0,0.0,0.0,0.0,0.0,0.0,0.0,0.0,0.0,0.0,0.0,0.0,0.0,0.0,0.0,0.0,0.0,0.0,0.0,0.0,0.0,0.0,0.0,0.0,0.0,0.0,0.0,0.0,0.0,0.0,0.0,0.0,0.0,0.0,0.0,0.0,0.0,0.0,0.0,0.0,0.0,0.0,0.0,0.0,0.0,0.0,0.0,0.0,0.0,0.0,0.0,0.0,0.0,0.0,0.0,0.0,0.0,0.0,0.0,0.0,0.0,0.0,0.0,0.0,0.0,0.0,0.0,0.0,0.0,0.0,0.0,0.0,0.0,0.0,0.0,0.0,0.0,0.0,0.0,0.0,0.0,0.0,0.0,0.0,0.0,0.0,0.0,0.0,0.0,0.0,0.0,0.0,0.0,0.0,0.0,0.0,0.0,0.0,0.0,0.0,0.0,0.0,0.0,0.0,0.0,0.0,0.0,0.0,0.0,0.0,0.0,0.0,0.0,0.0,0.0,0.0,0.0,0.0,0.0,0.0,0.0,0.0,0.0,0.0,0.0,0.0,0.0,0.0,0.0,0.0,0.0,0.0,0.0,0.0,0.0,0.0,0.0,0.0,0.0,0.0,0.0,0.0,0.0,0.0,0.0,0.0,0.0,0.0,0.0,0.0,0.0,0.0,0.0,0.0,0.0,0.0,0.0,0.0,0.0,0.0,0.0,0.0,0.0,0.0,0.0,0.0,0.0,0.0,0.0,0.0,0.0,0.0,0.0,0.0,0.0,0.0,0.0,0.0,0.0,0.0,0.0,0.0,0.0,0.0,0.0,0.0,0.0,0.0,0.0,0.0,0.0,0.0,0.0,0.0,0.0,0.0,0.0,0.0,0.0,0.0,0.0,0.0,0.0,0.0,0.0,0.0,0.0,0.0,0.0,0.0,0.0,0.0,0.0,0.0,0.0,0.0,0.0,0.0,0.0,0.0,0.0,0.0,0.0,0.0,0.0,0.0,0.0,0.0,0.0,0.0,0.0,0.0,0.0,0.0,0.0,0.0,0.0,0.0,0.0,0.0,0.0,0.0,0.0,0.0,0.0,0.0,0.0,0.0,0.0,0.0,0.0,0.0,0.0,0.0,0.0,0.0,0.0,0.0,0.0,0.0,0.0,0.0,0.0,0.0,0.0,0.0,0.0,0.0,0.0,0.0,0.0,0.0,0.0,0.0,0.0,0.0,0.0,0.0,0.0,0.0,0.0,0.0,0.0,0.0,0.0,0.0,0.0,0.0,0.0,0.0,0.0,0.0,0.0,0.0,0.0,0.0,0.0,0.0,0.0,0.0,0.0,0.0,0.0,0.0,0.0,0.0,0.0,0.0,0.0,0.0,0.0,0.0,0.0,0.0,0.0,0.0,0.0,0.0,0.0,0.0,0.0,0.0,0.0,0.0,0.0,0.0,0.0,0.0,0.0,0.0,0.0,0.0,0.0,0.0,0.0,0.0,0.0,0.0,0.0,0.0,0.0,0.0,0.0,0.0,0.0,0.0,0.0,0.0,0.0,0.0,0.0,0.0,0.0,0.0,0.0,0.0,0.0,0.0,0.0,0.0,0.0,0.0,0.0,0.0,0.0,0.0,0.0,0.0,0.0,0.0,0.0,0.0,0.0,0.0,0.0,0.0,0.0,0.0,0.0,0.0,0.0,0.0,0.0,0.0,0.0,0.0,0.0,0.0,0.0,0.0,0.0,0.0,0.0,0.0,0.0,0.0,0.0,0.0,0.0,0.0,0.0,0.0,0.0,0.0,0.0,0.0,0.0,0.0,0.0,0.0,0.0,0.0,0.0,0.0,0.0,0.0,0.0,0.0,0.0,0.0,0.0,0.0,0.0,0.0,0.0,0.0,0.0,0.0,0.0,0.0,0.0,0.0,0.0,0.0,0.0,0.0,0.0,0.0,0.0,0.0,0.0,0.0,0.0,0.0,0.0,0.0,0.0,0.0,0.0,0.0,0.0,0.0,0.0,0.0,0.0,0.0,0.0,0.0,0.0,0.0,0.0,0.0,0.0,0.0,0.0,0.0,0.0,0.0,0.0,0.0,0.0,0.0,0.0,0.0,0.0,0.0,0.0,0.0,0.0,0.0,0.0,0.0,0.0,0.0,0.0,0.0,0.0,0.0,0.0,0.0,0.0,0.0,0.0,0.0,0.0,0.0,0.0,0.0,0.0,0.0,0.0,0.0,0.0,0.0,0.0,0.0,0.0,0.0,0.0,0.0,0.0,0.0,0.0,0.0,0.0,0.0,0.0,0.0,0.0,0.0,0.0,0.0,0.0,0.0,0.0,0.0,0.0,0.0,0.0,0.0,0.0,0.0,0.0,0.0,0.0,-0.2865,0.0,0.0,0.0,0.0,0.0,0.0,0.0,0.0,0.0,0.0,0.0,0.0,0.0,0.0,0.0,0.0,0.0,0.0,0.0,0.0,0.0,0.0,0.0,0.0,0.0,0.0,0.0,0.0,0.0,0.0,0.0,0.0,0.0,0.0,0.0,0.0,0.0,0.0,0.0,0.0,0.0,0.0,0.0,0.0,0.0,0.0,0.0,0.0,0.0,0.0,0.0,0.0,0.0,0.0,0.0,0.0,0.0,0.0,0.0,0.0,0.0,0.0,0.0,0.0,0.0,0.0,0.0,0.0,0.0,0.0,0.0,0.0,0.0,0.0,0.0,0.0,0.0,0.0,0.0,0.0,0.0,0.0,0.0,0.0,0.0,0.0,0.0,0.0,0.0,0.0,0.0,0.0,0.0,0.0,0.0,0.0,0.0,0.0,0.0,0.0,0.0,0.0,0.0,0.0,0.0,0.0,0.0,0.0,0.0,0.0,0.0,0.0,-0.1179,-0.2194,-0.2983,0.0,0.0,0.0,0.0,0.0,0.0,0.0,0.0,0.0,0.0,0.0,0.0,0.0,0.0,0.0,0.0,0.0,0.0,0.0,0.0,0.0,0.0,0.0,0.0,0.0,0.0,0.0,0.0,0.0,0.0,0.0,0.0,0.0,0.0,0.0,0.0,0.0,0.0,0.0,0.0,0.0,0.0,0.0,0.0,0.0,0.0,0.0,0.0,0.0,0.0,0.0,0.0,0.0,0.0,0.0,0.0,0.0,0.0,0.0,0.0,0.0,0.0,0.0,0.0,0.0,0.0,0.0,0.0,0.0,0.0,0.0,0.0,0.0,0.0,0.0,0.0,0.0,0.0,0.0,0.0,0.0,0.0,0.0,0.0,0.0,0.0,0.0,0.0,0.0,0.0,0.0,0.0,0.0,0.0,0.0,0.0,0.0,0.0,0.0,0.0,0.0,0.0,0.0,0.0,0.0,0.0,0.0,0.0,0.0,0.0,0.0,0.0,-0.116,-0.2332,-0.3437,0.0,0.0,0.0,0.0,0.0,0.0,0.0,0.0,0.0,0.0,0.0,0.0,0.0,0.0,0.0,0.0,0.0,0.0,0.0,0.0,0.0,0.0,0.0,0.0,0.0,0.0,0.0,0.0,0.0,0.0,0.0,0.0,0.0,0.0,0.0,0.0,0.0,0.0,0.0,0.0,0.0,0.0,0.0,0.0,0.0,0.0,0.0,0.0,0.0,0.0,0.0,0.0,0.0,0.0,0.0,0.0,0.0,0.0,0.0,0.0,0.0,0.0,0.0,0.0,0.0,0.0,0.0,0.0,0.0,0.0,0.0,0.0,0.0,0.0,0.0,0.0,0.0,0.0,0.0,0.0,0.0,0.0,0.0,0.0,0.0,0.0,0.0,0.0,0.0,0.0,0.0,0.0,0.0,0.0,0.0,0.0,0.0,0.0,0.0,0.0,0.0,0.0,0.0,0.0,0.0,0.0,0.0,0.0,0.0,0.0,0.0,0.0,-0.1158,0.0,-0.4444,0.0,0.0,0.0,0.0,0.0,0.0,0.0,0.0,0.0,0.0,0.0,0.0,0.0,0.0,0.0,0.0,0.0,0.0,0.0,0.0,0.0,0.0,0.0,0.0,0.0,0.0,0.0,0.0,0.0,0.0,0.0,0.0,0.0,0.0,0.0,0.0,0.0,0.0,0.0,0.0,0.0,0.0,0.0,0.0,0.0,0.0,0.0,0.0,0.0,0.0,0.0,0.0,0.0,0.0,0.0,0.0,0.0,0.0,0.0,0.0,0.0,0.0,0.0,0.0,0.0,0.0,0.0,0.0,0.0,0.0,0.0,0.0,0.0,0.0,0.0,0.0,0.0,0.0,0.0,0.0,0.0,0.0,0.0,0.0,0.0,0.0,0.0,0.0,0.0,0.0,0.0,0.0,0.0,0.0,0.0,0.0,0.0,0.0,0.0,0.0,0.0,0.0,0.0,0.0,0.0,0.0,0.0,0.0,0.0,0.0,0.0,0.0,-0.1661,-0.3664,0.0,0.0,0.0,0.0,0.0,0.0,0.0,0.0,0.0,0.0,0.0,0.0,0.0,0.0,0.0,0.0,0.0,0.0,0.0,0.0,0.0,0.0,0.0,0.0,0.0,0.0,0.0,0.0,0.0,0.0,0.0,0.0,0.0,0.0,0.0,0.0,0.0,0.0,0.0,0.0,0.0,0.0,0.0,0.0,0.0,0.0,0.0,0.0,0.0,0.0,0.0,0.0,0.0,0.0,0.0,0.0,0.0,0.0,0.0,0.0,0.0,0.0,0.0,0.0,0.0,0.0,0.0,0.0,0.0,0.0,0.0,0.0,0.0,0.0,0.0,0.0,0.0,0.0,0.0,0.0,0.0,0.0,0.0,0.0,0.0,0.0,0.0,0.0,0.0,0.0,0.0,0.0,0.0,0.0,0.0,0.0,0.0,0.0,0.0,0.0,0.0,0.0,0.0,0.0,0.0,0.0,0.0,0.0,0.0,0.0,0.0,-0.0145,-0.0598,-0.271,-0.4667,-0.6282,0.0,0.0,0.0,0.0,0.0,0.0,0.0,0.0,0.0,0.0,0.0,0.0,0.0,0.0,0.0,0.0,0.0,0.0,0.0,0.0,0.0,0.0,0.0,0.0,0.0,0.0,0.0,0.0,0.0,0.0,0.0,0.0,0.0,0.0,0.0,0.0,0.0,0.0,0.0,0.0,0.0,0.0,0.0,0.0,0.0,0.0,0.0,0.0,0.0,0.0,0.0,0.0,0.0,0.0,0.0,0.0,0.0,0.0,0.0,0.0,0.0,0.0,0.0,0.0,0.0,0.0,0.0,0.0,0.0,0.0,0.0,0.0,0.0,0.0,0.0,0.0,0.0,0.0,0.0,0.0,0.0,0.0,0.0,0.0,0.0,0.0,0.0,0.0,0.0,0.0,0.0,0.0,0.0,0.0,0.0,0.0,0.0,0.0,0.0,0.0,0.0,0.0,0.0,0.0,0.0,0.0,0.0,0.0,0.0,0.0,-0.0578,-0.1718,-0.4417,-0.5598,0.0,0.0,0.0,0.0,0.0,0.0,0.0,0.0,0.0,0.0,0.0,0.0,0.0,0.0,0.0,0.0,0.0,0.0,0.0,0.0,0.0,0.0,0.0,0.0,0.0,0.0,0.0,0.0,0.0,0.0,0.0,0.0,0.0,0.0,0.0,0.0,0.0,0.0,0.0,0.0,0.0,0.0,0.0,0.0,0.0,0.0,0.0,0.0,0.0,0.0,0.0,0.0,0.0,0.0,0.0,0.0,0.0,0.0,0.0,0.0,0.0,0.0,0.0,0.0,0.0,0.0,0.0,0.0,0.0,0.0,0.0,0.0,0.0,0.0,0.0,0.0,0.0,0.0,0.0,0.0,0.0,0.0,0.0,0.0,0.0,0.0,0.0,0.0,0.0,0.0,0.0,0.0,0.0,0.0,0.0,0.0,0.0,0.0,0.0,0.0,0.0,0.0,0.0,0.0,0.0,0.0,0.0,0.0,0.0,0.0,-0.0829,-0.188,-0.318,-0.4678,-0.5652,0.0,0.0,0.0,0.0,0.0,0.0,0.0,0.0,0.0,0.0,0.0,0.0,0.0,0.0,0.0,0.0,0.0,0.0,0.0,0.0,0.0,0.0,0.0,0.0,0.0,0.0,0.0,0.0,0.0,0.0,0.0,0.0,0.0,0.0,0.0,0.0,0.0,0.0,0.0,0.0,0.0,0.0,0.0,0.0,0.0,0.0,0.0,0.0,0.0,0.0,0.0,0.0,0.0,0.0,0.0,0.0,0.0,0.0,0.0,0.0,0.0,0.0,0.0,0.0,0.0,0.0,0.0,0.0,0.0,0.0,0.0,0.0,0.0,0.0,0.0,0.0,0.0,0.0,0.0,0.0,0.0,0.0,0.0,0.0,0.0,0.0,0.0,0.0,0.0,0.0,0.0,0.0,0.0,0.0,0.0,0.0,0.0,0.0,0.0,0.0,0.0,0.0,0.0,0.0,0.0,0.0,0.0,0.0,0.0,-0.0667,0.0,-0.3256,0.0,-0.5489,-0.6272,0.0,0.0,0.0,0.0,0.0,0.0,0.0,0.0,0.0,0.0,0.0,0.0,0.0,0.0,0.0,0.0,0.0,0.0,0.0,0.0,0.0,0.0,0.0,0.0,0.0,0.0,0.0,0.0,0.0,0.0,0.0,0.0,0.0,0.0,0.0,0.0,0.0,0.0,0.0,0.0,0.0,0.0,0.0,0.0,0.0,0.0,0.0,0.0,0.0,0.0,0.0,0.0,0.0,0.0,0.0,0.0,0.0,0.0,0.0,0.0,0.0,0.0,0.0,0.0,0.0,0.0,0.0,0.0,0.0,0.0,0.0,0.0,0.0,0.0,0.0,0.0,0.0,0.0,0.0,0.0,0.0,0.0,0.0,0.0,0.0,0.0,0.0,0.0,0.0,0.0,0.0,0.0,0.0,0.0,0.0,0.0,0.0,0.0,0.0,0.0,0.0,0.0,0.0,0.0,0.0,0.0,0.0,0.0,-0.0642,-0.1951,-0.3254,-0.4482,-0.5766,-0.7009,-0.7469,0.0,0.0,0.0,0.0,0.0,0.0,0.0,0.0,0.0,0.0,0.0,0.0,0.0,0.0,0.0,0.0,0.0,0.0,0.0,0.0,0.0,0.0,0.0,0.0,0.0,0.0,0.0,0.0,0.0,0.0,0.0,0.0,0.0,0.0,0.0,0.0,0.0,0.0,0.0,0.0,0.0,0.0,0.0,0.0,0.0,0.0,0.0,0.0,0.0,0.0,0.0,0.0,0.0,0.0,0.0,0.0,0.0,0.0,0.0,0.0,0.0,0.0,0.0,0.0,0.0,0.0,0.0,0.0,0.0,0.0,0.0,0.0,0.0,0.0,0.0,0.0,0.0,0.0,0.0,0.0,0.0,0.0,0.0,0.0,0.0,0.0,0.0,0.0,0.0,0.0,0.0,0.0,0.0,0.0,0.0,0.0,0.0,0.0,0.0,0.0,0.0,0.0,0.0,0.0,0.0,0.0,0.0,0.0,0.0,-0.1988,-0.3323,-0.4604,-0.5919,-0.6994,-0.7326,0.0,0.0,0.0,0.0,0.0,0.0,0.0,0.0,0.0,0.0,0.0,0.0,0.0,0.0,0.0,0.0,0.0,0.0,0.0,0.0,0.0,0.0,0.0,0.0,0.0,0.0,0.0,0.0,0.0,0.0,0.0,0.0,0.0,0.0,0.0,0.0,0.0,0.0,0.0,0.0,0.0,0.0,0.0,0.0,0.0,0.0,0.0,0.0,0.0,0.0,0.0,0.0,0.0,0.0,0.0,0.0,0.0,0.0,0.0,0.0,0.0,0.0,0.0,0.0,0.0,0.0,0.0,0.0,0.0,0.0,0.0,0.0,0.0,0.0,0.0,0.0,0.0,0.0,0.0,0.0,0.0,0.0,0.0,0.0,0.0,0.0,0.0,0.0,0.0,0.0,0.0,0.0,0.0,0.0,0.0,0.0,0.0,0.0,0.0,0.0,0.0,0.0,0.0,0.0,0.0,0.0,0.0,0.0,0.0,-0.2743,-0.3607,-0.4937,-0.6802,-0.7257,-0.7343,-0.7099,0.0,0.0,0.0,0.0,0.0,0.0,0.0,0.0,0.0,0.0,0.0,0.0,0.0,0.0,0.0,0.0,0.0,0.0,0.0,0.0,0.0,0.0,0.0,0.0,0.0,0.0,0.0,0.0,0.0,0.0,0.0,0.0,0.0,0.0,0.0,0.0,0.0,0.0,0.0,0.0,0.0,0.0,0.0,0.0,0.0,0.0,0.0,0.0,0.0,0.0,0.0,0.0,0.0,0.0,0.0,0.0,0.0,0.0,0.0,0.0,0.0,0.0,0.0,0.0,0.0,0.0,0.0,0.0,0.0,0.0,0.0,0.0,0.0,0.0,0.0,0.0,0.0,0.0,0.0,0.0,0.0,0.0,0.0,0.0,0.0,0.0,0.0,0.0,0.0,0.0,0.0,0.0,0.0,0.0,0.0,0.0,0.0,0.0,0.0,0.0,0.0,0.0,0.0,0.0,0.0,0.0,0.0,0.0,-0.4188,-0.4163,-0.5475,-0.8156,-0.7851,-0.7543,0.0,0.0,0.0,0.0,0.0,0.0,0.0,0.0,0.0,0.0,0.0,0.0,0.0,0.0,0.0,0.0,0.0,0.0,0.0,0.0,0.0,0.0,0.0,0.0,0.0,0.0,0.0,0.0,0.0,0.0,0.0,0.0,0.0,0.0,0.0,0.0,0.0,0.0,0.0,0.0,0.0,0.0,0.0,0.0,0.0,0.0,0.0,0.0,0.0,0.0,0.0,0.0,0.0,0.0,0.0,0.0,0.0,0.0,0.0,0.0,0.0,0.0,0.0,0.0,0.0,0.0,0.0,0.0,0.0,0.0,0.0,0.0,0.0,0.0,0.0,0.0,0.0,0.0,0.0,0.0,0.0,0.0,0.0,0.0,0.0,0.0,0.0,0.0,0.0,0.0,0.0,0.0,0.0,0.0,0.0,0.0,0.0,0.0,0.0,0.0,0.0,0.0,0.0,0.0,0.0,0.0,0.0,0.0,0.0,-0.4362,-0.5274,-0.6522,-0.8211,-0.8045,-0.775,0.0,0.0,0.0,0.0,0.0,0.0,0.0,0.0,0.0,0.0,0.0,0.0,0.0,0.0,0.0,0.0,0.0,0.0,0.0,0.0,0.0,0.0,0.0,0.0,0.0,0.0,0.0,0.0,0.0,0.0,0.0,0.0,0.0,0.0,0.0,0.0,0.0,0.0,0.0,0.0,0.0,0.0,0.0,0.0,0.0,0.0,0.0,0.0,0.0,0.0,0.0,0.0,0.0,0.0,0.0,0.0,0.0,0.0,0.0,0.0,0.0,0.0,0.0,0.0,0.0,0.0,0.0,0.0,0.0,0.0,0.0,0.0,0.0,0.0,0.0,0.0,0.0,0.0,0.0,0.0,0.0,0.0,0.0,0.0,0.0,0.0,0.0,0.0,0.0,0.0,0.0,0.0,0.0,0.0,0.0,0.0,0.0,0.0,0.0,0.0,0.0,0.0,0.0,0.0,0.0,0.0,0.0,0.0,-0.2965,-0.4506,-0.5709,-0.7046,-0.836,-0.8085,-0.7794,0.0,0.0,0.0,0.0,0.0,0.0,0.0,0.0,0.0,0.0,0.0,0.0,0.0,0.0,0.0,0.0,0.0,0.0,0.0,0.0,0.0,0.0,0.0,0.0,0.0,0.0,0.0,0.0,0.0,0.0,0.0,0.0,0.0,0.0,0.0,0.0,0.0,0.0,0.0,0.0,0.0,0.0,0.0,0.0,0.0,0.0,0.0,0.0,0.0,0.0,0.0,0.0,0.0,0.0,0.0,0.0,0.0,0.0,0.0,0.0,0.0,0.0,0.0,0.0,0.0,0.0,0.0,0.0,0.0,0.0,0.0,0.0,0.0,0.0,0.0,0.0,0.0,0.0,0.0,0.0,0.0,0.0,0.0,0.0,0.0,0.0,0.0,0.0,0.0,0.0,0.0,0.0,0.0,0.0,0.0,0.0,0.0,0.0,0.0,0.0,0.0,0.0,0.0,0.0,0.0,0.0,0.0,0.0,-0.2861,-0.4234,-0.5745,-0.7037,-0.8187,-0.8019,-0.7777,0.0,0.0,0.0,0.0,0.0,0.0,0.0,0.0,0.0,0.0,0.0,0.0,0.0,0.0,0.0,0.0,0.0,0.0,0.0,0.0,0.0,0.0,0.0,0.0,0.0,0.0,0.0,0.0,0.0,0.0,0.0,0.0,0.0,0.0,0.0,0.0,0.0,0.0,0.0,0.0,0.0,0.0,0.0,0.0,0.0,0.0,0.0,0.0,0.0,0.0,0.0,0.0,0.0,0.0,0.0,0.0,0.0,0.0,0.0,0.0,0.0,0.0,0.0,0.0,0.0,0.0,0.0,0.0,0.0,0.0,0.0,0.0,0.0,0.0,0.0,0.0,0.0,0.0,0.0,0.0,0.0,0.0,0.0,0.0,0.0,0.0,0.0,0.0,0.0,0.0,0.0,0.0,0.0,0.0,0.0,0.0,0.0,0.0,0.0,0.0,0.0,0.0,0.0,0.0,0.0,0.0,0.0,0.0,-0.2341,-0.2705,-0.5106,-0.6458,-0.6795,-0.7703,-0.7991,0.0,0.0,0.0,0.0,0.0,0.0,0.0,0.0,0.0,0.0,0.0,0.0,0.0,0.0,0.0,0.0,0.0,0.0,0.0,0.0,0.0,0.0,0.0,0.0,0.0,0.0,0.0,0.0,0.0,0.0,0.0,0.0,0.0,0.0,0.0,0.0,0.0,0.0,0.0,0.0,0.0,0.0,0.0,0.0,0.0,0.0,0.0,0.0,-0.3465,0.0,0.0,0.0,0.0,0.0,0.0,0.0,0.0,0.0,0.0,0.0,0.0,0.0,0.0,0.0,0.0,0.0,0.0,0.0,0.0,0.0,0.0,0.0,0.0,0.0,0.0,0.0,0.0,0.0,0.0,0.0,0.0,0.0,0.0,0.0,0.0,0.0,0.0,0.0,0.0,0.0,0.0,0.0,0.0,0.0,0.0,0.0,0.0,0.0,0.0,0.0,0.0,0.0,0.0,0.0,0.0,0.0,0.0,0.0,-0.2173,-0.2276,-0.4901,-0.6292,-0.6341,-0.7525,-0.7984,0.0,0.0,0.0,0.0,0.0,0.0,0.0,0.0,0.0,0.0,0.0,0.0,0.0,0.0,0.0,0.0,0.0,0.0,0.0,0.0,0.0,0.0,0.0,0.0,0.0,0.0,0.0,0.0,0.0,0.0,0.0,0.0,0.0,0.0,0.0,0.0,0.0,0.0,0.0,0.0,0.0,0.0,0.0,0.0,0.0,0.0,0.0,0.0,0.0,0.0,0.0,0.0,0.0,0.0,0.0,0.0,0.0,0.0,0.0,0.0,0.0,0.0,0.0,0.0,0.0,0.0,0.0,0.0,0.0,0.0,0.0,0.0,0.0,0.0,0.0,0.0,0.0,0.0,0.0,0.0,0.0,0.0,0.0,0.0,0.0,0.0,0.0,0.0,0.0,0.0,0.0,0.0,0.0,0.0,0.0,0.0,0.0,0.0,0.0,0.0,0.0,0.0,0.0,0.0,0.0,0.0,0.0,-0.1204,-0.185,-0.1958,-0.4523,-0.5957,-0.5957,-0.729,-0.785,-0.7611,0.0,0.0,0.0,0.0,0.0,0.0,0.0,0.0,0.0,0.0,0.0,0.0,0.0,0.0,0.0,0.0,0.0,0.0,0.0,0.0,0.0,0.0,0.0,0.0,0.0,0.0,0.0,0.0,0.0,0.0,0.0,0.0,0.0,0.0,0.0,0.0,0.0,0.0,0.0,0.0,0.0,0.0,0.0,0.0,0.0,0.0,0.0,0.0,-0.2872,0.0,0.0,0.0,0.0,0.0,0.0,0.0,0.0,0.0,0.0,0.0,0.0,0.0,0.0,0.0,0.0,0.0,0.0,0.0,0.0,0.0,0.0,0.0,0.0,0.0,0.0,0.0,0.0,0.0,0.0,0.0,0.0,0.0,0.0,0.0,0.0,0.0,0.0,0.0,0.0,0.0,0.0,0.0,0.0,0.0,0.0,0.0,0.0,0.0,0.0,0.0,0.0,0.0,0.0,0.0,0.0,0.0,-0.0247,-0.0349,-0.0405,-0.2978,-0.4386,-0.4437,-0.6739,-0.7853,-0.7614,0.0,0.0,0.0,0.0,0.0,0.0,0.0,0.0,0.0,0.0,0.0,0.0,0.0,0.0,0.0,0.0,0.0,0.0,0.0,0.0,0.0,0.0,0.0,0.0,0.0,0.0,0.0,0.0,0.0,0.0,0.0,0.0,0.0,0.0,0.0,0.0,0.0,0.0,0.0,0.0,0.0,0.0,0.0,0.0,0.0,0.0,0.0,0.0,0.0,-0.3858,0.0,0.0,0.0,0.0,0.0,0.0,0.0,0.0,0.0,0.0,0.0,0.0,0.0,0.0,0.0,0.0,0.0,0.0,0.0,0.0,0.0,0.0,0.0,0.0,0.0,0.0,0.0,0.0,0.0,0.0,0.0,0.0,0.0,0.0,0.0,0.0,0.0,0.0,0.0,0.0,0.0,0.0,0.0,0.0,0.0,0.0,0.0,0.0,0.0,0.0,0.0,0.0,0.0,0.0,0.0,0.0,0.0,0.0,0.0,-0.1912,-0.3314,-0.4014,-0.5867,-0.7085,0.0,0.0,0.0,0.0,0.0,0.0,0.0,0.0,0.0,0.0,0.0,0.0,0.0,0.0,0.0,0.0,0.0,0.0,0.0,0.0,0.0,0.0,0.0,0.0,0.0,0.0,0.0,0.0,0.0,0.0,0.0,0.0,0.0,0.0,0.0,0.0,0.0,0.0,0.0,0.0,0.0,0.0,0.0,0.0,0.0,0.0,0.0,0.0,0.0,-0.2131,-0.3824,0.0,0.0,0.0,0.0,0.0,0.0,0.0,0.0,0.0,0.0,0.0,0.0,0.0,0.0,0.0,0.0,0.0,0.0,0.0,0.0,0.0,0.0,0.0,0.0,0.0,0.0,0.0,0.0,0.0,0.0,0.0,0.0,0.0,0.0,0.0,0.0,0.0,0.0,0.0,0.0,0.0,0.0,0.0,0.0,0.0,0.0,0.0,0.0,0.0,0.0,0.0,0.0,0.0,0.0,0.0,0.0,0.0,0.0,0.0,-0.1561,-0.2914,-0.3964,-0.5443,-0.6645,0.0,0.0,0.0,0.0,0.0,0.0,0.0,0.0,0.0,0.0,0.0,0.0,0.0,0.0,0.0,0.0,0.0,0.0,0.0,0.0,0.0,0.0,0.0,0.0,0.0,0.0,0.0,0.0,0.0,0.0,0.0,0.0,0.0,0.0,0.0,0.0,0.0,0.0,0.0,0.0,0.0,0.0,0.0,0.0,0.0,0.0,0.0,0.0,0.0,-0.194,0.0,0.0,0.0,0.0,0.0,0.0,0.0,0.0,0.0,0.0,0.0,0.0,0.0,0.0,0.0,0.0,0.0,0.0,0.0,0.0,0.0,0.0,0.0,0.0,0.0,0.0,0.0,0.0,0.0,0.0,0.0,0.0,0.0,0.0,0.0,0.0,0.0,0.0,0.0,0.0,0.0,0.0,0.0,0.0,0.0,0.0,0.0,0.0,0.0,0.0,0.0,0.0,0.0,0.0,0.0,0.0,0.0,0.0,0.0,0.0,-0.2464,-0.3865,-0.4016,-0.6462,-0.7624,0.0,0.0,0.0,0.0,0.0,0.0,0.0,0.0,0.0,0.0,0.0,0.0,0.0,0.0,0.0,0.0,0.0,0.0,0.0,0.0,0.0,0.0,0.0,0.0,0.0,0.0,0.0,0.0,0.0,0.0,0.0,0.0,0.0,0.0,0.0,0.0,0.0,0.0,0.0,0.0,0.0,0.0,0.0,0.0,0.0,0.0,0.0,0.0,0.0,-0.1257,0.0,0.0,0.0,0.0,0.0,0.0,0.0,0.0,0.0,0.0,0.0,0.0,0.0,0.0,0.0,0.0,0.0,0.0,0.0,0.0,0.0,0.0,0.0,0.0,0.0,0.0,0.0,0.0,0.0,0.0,0.0,0.0,0.0,0.0,0.0,0.0,0.0,0.0,0.0,0.0,0.0,0.0,0.0,0.0,0.0,0.0,0.0,0.0,0.0,0.0,0.0,0.0,0.0,0.0,0.0,0.0,0.0,0.0,0.0,0.0,-0.1109,-0.2464,-0.3966,-0.4967,-0.6119,0.0,0.0,0.0,0.0,0.0,0.0,0.0,0.0,0.0,0.0,0.0,0.0,0.0,0.0,0.0,0.0,0.0,0.0,0.0,0.0,0.0,0.0,0.0,0.0,0.0,0.0,0.0,0.0,0.0,0.0,0.0,0.0,0.0,0.0,0.0,0.0,0.0,0.0,0.0,0.0,0.0,0.0,0.0,0.0,0.0,0.0,0.0,0.0,0.0,0.0,0.0,0.0,0.0,0.0,0.0,0.0,0.0,0.0,0.0,0.0,0.0,0.0,0.0,0.0,0.0,0.0,0.0,0.0,0.0,0.0,0.0,0.0,0.0,0.0,0.0,0.0,0.0,0.0,0.0,0.0,0.0,0.0,0.0,0.0,0.0,0.0,0.0,0.0,0.0,0.0,0.0,0.0,0.0,0.0,0.0,0.0,0.0,0.0,0.0,0.0,0.0,0.0,0.0,0.0,0.0,0.0,0.0,0.0,0.0,0.0,-0.0303,-0.146,-0.3413,-0.36,0.0,0.0,0.0,0.0,0.0,0.0,0.0,0.0,0.0,0.0,0.0,0.0,0.0,0.0,0.0,0.0,0.0,0.0,0.0,0.0,0.0,0.0,0.0,0.0,0.0,0.0,0.0,-0.0707,0.0,0.0,0.0,0.0,0.0,0.0,0.0,0.0,0.0,0.0,0.0,0.0,0.0,0.0,0.0,0.0,0.0,0.0,0.0,0.0,0.0,0.0,-0.0857,-0.1611,0.0,0.0,0.0,0.0,0.0,0.0,0.0,0.0,0.0,0.0,0.0,0.0,0.0,0.0,0.0,0.0,0.0,0.0,0.0,0.0,0.0,0.0,0.0,0.0,0.0,0.0,0.0,0.0,0.0,0.0,0.0,0.0,0.0,0.0,0.0,0.0,0.0,0.0,0.0,0.0,0.0,0.0,0.0,0.0,0.0,0.0,0.0,0.0,0.0,0.0,0.0,0.0,0.0,0.0,0.0,0.0,0.0,0.0,0.0,-0.1209,-0.1963,-0.2162,-0.3304,-0.437,0.0,0.0,0.0,0.0,0.0,0.0,0.0,0.0,0.0,0.0,0.0,0.0,0.0,0.0,0.0,0.0,0.0,0.0,0.0,0.0,0.0,0.0,0.0,0.0,0.0,0.0,0.0,0.0,0.0,0.0,0.0,0.0,0.0,0.0,0.0,0.0,0.0,0.0,0.0,0.0,0.0,0.0,0.0,0.0,0.0,0.0,0.0,0.0,0.0,0.0,-0.0555,-0.1762,0.0,0.0,0.0,0.0,0.0,0.0,0.0,0.0,0.0,0.0,0.0,0.0,0.0,0.0,0.0,0.0,0.0,0.0,0.0,0.0,0.0,0.0,0.0,0.0,0.0,0.0,0.0,0.0,0.0,0.0,0.0,0.0,0.0,0.0,0.0,0.0,0.0,0.0,0.0,0.0,0.0,0.0,0.0,0.0,0.0,0.0,0.0,0.0,0.0,0.0,0.0,0.0,0.0,0.0,0.0,0.0,0.0,0.0,-0.0504,-0.1152,-0.1978,-0.2428,-0.313,0.0,0.0,0.0,0.0,0.0,0.0,0.0,0.0,0.0,0.0,0.0,0.0,0.0,0.0,0.0,0.0,0.0,0.0,0.0,0.0,0.0,0.0,0.0,0.0,0.0,0.0,0.0,0.0,0.0,0.0,0.0,0.0,0.0,0.0,0.0,0.0,0.0,0.0,0.0,0.0,0.0,0.0,0.0,0.0,0.0,0.0,0.0,0.0,0.0,0.0,-0.0151,-0.0706,-0.0702,0.0,0.0,0.0,0.0,0.0,0.0,0.0,0.0,0.0,0.0,0.0,0.0,0.0,0.0,0.0,0.0,0.0,0.0,0.0,0.0,0.0,0.0,0.0,0.0,0.0,0.0,0.0,0.0,0.0,0.0,0.0,0.0,0.0,0.0,0.0,0.0,0.0,0.0,0.0,0.0,0.0,0.0,0.0,0.0,0.0,0.0,0.0,0.0,0.0,0.0,0.0,0.0,0.0,0.0,0.0,0.0,0.0,0.0,-0.0444,-0.1359,-0.1334,-0.1798,0.0,0.0,0.0,0.0,0.0,0.0,0.0,0.0,0.0,0.0,0.0,0.0,0.0,0.0,0.0,0.0,0.0,0.0,0.0,0.0,0.0,0.0,0.0,0.0,0.0,0.0,0.0,0.0,0.0,0.0,0.0,0.0,0.0,0.0,0.0,0.0,0.0,0.0,0.0,0.0,0.0,0.0,0.0,0.0,0.0,0.0,0.0,0.0,0.0,0.0,0.0,0.0,0.0,0.0,0.0,0.0,0.0,0.0,0.0,0.0,0.0,0.0,0.0,0.0,0.0,0.0,0.0,0.0,0.0,0.0,0.0,0.0,0.0,0.0,0.0,0.0,0.0,0.0,0.0,0.0,0.0,0.0,0.0,0.0,0.0,0.0,0.0,0.0,0.0,0.0,0.0,0.0,0.0,0.0,0.0,0.0,0.0,0.0,0.0,0.0,0.0,0.0,0.0,0.0,0.0,0.0,0.0,0.0,0.0,0.0,0.0,0.0,0.0,0.0,-0.0549,-0.1652,0.0,0.0,0.0,0.0,0.0,0.0,0.0,0.0,0.0,0.0,0.0,0.0,0.0,0.0,0.0,0.0,0.0,0.0,0.0,0.0,0.0,0.0,0.0,0.0,0.0,0.0,0.0,0.0,0.0,0.0,0.0,0.0,0.0,0.0,0.0,0.0,0.0,0.0,0.0,0.0,0.0,0.0,0.0,0.0,0.0,0.0,0.0,0.0,0.0,0.0,0.0,0.0,0.0,0.0,0.0,0.0,0.0,0.0,0.0,0.0,0.0,0.0,0.0,0.0,0.0,0.0,0.0,0.0,0.0,0.0,0.0,0.0,0.0,0.0,0.0,0.0,0.0,0.0,0.0,0.0,0.0,0.0,0.0,0.0,0.0,0.0,0.0,0.0,0.0,0.0,0.0,0.0,0.0,0.0,0.0,0.0,0.0,0.0,0.0,0.0,0.0,0.0,0.0,0.0,0.0,0.0,0.0,0.0,0.0,0.0,0.0,0.0,0.0,-0.0449,-0.1388,0.0,0.0,0.0,0.0,0.0,0.0,0.0,0.0,0.0,0.0,0.0,0.0,0.0,0.0,0.0,0.0,0.0,0.0,0.0,0.0,0.0,0.0,0.0,0.0,0.0,0.0,0.0,0.0,0.0,0.0,0.0,0.0,0.0,0.0,0.0,0.0,0.0,0.0,0.0,0.0,0.0,0.0,0.0,0.0,0.0,0.0,0.0,0.0,0.0,0.0,0.0,0.0,0.0,0.0,0.0,0.0,0.0,0.0,-0.1859,-0.383,-0.4931,-0.5668,-0.5999,0.0,0.0,0.0,0.0,0.0,0.0,0.0,0.0,0.0,0.0,0.0,0.0,0.0,0.0,0.0,0.0,0.0,0.0,0.0,0.0,0.0,0.0,0.0,0.0,0.0,0.0,0.0,0.0,0.0,0.0,0.0,0.0,0.0,0.0,0.0,0.0,0.0,0.0,0.0,0.0,0.0,0.0,0.0,0.0,0.0,0.0,0.0,0.0,0.0,0.0,-0.0267,-0.0834,-0.122,-0.1247,0.0,0.0,0.0,0.0,0.0,0.0,0.0,0.0,0.0,0.0,0.0,0.0,0.0,0.0,0.0,0.0,0.0,0.0,0.0,0.0,0.0,0.0,0.0,0.0,0.0,0.0,0.0,0.0,0.0,0.0,0.0,0.0,0.0,0.0,0.0,0.0,0.0,0.0,0.0,0.0,0.0,0.0,0.0,0.0,0.0,0.0,0.0,0.0,0.0,0.0,0.0,0.0,0.0,0.0,0.0,0.0,0.0,-0.3259,-0.4452,-0.5319,-0.6288,-0.7233,-0.7862,-0.777,-0.7776,-0.7848,0.0,0.0,0.0,0.0,0.0,0.0,0.0,0.0,0.0,0.0,0.0,0.0,0.0,0.0,0.0,0.0,0.0,0.0,0.0,0.0,0.0,0.0,0.0,0.0,0.0,0.0,0.0,0.0,0.0,0.0,0.0,0.0,0.0,0.0,0.0,0.0,0.0,0.0,0.0,0.0,0.0,0.0,0.0,0.0,0.0,0.0,0.0,-0.0977,-0.1069,-0.0079,-0.0996,0.0,0.0,0.0,0.0,0.0,0.0,0.0,0.0,0.0,0.0,0.0,0.0,0.0,0.0,0.0,0.0,0.0,0.0,0.0,0.0,0.0,0.0,0.0,0.0,0.0,0.0,0.0,0.0,0.0,0.0,0.0,0.0,0.0,0.0,0.0,0.0,0.0,0.0,0.0,0.0,0.0,0.0,0.0,0.0,0.0,0.0,0.0,0.0,0.0,0.0,0.0,0.0,0.0,0.0,-0.0807,-0.3413,-0.3857,-0.471,-0.717,-0.7723,-0.7935,-0.7985,-0.7965,-0.7931,0.429,0.0,0.0,0.0,0.0,0.1836,0.1412,0.1358,0.0422,0.0,0.0,0.0,0.0,0.0,0.0,0.0,0.0,0.0,0.0,0.0,0.0,0.0,0.0,0.0,0.0,0.0,0.0,0.0,0.0,0.0,0.0,0.0,0.0,0.0,0.0,0.0,0.0,0.0,0.0,0.0,0.0,0.0,0.0,0.0,0.0,0.0,0.0,-0.03,-0.0335,-0.0039,-0.0273,0.0,0.0,0.0,0.0,0.0,0.0,0.0,0.0,0.0,0.0,0.0,0.0,0.0,0.0,0.0,0.0,0.0,0.0,0.0,0.0,0.0,0.0,0.0,0.0,0.0,0.0,0.0,0.0,0.0,0.0,0.0,0.0,0.0,0.0,0.0,0.0,0.0,0.0,0.0,0.0,0.0,0.0,0.0,0.0,0.0,0.0,0.0,0.0,0.0,0.0,0.0,0.0,0.0,0.0,-0.0555,-0.2113,-0.2564,-0.3215,-0.4768,-0.5874,-0.6883,-0.7736,-0.7988,-0.7944,0.6331,0.548,0.4441,0.3987,0.3945,0.3115,0.2491,0.2,0.1727,0.0994,0.0046,0.0547,0.0535,0.0,0.0,0.0,0.0,0.0,0.0,0.0,0.0,0.0,0.0,0.0,0.0,0.0,0.0,0.0,0.0,0.0,0.0,0.0,0.0,0.0,0.0,0.0,0.0,0.0,0.0,0.0,0.0,0.0,0.0,0.0,0.0,0.0,0.0,0.0,0.0,0.0,0.0,0.0,0.0,0.0,0.0,0.0,0.0,0.0,0.0,0.0,0.0,0.0,0.0,0.0,0.0,0.0,0.0,0.0,0.0,0.0,0.0,0.0,0.0,0.0,0.0,0.0,0.0,0.0,0.0,0.0,0.0,0.0,0.0,0.0,0.0,0.0,0.0,0.0,0.0,0.0,0.0,0.0,0.0,0.0,0.0,0.0,0.0,0.0,0.0,0.0,0.0,0.0,0.0,0.0,0.0,-0.0252,-0.1048,-0.1196,-0.199,-0.4223,-0.5397,-0.6401,-0.7599,-0.7857,-0.7857,0.7988,0.7763,0.5369,0.434,0.43,0.4182,0.3447,0.2394,0.3497,0.2614,0.0428,0.1491,0.1234,0.0,0.0,0.0,0.0,0.0,0.0,0.0,0.0,0.0,0.0,0.0,0.0,0.0,0.0,0.0,0.0,0.0,0.0,0.0,0.0,0.0,0.0,0.0,0.0,0.0,0.0,0.0,0.0,0.0,0.0,0.0,0.0,0.0,0.0,0.0,0.0,0.0,0.0,0.0,0.0,0.0,0.0,0.0,0.0,0.0,0.0,0.0,0.0,0.0,0.0,0.0,0.0,0.0,0.0,0.0,0.0,0.0,0.0,0.0,0.0,0.0,0.0,0.0,0.0,0.0,0.0,0.0,0.0,0.0,0.0,0.0,0.0,0.0,0.0,0.0,0.0,0.0,0.0,0.0,0.0,0.0,0.0,0.0,0.0,0.0,0.0,0.0,0.0,0.0,0.0,0.0,0.0,0.0,0.0,0.0,-0.1123,-0.4663,-0.5473,-0.5984,-0.7108,-0.747,-0.7555,0.7988,0.7932,0.7316,0.7039,0.6944,0.5929,0.5327,0.4956,0.4221,0.3482,0.2846,0.2141,0.1143,0.0,0.0,0.0,0.0,0.0,0.0,0.0,0.0,0.0,0.0,0.0,0.0,0.0,0.0,0.0,0.0,0.0,0.0,0.0,0.0,0.0,0.0,0.0,0.0,0.0,0.0,0.0,0.0,0.0,0.0,0.0,0.0,0.0,0.0,0.0,0.0,0.0,0.0,0.0,0.0,0.0,0.0,0.0,0.0,0.0,0.0,0.0,0.0,0.0,0.0,0.0,0.0,0.0,0.0,0.0,0.0,0.0,0.0,0.0,0.0,0.0,0.0,0.0,0.0,0.0,0.0,0.0,0.0,0.0,0.0,0.0,0.0,0.0,0.0,0.0,0.0,0.0,0.0,0.0,0.0,0.0,0.0,0.0,0.0,0.0,0.0,0.0,0.0,0.0,0.0,0.0,0.0,0.0,0.0,0.0,0.0,-0.2304,-0.2851,-0.3606,-0.575,-0.6236,-0.6502,0.7988,0.7988,0.7988,0.7988,0.7939,0.7235,0.6531,0.5972,0.5711,0.4927,0.3742,0.2948,0.2215,0.1612,0.1612,0.13,0.0807,0.0808,0.0494,0.0,0.0,0.0,0.0,0.0,0.0,0.0,0.0,0.0,0.0,0.0,0.0,0.0,0.0,0.0,0.0,0.0,0.0,0.0,0.0,0.0,0.0,0.0,0.0,0.0,0.0,0.0,0.0,0.0,0.0,0.0,0.0,0.0,0.0,0.0,0.0,0.0,0.0,0.0,0.0,0.0,0.0,0.0,0.0,0.0,0.0,0.0,0.0,0.0,0.0,0.0,0.0,0.0,0.0,0.0,0.0,0.0,0.0,0.0,0.0,0.0,0.0,0.0,0.0,0.0,0.0,0.0,0.0,0.0,0.0,0.0,0.0,0.0,0.0,0.0,0.0,0.0,0.0,0.0,0.0,0.0,0.0,0.0,0.0,0.0,0.0,0.0,0.0,0.0,0.0,-0.0736,-0.1059,-0.2036,-0.4296,-0.5301,-0.5912,0.7988,0.7988,0.7988,0.7988,0.7988,0.7988,0.7338,0.6321,0.7317,0.6339,0.3995,0.3899,0.3749,0.3614,0.3614,0.3037,0.2057,0.2013,0.1389,0.027,0.0225,0.018,0.0,0.0,0.0,0.0,0.0,0.0,0.0,0.0,0.0,0.0,0.0,0.0,0.0,0.0,0.0,0.0,0.0,0.0,0.0,0.0,0.0,0.0,0.0,0.0,0.0,0.0,0.0,0.0,0.0,0.0,0.0,0.0,0.0,0.0,0.0,0.0,0.0,0.0,0.0,0.0,0.0,0.0,0.0,0.0,0.0,0.0,0.0,0.0,0.0,0.0,0.0,0.0,0.0,0.0,0.0,0.0,0.0,0.0,0.0,0.0,0.0,0.0,0.0,0.0,0.0,0.0,0.0,0.0,0.0,0.0,0.0,0.0,0.0,0.0,0.0,0.0,0.0,0.0,0.0,0.0,0.0,0.0,0.0,0.0,0.0,0.0,0.0,0.0,0.0,0.0,-0.2867,-0.4338,-0.5272,0.7988,0.7988,0.7988,0.7988,0.7988,0.7988,0.7839,0.7621,0.7657,0.6688,0.5105,0.5062,0.4508,0.3614,0.3614,0.3481,0.326,0.326,0.2592,0.1478,0.1478,0.0942,0.0,0.0,0.0,0.0,0.0,0.0,0.0,0.0,0.0,0.0,0.0,0.0,0.0,0.0,0.0,0.0,0.0,0.0,0.0,0.0,0.0,0.0,0.0,0.0,0.0,0.0,0.0,0.0,0.0,0.0,0.0,0.0,0.0,0.0,0.0,0.0,0.0,0.0,0.0,0.0,0.0,0.0,0.0,0.0,0.0,0.0,0.0,0.0,0.0,0.0,0.0,0.0,0.0,0.0,0.0,0.0,0.0,0.0,0.0,0.0,0.0,0.0,0.0,0.0,0.0,0.0,0.0,0.0,0.0,0.0,0.0,0.0,0.0,0.0,0.0,0.0,0.0,0.0,0.0,0.0,0.0,0.0,0.0,0.0,0.0,0.0,0.0,0.0,0.0,-0.044,-0.1871,-0.3006,-0.4047,0.7988,0.0,0.7988,0.7988,0.0,0.796,0.7926,0.7909,0.7695,0.7102,0.6251,0.6248,0.5891,0.5309,0.5307,0.4996,0.4508,0.4508,0.384,0.2725,0.2681,0.2369,0.179,0.179,0.179,0.1745,0.1153,0.0888,0.0851,0.0264,0.0,0.0,0.0,0.0,0.0,0.0,0.0,0.0,0.0,0.0,0.0,0.0,0.0,0.0,0.0,0.0,0.0,0.0,0.0,0.0,0.0,0.0,0.0,0.0,0.0,0.0,0.0,0.0,0.0,0.0,0.0,0.0,0.0,0.0,0.0,0.0,0.0,0.0,0.0,0.0,0.0,0.0,0.0,0.0,0.0,0.0,0.0,0.0,0.0,0.0,0.0,0.0,0.0,0.0,0.0,0.0,0.0,0.0,0.0,0.0,0.0,0.0,0.0,0.0,0.0,0.0,0.0,0.0,0.0,0.0,0.0,0.0,0.0,0.0,0.0,0.0,0.0,0.0,0.0,0.0,0.0,0.0,-0.0867,-0.1805,-0.2905,0.7988,0.7988,0.7988,0.7975,0.7938,0.7862,0.778,0.7726,0.0,0.0,0.0,0.7095,0.7095,0.7095,0.7095,0.6605,0.5714,0.5672,0.5043,0.3927,0.3926,0.3792,0.3614,0.3614,0.3563,0.3503,0.2533,0.2051,0.1988,0.0855,0.0255,0.0259,0.0087,0.0,0.0,0.0,0.0,0.0,0.0,0.0,0.0,0.0,0.0,0.0,0.0,0.0,0.0,0.0,0.0,0.0,0.0,0.0,0.0,0.0,0.0,0.0,0.0,0.0,0.0,0.0,0.0,0.0,0.0228,0.0325,0.0333,0.0335,0.0437,0.0704,0.0504,0.0,0.0353,0.0,0.0353,0.0353,0.0555,0.0,0.0,0.0703,0.0,0.065,0.0,0.0,0.0,0.0,0.0,0.0,0.0,0.0,0.0,0.0,0.0,0.0,0.0,0.0,0.0,0.0,0.0,0.0,0.0,0.0,0.0,0.0,0.0,0.0,0.0,0.0,0.0,0.0,0.0,0.0,0.0,0.0,0.0,-0.0791,-0.1786,0.7988,0.7988,0.7988,0.7963,0.7841,0.7821,0.7668,0.748,0.746,0.7302,0.7098,0.7095,0.7095,0.7095,0.7095,0.7007,0.6874,0.6874,0.6248,0.0,0.5134,0.4596,0.3614,0.3614,0.3537,0.3439,0.3251,0.3092,0.2834,0.1892,0.1386,0.1264,0.0464,0.0,0.0,0.0,0.0,0.0,0.0,0.0,0.0,0.0,0.0,0.0,0.0,0.0,0.0,0.0,0.0,0.0,0.0,0.0,0.0,0.0,0.0,0.0,0.0,0.0,0.0,0.0,0.0,0.0,0.0944,0.16,0.1708,0.1739,0.2211,0.3207,0.2362,0.1711,0.1712,0.1711,0.171,0.1811,0.2764,0.3396,0.3149,0.3095,0.3078,0.2887,0.2156,0.1538,0.1492,0.0719,0.0,0.0,0.0,0.0,0.0,0.0,0.0,0.0,0.0,0.0,0.0,0.0,0.0,0.0,0.0,0.0,0.0,0.0,0.0,0.0,0.0,0.0,0.0,0.0,0.0,0.0,0.0,0.0,0.0,0.0,0.0,0.7988,0.7978,0.7901,0.7875,0.7797,0.7641,0.7448,0.7255,0.7248,0.7207,0.7098,0.7095,0.7095,0.7095,0.7095,0.7095,0.7095,0.7095,0.6827,0.6337,0.6293,0.6021,0.5526,0.5427,0.5372,0.5276,0.4519,0.418,0.397,0.2942,0.2397,0.238,0.1911,0.1699,0.166,0.1682,0.1393,0.0878,0.0286,0.0,0.0,0.0,0.0,0.0,0.0,0.0,0.0,0.0,0.0,0.0,0.0,0.0241,0.081,0.0325,0.0534,0.1677,0.1286,0.1271,0.1921,0.1968,0.1969,0.1968,0.2458,0.3122,0.3917,0.3297,0.3164,0.3798,0.3316,0.2984,0.306,0.3039,0.2973,0.2971,0.3564,0.3829,0.3724,0.3743,0.3734,0.3574,0.3133,0.2755,0.2802,0.2306,0.1638,0.1123,0.0512,0.046,0.1636,0.1326,0.0736,0.0,0.0,0.0,0.0,0.0,0.0,0.0,0.0,0.0,0.0,0.0,0.0,0.0,0.0,0.0,0.0,0.0,0.0,0.0,0.0,0.0,0.0,0.0,0.0,0.7988,0.7975,0.7875,0.7773,0.7692,0.7431,0.7251,0.7102,0.7098,0.7095,0.7095,0.7095,0.7095,0.7095,0.7095,0.7095,0.7095,0.7095,0.7095,0.7095,0.7095,0.7078,0.7041,0.6933,0.6895,0.6726,0.572,0.5257,0.5089,0.4053,0.331,0.312,0.3112,0.3115,0.3129,0.3113,0.2696,0.192,0.0918,0.0242,0.0,0.0,0.0,0.0,0.0,0.0,0.0,0.0,0.0119,0.0356,0.0356,0.083,0.1816,0.1165,0.1472,0.2993,0.256,0.2579,0.3472,0.3553,0.3553,0.3614,0.3838,0.4448,0.5337,0.4892,0.4463,0.4576,0.4415,0.4248,0.4336,0.4257,0.4223,0.4223,0.4514,0.4718,0.4549,0.4538,0.4546,0.4418,0.4165,0.4023,0.3969,0.3786,0.3159,0.2239,0.1357,0.1656,0.3065,0.2715,0.1831,0.1064,0.0755,0.0,0.0757,0.0,0.0,0.0345,0.0,0.0,0.0,0.0,0.0,0.0,0.0,0.0,0.0,0.0,0.0,0.0,0.0,0.0,0.0,0.0,0.0,0.7988,0.7965,0.7868,0.7655,0.7407,0.7238,0.7112,0.7095,0.7095,0.7095,0.7095,0.7095,0.7095,0.7095,0.7095,0.7095,0.7095,0.7095,0.7095,0.7095,0.7095,0.7031,0.6959,0.6886,0.6783,0.6549,0.6361,0.6169,0.6048,0.5057,0.4068,0.3212,0.3125,0.3205,0.3173,0.3166,0.3085,0.2968,0.1961,0.0984,0.0,0.0,0.0,0.0,0.0,0.0,0.0,0.0,0.0486,0.1336,0.1455,0.1899,0.2822,0.2829,0.2876,0.3131,0.3214,0.3364,0.36,0.3423,0.3503,0.3652,0.4643,0.5275,0.5513,0.6269,0.6924,0.6876,0.6083,0.5474,0.5431,0.5424,0.5419,0.5467,0.6375,0.7226,0.6869,0.7076,0.6982,0.6793,0.5773,0.5211,0.5141,0.4354,0.3669,0.3616,0.3067,0.3043,0.3617,0.3513,0.3377,0.2998,0.2956,0.2992,0.2773,0.209,0.1475,0.1346,0.0631,0.0,0.0,0.0,0.0,0.0,0.0,0.0,0.0,0.0,0.0,0.0,0.0,0.0,0.0,0.0,0.0,0.7934,0.7889,0.7746,0.7512,0.7244,0.7122,0.7095,0.7095,0.7095,0.7095,0.7095,0.7095,0.7095,0.7095,0.7095,0.7095,0.7095,0.7095,0.7095,0.7088,0.7011,0.6943,0.6876,0.6736,0.6627,0.6471,0.6429,0.6354,0.6229,0.5825,0.5395,0.504,0.5002,0.5002,0.5002,0.5002,0.4688,0.4062,0.3634,0.2893,0.1839,0.0627,0.0,0.0,0.0588,0.0941,0.102,0.1503,0.2063,0.246,0.25,0.2974,0.4003,0.3452,0.372,0.4942,0.525,0.5398,0.5556,0.5478,0.5499,0.5656,0.6113,0.6428,0.6428,0.683,0.7159,0.7215,0.6893,0.6694,0.6714,0.6712,0.6666,0.6756,0.7181,0.7404,0.7255,0.7316,0.7312,0.7122,0.6694,0.6384,0.6236,0.5295,0.4839,0.5006,0.4385,0.3815,0.4932,0.4791,0.4648,0.5087,0.522,0.4562,0.3588,0.2876,0.2306,0.1724,0.1261,0.0843,0.0,0.0,0.0,0.0,0.0,0.0,0.0,0.0,0.0,0.0,0.0,0.0,0.0,0.0,0.0,0.7901,0.7794,0.7617,0.7387,0.7102,0.7095,0.7095,0.7095,0.7095,0.7095,0.7095,0.7095,0.7095,0.7095,0.7095,0.7095,0.7095,0.7095,0.7095,0.7078,0.695,0.6866,0.6844,0.66,0.6491,0.6439,0.6351,0.63,0.63,0.63,0.63,0.63,0.63,0.63,0.63,0.63,0.5944,0.5198,0.4882,0.4295,0.3398,0.18,0.0862,0.0901,0.1605,0.1996,0.2035,0.2695,0.324,0.3515,0.3552,0.4021,0.5004,0.4407,0.4738,0.6268,0.6536,0.6668,0.6848,0.6827,0.6842,0.7011,0.7038,0.7058,0.7088,0.7095,0.7095,0.7112,0.7241,0.7314,0.7434,0.7373,0.7312,0.7309,0.7309,0.7255,0.7125,0.7248,0.7261,0.7115,0.7051,0.7078,0.6896,0.6211,0.5797,0.619,0.5241,0.4499,0.6115,0.5921,0.5726,0.6474,0.6468,0.5832,0.433,0.3743,0.3217,0.2681,0.2336,0.1652,0.0667,0.0,0.0,0.0,0.0,0.0,0.0,0.0,0.0,0.0,0.0,0.0,0.0,0.0,0.0,0.7901,0.7773,0.7502,0.7288,0.7095,0.7095,0.7095,0.7095,0.7095,0.7095,0.7095,0.7095,0.7095,0.7095,0.7095,0.7095,0.7095,0.7095,0.7095,0.7082,0.6943,0.6805,0.6705,0.6546,0.6439,0.6334,0.6313,0.63,0.63,0.63,0.63,0.63,0.63,0.63,0.63,0.63,0.6257,0.6022,0.5276,0.4727,0.453,0.3552,0.2968,0.2968,0.3007,0.3046,0.3046,0.3085,0.3591,0.4611,0.4608,0.5118,0.6064,0.6112,0.6175,0.6474,0.6395,0.6417,0.6647,0.6593,0.6637,0.6888,0.6913,0.6957,0.7082,0.7095,0.7095,0.7095,0.7112,0.7136,0.7146,0.7149,0.7173,0.7122,0.7115,0.7109,0.7098,0.7112,0.7109,0.7095,0.7082,0.7011,0.69,0.6765,0.6542,0.663,0.6475,0.6429,0.6364,0.6515,0.6471,0.6374,0.6433,0.6431,0.6184,0.5311,0.4687,0.4084,0.3262,0.2696,0.2035,0.0,0.0941,0.047,0.0,0.0,0.0,0.0,0.0,0.0,0.0,0.0,0.0,0.0,0.0,0.775,0.7516,0.7309,0.719,0.7098,0.7095,0.7095,0.7095,0.7095,0.7095,0.7095,0.7095,0.7095,0.7095,0.7095,0.7095,0.7095,0.7095,0.7095,0.7068,0.6895,0.6756,0.6681,0.6454,0.6354,0.6306,0.63,0.63,0.63,0.63,0.63,0.63,0.63,0.63,0.63,0.63,0.63,0.6257,0.5867,0.5747,0.567,0.5356,0.5157,0.5118,0.4453,0.4139,0.4139,0.4766,0.5354,0.5709,0.5709,0.5906,0.6257,0.63,0.632,0.6361,0.6327,0.6385,0.6555,0.6545,0.6603,0.6885,0.6886,0.6937,0.7061,0.7095,0.7095,0.7095,0.7095,0.7095,0.7095,0.7095,0.7095,0.7095,0.7095,0.7095,0.7095,0.7095,0.7095,0.7082,0.7021,0.6869,0.6712,0.6586,0.6562,0.648,0.646,0.6439,0.6405,0.6429,0.6383,0.6344,0.634,0.6375,0.6378,0.6067,0.5553,0.4885,0.4178,0.3591,0.2968,0.2611,0.2182,0.1316,0.0966,0.0,0.0,0.0,0.0,0.0,0.0,0.0,0.0,0.0,0.0,0.7553,0.7363,0.7204,0.7095,0.7095,0.7095,0.7095,0.7095,0.7095,0.7095,0.7095,0.7095,0.7095,0.7095,0.7095,0.7095,0.7095,0.7095,0.7071,0.7007,0.6814,0.6678,0.6593,0.6416,0.63,0.63,0.63,0.63,0.63,0.63,0.63,0.63,0.63,0.63,0.63,0.63,0.63,0.63,0.63,0.63,0.63,0.63,0.63,0.618,0.5589,0.5237,0.5237,0.5906,0.63,0.63,0.63,0.63,0.63,0.63,0.63,0.63,0.63,0.634,0.6426,0.6443,0.6552,0.6749,0.6783,0.6854,0.6994,0.7028,0.7045,0.7078,0.7095,0.7095,0.7095,0.7095,0.7095,0.7095,0.7095,0.7095,0.7092,0.7051,0.7001,0.693,0.6854,0.6685,0.6559,0.648,0.6409,0.631,0.63,0.63,0.63,0.63,0.63,0.63,0.6303,0.631,0.632,0.6151,0.6064,0.5512,0.5196,0.4564,0.3988,0.3675,0.3156,0.2294,0.1514,0.0971,0.0,0.0,0.0,0.0,0.0,0.0,0.0,0.0,0.0,0.7415,0.7339,0.72,0.7095,0.7095,0.7095,0.7095,0.7095,0.7095,0.7095,0.7095,0.7095,0.7095,0.7095,0.7095,0.7095,0.7095,0.7082,0.7014,0.6896,0.6763,0.661,0.6525,0.6375,0.63,0.63,0.63,0.63,0.63,0.63,0.63,0.63,0.63,0.63,0.63,0.63,0.63,0.63,0.63,0.63,0.63,0.63,0.63,0.63,0.618,0.6141,0.6219,0.6257,0.63,0.63,0.63,0.63,0.63,0.63,0.63,0.63,0.63,0.6303,0.6306,0.6317,0.6388,0.6495,0.6538,0.6637,0.6829,0.6883,0.6933,0.7041,0.7075,0.7082,0.7092,0.7082,0.7082,0.7095,0.7095,0.7095,0.7071,0.697,0.6868,0.6736,0.6603,0.6528,0.6484,0.6402,0.632,0.6306,0.63,0.63,0.63,0.63,0.63,0.63,0.63,0.63,0.63,0.6296,0.6257,0.618,0.6057,0.5654,0.4939,0.4523,0.3953,0.3136,0.1728,0.1123,0.0674,0.0,0.0,0.0,0.0,0.0,0.0,0.0,0.0,0.7214,0.7162,0.7119,0.7095,0.7095,0.7095,0.7095,0.7095,0.7095,0.7095,0.7095,0.7095,0.7095,0.7095,0.7095,0.7095,0.7088,0.7001,0.6927,0.6842,0.6664,0.6562,0.6491,0.6364,0.63,0.63,0.63,0.63,0.63,0.63,0.63,0.63,0.63,0.63,0.63,0.63,0.63,0.63,0.63,0.63,0.63,0.63,0.63,0.63,0.63,0.63,0.63,0.63,0.63,0.63,0.63,0.63,0.63,0.63,0.63,0.63,0.63,0.63,0.63,0.6303,0.6361,0.6477,0.6511,0.6607,0.6736,0.6773,0.6841,0.6923,0.6953,0.6984,0.7058,0.7004,0.6991,0.7082,0.7095,0.7075,0.7041,0.6953,0.6817,0.6597,0.6542,0.6474,0.6388,0.631,0.6303,0.63,0.63,0.63,0.63,0.63,0.63,0.63,0.63,0.63,0.63,0.63,0.63,0.63,0.6257,0.6173,0.5566,0.5195,0.4659,0.3772,0.239,0.1405,0.0961,0.0,0.0,0.0,0.0,0.0,0.0,0.0,0.0,0.7095,0.7095,0.7095,0.7095,0.7095,0.7095,0.7095,0.7095,0.7095,0.7095,0.7095,0.7095,0.7095,0.7095,0.7095,0.7065,0.7007,0.6866,0.681,0.6746,0.6583,0.6491,0.6436,0.6347,0.63,0.63,0.63,0.63,0.63,0.63,0.63,0.63,0.63,0.63,0.63,0.63,0.63,0.63,0.63,0.63,0.63,0.63,0.63,0.63,0.63,0.63,0.63,0.63,0.63,0.63,0.63,0.63,0.63,0.63,0.63,0.63,0.63,0.63,0.63,0.63,0.6334,0.6416,0.6433,0.6501,0.658,0.6614,0.6685,0.6814,0.6844,0.6836,0.6896,0.6905,0.6849,0.6916,0.6966,0.6906,0.6898,0.6814,0.6661,0.6497,0.6426,0.6385,0.6327,0.63,0.63,0.63,0.63,0.63,0.63,0.63,0.63,0.63,0.63,0.63,0.63,0.63,0.63,0.63,0.6296,0.6115,0.5788,0.5659,0.5307,0.4272,0.3034,0.2132,0.1585,0.1012,0.0,0.0,0.0,0.0,0.0,0.0,0.0,0.7095,0.7095,0.7095,0.7095,0.7095,0.7095,0.7095,0.7095,0.7095,0.7095,0.7095,0.7095,0.7095,0.7095,0.7075,0.7004,0.6919,0.6756,0.6627,0.6536,0.6451,0.6426,0.633,0.6306,0.63,0.63,0.63,0.63,0.63,0.63,0.63,0.63,0.63,0.63,0.63,0.63,0.63,0.63,0.63,0.63,0.63,0.63,0.63,0.63,0.63,0.63,0.63,0.63,0.63,0.63,0.63,0.63,0.63,0.63,0.63,0.63,0.63,0.63,0.63,0.63,0.6306,0.6317,0.6327,0.6351,0.6477,0.6508,0.6566,0.6668,0.6688,0.6698,0.6722,0.6698,0.6695,0.6678,0.6725,0.6685,0.6519,0.6542,0.6487,0.6364,0.6303,0.63,0.63,0.63,0.63,0.63,0.63,0.63,0.63,0.63,0.63,0.6296,0.6296,0.63,0.6296,0.6183,0.6176,0.6159,0.6149,0.6017,0.5867,0.5803,0.5686,0.4691,0.3818,0.2922,0.2211,0.1642,0.104,0.0,0.0,0.0,0.0,0.0,0.0,0.7095,0.7095,0.7095,0.7095,0.7095,0.7095,0.7095,0.7095,0.7095,0.7095,0.7095,0.7095,0.7095,0.7085,0.6987,0.692,0.6868,0.6654,0.6522,0.6501,0.6395,0.6344,0.6306,0.63,0.63,0.63,0.63,0.63,0.63,0.63,0.63,0.63,0.63,0.63,0.63,0.63,0.63,0.63,0.63,0.63,0.63,0.63,0.63,0.63,0.63,0.63,0.63,0.63,0.63,0.63,0.63,0.63,0.63,0.63,0.63,0.63,0.63,0.63,0.63,0.63,0.63,0.63,0.63,0.6313,0.6344,0.6358,0.6426,0.6538,0.6576,0.6617,0.6647,0.6597,0.6545,0.646,0.6556,0.6617,0.6542,0.6508,0.6457,0.633,0.63,0.63,0.63,0.63,0.63,0.63,0.63,0.63,0.63,0.6269,0.6259,0.6286,0.6293,0.6296,0.6269,0.6139,0.6081,0.6013,0.5993,0.5884,0.5742,0.5633,0.5494,0.5076,0.4439,0.3618,0.2978,0.2409,0.1709,0.1108,0.0,0.0,0.0,0.0,0.0,0.7095,0.7095,0.7095,0.7095,0.7095,0.7095,0.7095,0.7095,0.7095,0.7095,0.7095,0.7095,0.7095,0.7082,0.6953,0.6892,0.6807,0.6583,0.6487,0.6412,0.634,0.6303,0.63,0.63,0.63,0.63,0.63,0.63,0.63,0.63,0.63,0.63,0.63,0.63,0.63,0.63,0.63,0.63,0.63,0.63,0.63,0.63,0.63,0.63,0.63,0.63,0.63,0.63,0.63,0.63,0.63,0.63,0.63,0.63,0.63,0.63,0.63,0.63,0.63,0.63,0.63,0.63,0.63,0.63,0.6303,0.63,0.6351,0.6409,0.6422,0.6467,0.6515,0.6474,0.6392,0.6347,0.6457,0.6478,0.6433,0.6416,0.6385,0.6323,0.63,0.63,0.63,0.63,0.63,0.63,0.63,0.63,0.6293,0.621,0.6162,0.6162,0.6156,0.6074,0.6054,0.5983,0.5925,0.5898,0.582,0.5718,0.5678,0.5549,0.5437,0.5229,0.4821,0.4384,0.3713,0.3145,0.2678,0.2078,0.1443,0.0974,0.074,0.0572,0.0505,0.7095,0.7095,0.7095,0.7095,0.7095,0.7095,0.7095,0.7095,0.7095,0.7095,0.7095,0.7095,0.7095,0.7085,0.6913,0.6785,0.6698,0.6555,0.6422,0.6344,0.63,0.63,0.63,0.63,0.63,0.63,0.63,0.63,0.63,0.63,0.63,0.63,0.63,0.63,0.63,0.63,0.63,0.63,0.63,0.63,0.63,0.63,0.63,0.63,0.63,0.63,0.63,0.63,0.63,0.63,0.63,0.63,0.63,0.63,0.63,0.63,0.63,0.63,0.63,0.63,0.63,0.63,0.63,0.63,0.63,0.63,0.6306,0.6323,0.63,0.6327,0.6334,0.631,0.6313,0.6303,0.6317,0.6306,0.63,0.63,0.63,0.63,0.63,0.63,0.63,0.6296,0.63,0.63,0.6289,0.6269,0.6231,0.6129,0.6061,0.6006,0.5935,0.5837,0.5823,0.5806,0.5762,0.5722,0.5637,0.5559,0.5579,0.5491,0.5436,0.5259,0.5024,0.4788,0.4384,0.3915,0.348,0.3011,0.2344,0.1976,0.1675,0.1542,0.1442,0.7095,0.7095,0.7095,0.7095,0.7095,0.7095,0.7095,0.7095,0.7095,0.7095,0.7095,0.7095,0.7095,0.7078,0.6852,0.6725,0.6668,0.6491,0.6323,0.631,0.63,0.63,0.63,0.63,0.63,0.63,0.63,0.63,0.63,0.63,0.63,0.63,0.63,0.63,0.63,0.63,0.63,0.63,0.63,0.63,0.63,0.63,0.63,0.63,0.63,0.63,0.63,0.63,0.63,0.63,0.63,0.63,0.63,0.63,0.63,0.63,0.63,0.63,0.63,0.63,0.63,0.63,0.63,0.63,0.63,0.63,0.63,0.63,0.63,0.63,0.63,0.63,0.63,0.63,0.63,0.63,0.63,0.63,0.63,0.63,0.63,0.63,0.6296,0.6286,0.6286,0.6296,0.6269,0.6238,0.6122,0.6037,0.5959,0.5874,0.5776,0.5691,0.5681,0.5661,0.561,0.5583,0.5504,0.5487,0.5474,0.5457,0.5409,0.5395,0.5359,0.509,0.4788,0.442,0.3951,0.358,0.3278,0.2911,0.2611,0.2477,0.2131,0.7095,0.7095,0.7095,0.7095,0.7095,0.7095,0.7095,0.7095,0.7095,0.7095,0.7095,0.7095,0.7095,0.7078,0.6869,0.6776,0.6641,0.6439,0.63,0.63,0.63,0.63,0.63,0.63,0.63,0.63,0.63,0.63,0.63,0.63,0.63,0.63,0.63,0.63,0.63,0.63,0.63,0.63,0.63,0.63,0.63,0.63,0.63,0.63,0.63,0.63,0.63,0.63,0.63,0.63,0.63,0.63,0.63,0.63,0.63,0.63,0.63,0.63,0.63,0.63,0.63,0.63,0.63,0.63,0.63,0.63,0.63,0.63,0.63,0.63,0.63,0.63,0.63,0.63,0.63,0.63,0.63,0.63,0.63,0.63,0.63,0.63,0.6293,0.62,0.6152,0.6125,0.6122,0.6084,0.5973,0.5888,0.582,0.5735,0.5668,0.56,0.5586,0.5552,0.5498,0.5477,0.5453,0.5429,0.5423,0.5412,0.5399,0.5395,0.5395,0.5395,0.5123,0.4755,0.4589,0.4553,0.4284,0.3849,0.3509,0.3332,0.2839,0.7095,0.7095,0.7095,0.7095,0.7095,0.7095,0.7095,0.7095,0.7095,0.7095,0.7085,0.7078,0.7045,0.7018,0.6859,0.6766,0.6593,0.6453,0.63,0.63,0.63,0.63,0.63,0.63,0.63,0.63,0.63,0.63,0.63,0.63,0.63,0.63,0.63,0.63,0.63,0.63,0.63,0.63,0.63,0.63,0.63,0.63,0.63,0.63,0.63,0.63,0.63,0.63,0.63,0.63,0.63,0.63,0.63,0.63,0.63,0.63,0.63,0.63,0.63,0.63,0.63,0.63,0.6262,0.6279,0.6286,0.623,0.6224,0.6289,0.63,0.63,0.63,0.63,0.63,0.63,0.63,0.63,0.63,0.63,0.63,0.6293,0.621,0.6176,0.6139,0.6088,0.6037,0.5993,0.5956,0.5952,0.5833,0.5752,0.5691,0.561,0.5545,0.5508,0.5494,0.5494,0.5429,0.5416,0.5395,0.5395,0.5395,0.5395,0.5395,0.5395,0.5395,0.5392,0.5392,0.5193,0.516,0.5395,0.5153,0.4549,0.4287,0.4172,0.3554,0.7095,0.7095,0.7095,0.7095,0.7095,0.7095,0.7095,0.7095,0.7095,0.7095,0.7082,0.6977,0.6933,0.6866,0.6664,0.6521,0.6439,0.6334,0.63,0.63,0.63,0.63,0.63,0.63,0.63,0.63,0.63,0.63,0.63,0.63,0.63,0.63,0.63,0.63,0.63,0.63,0.63,0.63,0.63,0.63,0.63,0.63,0.63,0.63,0.63,0.63,0.63,0.63,0.63,0.63,0.63,0.63,0.63,0.63,0.63,0.6296,0.6279,0.6272,0.6296,0.6279,0.6293,0.6272,0.6142,0.6139,0.6176,0.6159,0.6159,0.6269,0.63,0.63,0.63,0.63,0.63,0.63,0.63,0.6289,0.6286,0.6279,0.6339,0.6381,0.6242,0.6078,0.6047,0.5979,0.5881,0.5844,0.584,0.5776,0.5661,0.561,0.5579,0.5491,0.5426,0.5416,0.5412,0.5419,0.5402,0.5405,0.5395,0.5395,0.5395,0.5395,0.5392,0.5354,0.5365,0.5385,0.5385,0.5371,0.5388,0.5382,0.5238,0.5108,0.4826,0.4531,0.4261,0.8017,0.7973,0.736,0.7095,0.7095,0.7095,0.7095,0.7095,0.7095,0.7095,0.7055,0.6953,0.6886,0.6829,0.6702,0.6512,0.6422,0.6323,0.6303,0.63,0.63,0.63,0.63,0.63,0.63,0.63,0.63,0.63,0.63,0.63,0.63,0.63,0.63,0.63,0.63,0.63,0.63,0.63,0.63,0.63,0.63,0.63,0.63,0.63,0.63,0.63,0.63,0.63,0.63,0.63,0.63,0.63,0.63,0.63,0.63,0.6286,0.6231,0.6183,0.6235,0.6146,0.6044,0.6112,0.6,0.5952,0.601,0.6027,0.6095,0.6245,0.6296,0.63,0.63,0.6328,0.63,0.63,0.6293,0.629,0.6204,0.6187,0.641,0.6633,0.6373,0.6189,0.5963,0.5898,0.5742,0.5691,0.5726,0.561,0.5535,0.5504,0.5504,0.547,0.5395,0.5395,0.5395,0.5395,0.5395,0.5395,0.5388,0.5388,0.5375,0.5365,0.5313,0.523,0.526,0.532,0.5254,0.5213,0.5306,0.5334,0.5159,0.5022,0.5042,0.4881,0.4533,0.9235,0.9148,0.7969,0.7448,0.7448,0.7183,0.7272,0.7404,0.7492,0.7511,0.7421,0.7282,0.7105,0.6839,0.6675,0.6529,0.6457,0.6337,0.6303,0.63,0.63,0.63,0.63,0.63,0.63,0.63,0.63,0.63,0.63,0.63,0.63,0.63,0.63,0.63,0.63,0.63,0.63,0.63,0.63,0.63,0.63,0.63,0.63,0.63,0.63,0.63,0.63,0.63,0.63,0.63,0.63,0.63,0.63,0.63,0.63,0.6276,0.6115,0.6112,0.6064,0.5979,0.5891,0.5969,0.584,0.581,0.5884,0.6,0.6153,0.6374,0.6502,0.6515,0.6538,0.6527,0.6388,0.628,0.6381,0.6505,0.6514,0.663,0.7029,0.7005,0.6653,0.6651,0.6737,0.5803,0.5696,0.5877,0.5908,0.5556,0.547,0.5504,0.5498,0.544,0.5395,0.5395,0.5395,0.5395,0.5395,0.5395,0.5382,0.5371,0.5347,0.5287,0.5203,0.5091,0.5138,0.5152,0.5114,0.5056,0.5118,0.5094,0.4979,0.4887,0.4881,0.4847,0.4607,1.0394,1.0308,0.9144,0.8715,0.854,0.7665,0.7797,0.8627,0.8659,0.8616,0.8479,0.8276,0.762,0.6815,0.6443,0.6354,0.6327,0.6317,0.63,0.63,0.63,0.63,0.63,0.63,0.63,0.63,0.63,0.63,0.63,0.63,0.63,0.63,0.63,0.63,0.63,0.63,0.63,0.63,0.63,0.63,0.63,0.63,0.63,0.63,0.63,0.63,0.63,0.63,0.63,0.63,0.63,0.63,0.63,0.63,0.63,0.6255,0.6118,0.5942,0.5911,0.5803,0.5769,0.5793,0.5765,0.5808,0.6114,0.6265,0.6537,0.7126,0.7114,0.7058,0.7094,0.7118,0.6767,0.6716,0.6898,0.7101,0.718,0.7252,0.7628,0.7813,0.7555,0.7817,0.7991,0.6709,0.5649,0.5911,0.6043,0.5741,0.5545,0.5684,0.5732,0.5774,0.5458,0.5395,0.5395,0.5395,0.5392,0.5392,0.5347,0.533,0.525,0.5179,0.5006,0.4935,0.4982,0.4979,0.4911,0.4901,0.4911,0.4887,0.4843,0.4779,0.4728,0.4672,0.46,1.2169,1.1466,1.0356,0.9879,0.9792,0.927,0.9357,0.9769,0.9714,0.9616,0.9475,0.9175,0.8339,0.7293,0.6623,0.6303,0.63,0.63,0.63,0.63,0.63,0.63,0.63,0.63,0.63,0.63,0.63,0.63,0.63,0.6335,0.63,0.63,0.63,0.63,0.63,0.63,0.63,0.63,0.63,0.63,0.63,0.63,0.63,0.63,0.63,0.63,0.63,0.63,0.63,0.63,0.63,0.63,0.63,0.6282,0.6242,0.6064,0.6449,0.6379,0.5981,0.5765,0.5741,0.5839,0.6078,0.6567,0.7014,0.7199,0.7321,0.7852,0.7864,0.7845,0.7831,0.7882,0.774,0.7618,0.7614,0.7726,0.7894,0.8041,0.822,0.8381,0.8589,0.8804,0.8887,0.8002,0.6933,0.6642,0.6839,0.6736,0.6441,0.6292,0.6296,0.6247,0.5815,0.5395,0.5395,0.5395,0.5422,0.5397,0.522,0.5192,0.5148,0.5019,0.4884,0.4785,0.4802,0.4772,0.4733,0.4738,0.4799,0.4769,0.4724,0.4677,0.4658,0.46,0.4539,1.3516,1.2536,1.1379,1.091,1.0862,1.0554,1.0519,1.08,1.0606,1.0496,1.0274,0.9711,0.8788,0.7889,0.7026,0.6644,0.63,0.63,0.63,0.63,0.63,0.63,0.63,0.63,0.63,0.63,0.63,0.649,0.6721,0.6683,0.6641,0.63,0.63,0.63,0.63,0.63,0.63,0.63,0.63,0.63,0.63,0.63,0.63,0.63,0.63,0.63,0.63,0.63,0.63,0.6756,0.6756,0.6888,0.7064,0.7181,0.7029,0.6925,0.7203,0.7195,0.6796,0.6498,0.6138,0.6329,0.6642,0.7382,0.788,0.8204,0.8404,0.8627,0.8608,0.8603,0.8634,0.865,0.8429,0.8394,0.8458,0.8525,0.863,0.888,0.9125,0.9363,0.9542,0.9629,0.9578,0.9163,0.8447,0.7665,0.7535,0.7632,0.7437,0.7111,0.6822,0.6789,0.6724,0.6075,0.5517,0.5484,0.5481,0.5451,0.5268,0.5119,0.5068,0.4965,0.4785,0.4743,0.4689,0.4641,0.4604,0.4648,0.4657,0.4655,0.4624,0.461,0.4569,0.4522,0.4498,1.388,1.3421,1.2271,1.1798,1.1704,1.0326,1.0456,1.1485,1.1456,1.13,1.0986,0.9942,0.8913,0.8089,0.7817,0.7215,0.6377,0.63,0.6335,0.6335,0.63,0.63,0.63,0.63,0.63,0.63,0.649,0.6984,0.748,0.7629,0.7138,0.6451,0.6834,0.649,0.6525,0.683,0.6795,0.6756,0.6756,0.6644,0.6644,0.6606,0.6567,0.6528,0.6412,0.63,0.6335,0.6451,0.6868,0.7633,0.7514,0.7765,0.8077,0.8185,0.8038,0.788,0.7994,0.8029,0.7826,0.7602,0.7728,0.7841,0.7986,0.8161,0.8603,0.8342,0.8615,0.9304,0.9346,0.9302,0.9319,0.9272,0.9136,0.9058,0.9192,0.9359,0.952,0.9882,1.0142,1.0391,1.0396,1.0263,1.0231,0.9843,0.9294,0.8511,0.8188,0.8253,0.8318,0.8059,0.7535,0.7372,0.7637,0.7046,0.5866,0.5774,0.6157,0.5906,0.5571,0.5294,0.5073,0.4918,0.4689,0.4631,0.4566,0.4522,0.4525,0.4552,0.4576,0.4528,0.4536,0.4532,0.4535,0.4508,0.4494,1.3706,1.3532,1.2756,1.2546,1.2665,1.2111,1.2108,1.2435,1.2361,1.2126,1.179,1.0729,1.0002,0.955,0.8874,0.8161,0.733,0.7215,0.6868,0.6412,0.63,0.63,0.63,0.6412,0.63,0.649,0.6868,0.7326,0.7744,0.8423,0.8542,0.8237,0.8122,0.8161,0.8161,0.7931,0.8012,0.805,0.8084,0.8127,0.8127,0.8165,0.8122,0.8127,0.8122,0.8122,0.8084,0.7518,0.7936,0.8313,0.8156,0.8426,0.8848,0.8917,0.8766,0.8576,0.876,0.8936,0.8755,0.8473,0.8226,0.8753,0.8869,0.9061,0.9411,0.9616,0.9772,1.0091,1.0085,0.9983,1.0079,1.0104,1.0064,0.987,0.9882,1.0024,1.0219,1.0481,1.0543,1.053,1.0555,1.0491,1.0523,1.0491,0.9945,0.9364,0.9075,0.8909,0.9005,0.9005,0.8484,0.8124,0.8318,0.8027,0.6907,0.6829,0.6948,0.6436,0.5931,0.5686,0.5402,0.4761,0.458,0.4525,0.4515,0.4546,0.4546,0.4519,0.4491,0.4491,0.4491,0.4498,0.4494,0.4491,0.4491,1.342,1.3333,1.2965,1.2904,1.3053,1.2979,1.2939,1.2899,1.2705,1.2549,1.2231,1.1539,1.105,1.064,1.0115,0.9178,0.8351,0.7897,0.7591,0.7288,0.7061,0.6984,0.7099,0.7288,0.7476,0.7365,0.7783,0.8347,0.895,0.9442,0.9857,1.0121,1.0158,0.9933,0.9183,0.9334,0.9334,0.9296,0.9296,0.9296,0.9221,0.9221,0.9188,0.915,0.9107,0.9107,0.896,0.858,0.8799,0.9185,0.9238,0.9096,0.9305,0.9455,0.9242,0.9254,0.9377,0.9738,0.952,0.9294,0.9064,0.9594,0.9696,1.0034,1.0396,1.0586,1.0436,1.0486,1.053,1.0586,1.0586,1.0493,1.0467,1.0238,1.027,1.0405,1.043,1.0568,1.0561,1.0586,1.0586,1.0586,1.0586,1.0586,1.0364,0.9977,0.9881,0.9786,0.9881,0.9786,0.946,0.9166,0.9102,0.8613,0.8049,0.7902,0.7659,0.7038,0.6556,0.6267,0.5884,0.5262,0.4873,0.4948,0.4921,0.4708,0.4601,0.4519,0.4491,0.4491,0.4491,0.4491,0.4491,0.4491,0.4491,1.3053,1.2811,1.2784,1.2777,1.277,1.2489,1.2365,1.2418,1.2371,1.2338,1.2305,1.2114,1.1694,1.105,1.0826,1.019,0.9291,0.8499,0.8275,0.858,0.8089,0.8351,0.8694,0.8841,0.8618,0.9107,0.9296,0.9701,1.0453,1.064,1.1205,1.1663,1.1589,1.1136,0.9523,0.9372,0.9372,0.9372,0.9523,0.9636,0.9712,0.975,0.9787,0.9825,0.9825,0.99,0.9825,0.9429,0.9713,1.0361,1.0101,1.0147,1.0726,1.0683,1.0501,1.0348,1.0385,1.0486,1.0491,1.0466,1.0364,1.0333,1.0269,1.0428,1.0555,1.0586,1.0586,1.0586,1.0586,1.0586,1.0586,1.0586,1.0586,1.0586,1.0586,1.0586,1.0586,1.0586,1.0586,1.0586,1.0586,1.0586,1.0586,1.0586,1.0586,1.0491,1.0555,1.0593,1.0561,1.0403,1.0047,0.9919,0.9716,0.9382,0.8908,0.8666,0.8344,0.7694,0.718,0.6894,0.6643,0.6257,0.59,0.5601,0.5437,0.5386,0.4956,0.4519,0.4491,0.4491,0.4491,0.4491,0.4491,0.4491,0.4491,1.2878,1.2764,1.2576,1.2452,1.2438,1.2351,1.2305,1.2305,1.2305,1.2305,1.2305,1.2305,1.2187,1.1848,1.1657,1.1205,1.034,1.0115,1.0002,0.9258,0.8917,0.8993,0.9334,0.9523,0.9448,0.9523,0.9857,1.0415,1.0714,1.1316,1.1811,1.2268,1.2268,1.1966,1.1471,1.1285,1.1329,1.1323,1.1323,1.1329,1.1285,1.1211,1.1174,1.1136,1.1136,1.1105,1.1013,1.0504,1.0613,1.1198,1.0831,1.0584,1.1074,1.1029,1.0862,1.0667,1.0586,1.0586,1.0586,1.0555,1.0555,1.0586,1.0586,1.0586,1.0586,1.0586,1.0586,1.0586,1.0586,1.0586,1.0586,1.0586,1.0586,1.0586,1.0586,1.0586,1.0586,1.0586,1.0586,1.0586,1.0586,1.0586,1.0586,1.0586,1.0586,1.0586,1.0586,1.0586,1.0593,1.0593,1.0396,1.0403,1.025,1.0001,0.9723,0.9321,0.8997,0.8478,0.7903,0.7466,0.7252,0.7122,0.6722,0.6281,0.6172,0.6041,0.5414,0.4869,0.457,0.4491,0.457,0.4543,0.4491,0.4491,0.4491,1.263,1.261,1.2385,1.2305,1.2305,1.2305,1.2305,1.2305,1.2305,1.2305,1.2305,1.2305,1.2268,1.2268,1.2231,1.2107,1.1316,1.0864,1.105,1.0196,0.9933,1.0158,1.0308,1.0271,1.0614,1.0533,1.0832,1.1354,1.1428,1.1996,1.2261,1.2268,1.2305,1.2231,1.215,1.2114,1.2157,1.2077,1.204,1.2083,1.212,1.2157,1.2194,1.2157,1.2194,1.2194,1.2061,1.1724,1.1299,1.1553,1.1288,1.0723,1.1048,1.1022,1.0868,1.0687,1.0586,1.0586,1.0586,1.0586,1.0586,1.0586,1.0586,1.0586,1.0586,1.0586,1.0586,1.0586,1.0586,1.0586,1.0586,1.0586,1.0586,1.0586,1.0586,1.0586,1.0586,1.0586,1.0586,1.0586,1.0586,1.0586,1.0586,1.0586,1.0586,1.0586,1.0586,1.0586,1.0586,1.0586,1.0586,1.0593,1.0528,1.0283,1.001,0.9709,0.9436,0.923,0.8658,0.8008,0.8023,0.7907,0.7429,0.7015,0.6934,0.6637,0.5819,0.53,0.5144,0.4952,0.4814,0.4736,0.4543,0.4491,0.4491,1.2311,1.2305,1.2305,1.2305,1.2305,1.2305,1.2305,1.2305,1.2305,1.2305,1.2305,1.2305,1.2305,1.2305,1.2305,1.2231,1.2077,1.1316,1.1471,1.162,1.113,1.1471,1.1737,1.1929,1.1706,1.1966,1.215,1.1959,1.2224,1.2268,1.2305,1.2305,1.2305,1.2305,1.2305,1.2305,1.2305,1.2305,1.2305,1.2305,1.2305,1.2305,1.2305,1.2305,1.2305,1.2305,1.2191,1.2051,1.2038,1.2068,1.1866,1.1613,1.143,1.1162,1.0882,1.0707,1.0633,1.0586,1.0586,1.0586,1.0586,1.0586,1.0586,1.0586,1.0586,1.0586,1.0586,1.0586,1.0586,1.0586,1.0586,1.0586,1.0586,1.0586,1.0586,1.0586,1.0586,1.0586,1.0586,1.0586,1.0586,1.0586,1.0586,1.0586,1.0586,1.0586,1.0586,1.0586,1.0586,1.0586,1.0586,1.0586,1.0539,1.0439,1.0198,0.9873,0.955,0.9257,0.8984,0.8507,0.8613,0.856,0.8156,0.7803,0.7696,0.7262,0.6551,0.6118,0.5878,0.566,0.5441,0.4924,0.4736,0.4543,0.4491,1.2305,1.2305,1.2305,1.2305,1.2305,1.2305,1.2305,1.2305,1.2305,1.2305,1.2305,1.2305,1.2305,1.2305,1.2305,1.2305,1.2194,1.2077,1.207,1.2033,1.1922,1.2077,1.2194,1.2305,1.2305,1.2305,1.2305,1.2305,1.2268,1.2305,1.2305,1.2305,1.2305,1.2305,1.2305,1.2305,1.2305,1.2305,1.2305,1.2305,1.2305,1.2305,1.2305,1.2305,1.2305,1.2305,1.2285,1.2131,1.2078,1.202,1.173,1.1496,1.1443,1.1295,1.1169,1.0889,1.0747,1.0586,1.0586,1.0586,1.0586,1.0586,1.0586,1.0586,1.0586,1.0586,1.0586,1.0586,1.0586,1.0586,1.0586,1.0586,1.0586,1.0586,1.0586,1.0586,1.0586,1.0586,1.0586,1.0586,1.0586,1.0586,1.0586,1.0586,1.0586,1.0586,1.0586,1.0586,1.0586,1.0586,1.0586,1.0586,1.0553,1.0466,1.0167,0.9873,0.955,0.9264,0.8991,0.8791,0.8752,0.8672,0.8646,0.846,0.8162,0.7803,0.7343,0.6993,0.6718,0.6421,0.6177,0.5496,0.4952,0.4814,0.457,1.2305,1.2305,1.2305,1.2305,1.2305,1.2305,1.2305,1.2305,1.2305,1.2305,1.2305,1.2305,1.2305,1.2305,1.2305,1.2305,1.2305,1.2231,1.2268,1.2268,1.2305,1.2268,1.2305,1.2305,1.2305,1.2305,1.2305,1.2305,1.2305,1.2305,1.2305,1.2305,1.2305,1.2305,1.2305,1.2305,1.2305,1.2305,1.2305,1.2305,1.2305,1.2305,1.2305,1.2305,1.2305,1.2305,1.2291,1.2084,1.2051,1.2074,1.1824,1.171,1.1583,1.141,1.1116,1.0854,1.07,1.06,1.0586,1.0586,1.0586,1.0586,1.0586,1.0586,1.0586,1.0586,1.0586,1.0586,1.0586,1.0586,1.0586,1.0586,1.0586,1.0586,1.0586,1.0586,1.0586,1.0586,1.0586,1.0586,1.0586,1.0586,1.0586,1.0586,1.0586,1.0586,1.0586,1.0586,1.0586,1.0586,1.0586,1.0586,1.0559,1.0492,1.018,0.9913,0.959,0.9291,0.9005,0.8851,0.8798,0.8778,0.8725,0.8619,0.8454,0.8103,0.7723,0.775,0.7557,0.7208,0.6885,0.6448,0.5823,0.53,0.5003,1.2305,1.2305,1.2305,1.2305,1.2305,1.2305,1.2305,1.2305,1.2305,1.2305,1.2305,1.2305,1.2305,1.2305,1.2305,1.2305,1.2305,1.2305,1.2305,1.2305,1.2305,1.2305,1.2305,1.2305,1.2305,1.2305,1.2305,1.2305,1.2305,1.2305,1.2305,1.2305,1.2305,1.2305,1.2305,1.2305,1.2305,1.2305,1.2305,1.2305,1.2305,1.2305,1.2305,1.2305,1.2305,1.2305,1.2305,1.2298,1.2305,1.2298,1.2251,1.2104,1.177,1.1396,1.1035,1.076,1.066,1.06,1.0586,1.0586,1.0586,1.0586,1.0586,1.0586,1.0586,1.0586,1.0586,1.0586,1.0586,1.0586,1.0586,1.0586,1.0586,1.0586,1.0586,1.0586,1.0586,1.0586,1.0586,1.0586,1.0586,1.0586,1.0586,1.0586,1.0586,1.0586,1.0586,1.0586,1.0586,1.0586,1.0586,1.0586,1.0566,1.0512,1.0332,1.002,0.9686,0.9372,0.9072,0.8864,0.8824,0.8785,0.8778,0.8699,0.8593,0.8374,0.8129,0.8156,0.8049,0.7643,0.7402,0.7316,0.6826,0.614,0.571,1.2305,1.2305,1.2305,1.2305,1.2305,1.2305,1.2305,1.2305,1.2305,1.2305,1.2305,1.2305,1.2305,1.2305,1.2305,1.2305,1.2305,1.2305,1.2305,1.2305,1.2305,1.2305,1.2305,1.2305,1.2305,1.2305,1.2305,1.2305,1.2305,1.2305,1.2305,1.2305,1.2305,1.2305,1.2305,1.2305,1.2305,1.2305,1.2305,1.2305,1.2305,1.2305,1.2305,1.2305,1.2305,1.2305,1.2305,1.2305,1.2305,1.2305,1.2305,1.2144,1.1906,1.1503,1.1189,1.0922,1.0693,1.0613,1.0586,1.0586,1.0586,1.0586,1.0586,1.0586,1.0586,1.0586,1.0586,1.0586,1.0586,1.0586,1.0586,1.0586,1.0586,1.0586,1.0586,1.0586,1.0586,1.0586,1.0586,1.0586,1.0586,1.0586,1.0586,1.0586,1.0586,1.0586,1.0586,1.0586,1.0586,1.0586,1.0586,1.0586,1.0586,1.0512,1.0372,1.014,0.982,0.9552,0.9279,0.9065,0.8851,0.8791,0.8778,0.8778,0.8699,0.8507,0.848,0.8586,0.8401,0.8049,0.7969,0.7943,0.775,0.7171,0.6745,1.2305,1.2305,1.2305,1.2305,1.2305,1.2305,1.2305,1.2305,1.2305,1.2305,1.2305,1.2305,1.2305,1.2305,1.2305,1.2305,1.2305,1.2305,1.2305,1.2305,1.2305,1.2305,1.2305,1.2305,1.2305,1.2305,1.2305,1.2305,1.2305,1.2305,1.2305,1.2305,1.2305,1.2305,1.2305,1.2305,1.2305,1.2305,1.2305,1.2305,1.2305,1.2305,1.2305,1.2305,1.2305,1.2305,1.2305,1.2305,1.2305,1.2245,1.2178,1.1944,1.1663,1.1343,1.1076,1.0868,1.068,1.0586,1.0586,1.0586,1.0586,1.0586,1.0586,1.0586,1.0586,1.0586,1.0586,1.0586,1.0586,1.0586,1.0586,1.0586,1.0586,1.0586,1.0586,1.0586,1.0586,1.0586,1.0586,1.0586,1.0586,1.0586,1.0586,1.0586,1.0586,1.0586,1.0586,1.0586,1.0586,1.0586,1.0586,1.0586,1.0586,1.0586,1.0506,1.0285,0.9967,0.9706,0.9411,0.9118,0.8858,0.8805,0.8778,0.8778,0.8778,0.8752,0.8752,0.8778,0.8778,0.8507,0.8507,0.8593,0.8342,0.8096,0.7777,1.2305,1.2305,1.2305,1.2305,1.2305,1.2305,1.2305,1.2305,1.2305,1.2305,1.2305,1.2305,1.2305,1.2305,1.2305,1.2305,1.2305,1.2305,1.2305,1.2305,1.2305,1.2305,1.2305,1.2305,1.2305,1.2305,1.2305,1.2305,1.2305,1.2305,1.2305,1.2305,1.2305,1.2305,1.2305,1.2305,1.2305,1.2305,1.2305,1.2305,1.2305,1.2305,1.2305,1.2305,1.2305,1.2305,1.2305,1.2305,1.2305,1.2124,1.1986,1.167,1.1436,1.1162,1.0948,1.072,1.0633,1.0586,1.0586,1.0586,1.0586,1.0586,1.0586,1.0586,1.0618,1.0618,1.0618,1.0618,1.0618,1.0586,1.0586,1.0586,1.0586,1.0586,1.0586,1.0586,1.0586,1.0586,1.0586,1.0586,1.0586,1.0586,1.0586,1.0586,1.0586,1.0586,1.0586,1.0586,1.0586,1.0586,1.0586,1.0586,1.0586,1.0586,1.0579,1.0278,0.9933,0.9726,0.9439,0.9118,0.8891,0.8825,0.8778,0.8778,0.8778,0.8778,0.8778,0.8778,0.8778,0.8778,0.8778,0.8725,0.8672,0.8507,0.8613,1.2305,1.2305,1.2305,1.2305,1.2305,1.2305,1.2305,1.2305,1.2305,1.2305,1.2305,1.2305,1.2305,1.2305,1.2305,1.2285,1.2231,1.2251,1.2291,1.2305,1.2298,1.2298,1.2305,1.2305,1.2305,1.2305,1.2305,1.2305,1.2305,1.2305,1.2305,1.2305,1.2305,1.2305,1.2305,1.2305,1.2305,1.2305,1.2305,1.2305,1.2305,1.2305,1.2305,1.2305,1.2305,1.2305,1.2305,1.2305,1.2158,1.1937,1.1683,1.1396,1.1209,1.1029,1.0834,1.0673,1.0586,1.0586,1.0586,1.0586,1.0586,1.0586,1.0618,1.0656,1.0688,1.0744,1.0744,1.0744,1.0744,1.0649,1.0649,1.0586,1.0586,1.0586,1.0586,1.0586,1.0586,1.0586,1.0586,1.0586,1.0586,1.0586,1.0586,1.0586,1.0586,1.0586,1.0586,1.0586,1.0586,1.0586,1.0586,1.0579,1.0573,1.0586,1.0573,1.0157,0.9813,0.9633,0.9419,0.9078,0.8871,0.8811,0.8778,0.8778,0.8778,0.8778,0.8778,0.8778,0.8778,0.8778,0.8778,0.8778,0.8778,0.8778,0.8778]}]]